     2              OBSERVATION DATA    GPS                 RINEX VERSION / TYPE
teqc 2000Feb29 Duncan Agnew 20031030 00:39:26UTC            PGM / RUN BY / DATE
                                                            COMMENT
L2: 1 -> 1; 150 -> 5; 250 -> 9                              COMMENT
L2: 1 -> 1; 150 -> 5; 250 -> 9                              COMMENT
L2: 1 -> 1; 150 -> 5; 250 -> 9                              COMMENT
L2: 1 -> 1; 150 -> 5; 250 -> 9                              COMMENT
L2: 1 -> 1; 150 -> 5; 250 -> 9                              COMMENT
Original Marker Name: BRYN                                  COMMENT
Campaign Name: CSUSB 2002-2003                              COMMENT
4-Character Station Name: BRYN                              COMMENT
6-Character Antenna Code: DMRCHT                            COMMENT
Vertical Measurement Point: BPA                             COMMENT
Vertical Offset to Rinex Ref. Point: 0.0000                 COMMENT
Radial Measurement Point: RRP                               COMMENT
Radial Offset to Rinex Ref. Point: 0.0000                   COMMENT
Antenna Height from Field Measurement: 1.5000 m             COMMENT
Additional Antenna Identification Info.:                    COMMENT
Turborogue and Ashtech Choke Ring                           COMMENT
Original XYZ: -2423240.2878 -4701878.0725 3552435.1411      COMMENT
New XYZ position is based on association with SCEC monument COMMENT
E1D0R8V2+0011. Position of that monument is believed to be  COMMENT
valid to within 1 m horizontally; vertical accuracy         COMMENT
should be no worse than 3-times this value.                 COMMENT
                                                            COMMENT
Revised Rinex header created by UCSD GPS archive for        COMMENT
GSAC on 09-Nov-2004 (2004:314) 22:42:57 GMT                 COMMENT
For assistance contact dagnew@ucsd.edu                      COMMENT
or anderson@python.ucsd.edu                                 COMMENT
                                                            COMMENT
BRYN 1928 1983                                              MARKER NAME
JAR CAL STATE SAN BERNARDINO                                OBSERVER / AGENCY
2402 ASHTECH Z-XII3 CD00                                    REC # / TYPE / VERS
2409 DORNE-MARGOL. TYPE T                                   ANT # / TYPE
 -2423235.0000 -4701864.0000  3552417.0000                  APPROX POSITION XYZ
        1.5000        0.0000        0.0000                  ANTENNA: DELTA H/E/N
     1     1     0                                          WAVELENGTH FACT L1/2
     7    C1    L1    L2    P1    P2    S1    S2            # / TYPES OF OBSERV
     0                                                      INTERVAL
  2002     7     2    15    10   30.000000                  TIME OF FIRST OBS
  2002     7     3     0    30   30.000000                  TIME OF LAST OBS
                                                            END OF HEADER
 02  7  2 15 10 30.0000000  0  8G23G17G15G 6G30G29G10G 5
                    -14103.64349     -8310.37647                  18288510.294
       242.000         198.000
                    -39801.83549    -17242.44746                  19766861.604
       234.000         165.000
                    -59466.38549    -24188.21345                  20608908.062
       226.000         136.000
                    -38732.26049    -23608.71947                  18285180.603
       244.000         200.000
                     67457.57749     41655.04643
       218.000          74.000
                    -55524.25349    -32246.65943
       221.000          74.000
                     47183.09149     26959.81046                  19199873.262
       240.000         176.000
                     93982.35649     56436.97645                  20876875.746
       227.000         154.000
 02  7  2 15 11  0.0000000  0  8G23G17G15G 6G30G29G10G 5
  18285611.941      -29303.42649    -20154.39047  18285611.095    18285617.692
       241.000         209.000
  19758056.515      -86036.52949    -53269.50646  19758056.172    19758064.253
       232.000         184.000
  20596540.959     -124425.63349    -74805.82645  20596541.051    20596547.374
       227.000         155.000
  18278558.594      -73498.23149    -50699.10847  18278558.567    18278564.868
       243.000         208.000
                    146850.46849    103519.27244                  18991903.462
       222.000         109.000
                   -116376.65749    -79664.09345                  21270867.096
       222.000         138.000
  19213767.980      120235.97549     83884.05947  19213767.136    19213774.623
       239.000         194.000
  20897267.320      201185.70749    139971.91146  20897265.954    20897276.377
       229.000         168.000
 02  7  2 15 11 30.0000000  0  8G23G17G15G 6G30G29G10G 5
  20681188.542      -43825.50449    -31470.30747  20681187.782    20681193.843
       241.000         210.000
  22147663.316     -131933.69849    -89033.54647  22147662.133    22147670.525
       234.000         188.000
  22982582.701     -189050.07249   -125162.51845  22982582.209    22982588.352
       226.000         158.000
  20670366.841     -107823.77849    -77446.29647  20670366.383    20670372.496
       243.000         209.000
  21405443.975      226757.16149    165784.14545  21405443.340    21405449.484
       223.000         162.000
  23657695.912     -176850.65549   -126786.63345  23657696.987    23657701.683
       219.000         148.000
  21626116.848      193850.32749    141245.82647  21626115.322    21626122.386
       240.000         196.000
  23316050.596      308614.63649    223682.64146  23316049.875    23316058.680
       230.000         172.000
 02  7  2 15 12  0.0000000  0  8G23G17G15G 6G30G29G10G 5
  20678557.081      -57650.12649    -42242.73547  20678556.743    20678563.228
       241.000         211.000
  22138993.888     -177490.46249   -124532.33247  22138993.514    22139001.759
       235.000         191.000
  22970347.360     -253346.51049   -175263.65145  22970346.750    22970353.512
       225.000         157.000
  20663919.924     -141697.95249   -103841.76147  20663920.306    20663926.497
       243.000         208.000
  21420761.552      307245.14149    228501.96146  21420759.407    21420765.904
       223.000         166.000
  23646260.023     -236948.01349   -173615.70845  23646259.036    23646267.555
       216.000         153.000
  21640243.168      268090.15949    199094.98447  21640242.592    21640250.054
       239.000         197.000
  23336551.256      416351.03649    307632.97446  23336550.822    23336559.732
       229.000         174.000
 02  7  2 15 12 30.0000000  0  8G23G17G15G 6G30G29G10G 5
  20655263.245     -180061.29249   -137628.06247  20655262.689    20655269.173
       240.000         211.000
  22109595.345     -331983.07149   -244916.18347  22109594.456    22109602.463
       234.000         192.000
  22937380.542     -426585.96949   -310255.43245  22937380.642    22937388.798
       223.000         156.000
  20636765.538     -284397.88749   -215036.52247  20636765.195    20636771.531
       242.000         207.000
  21415385.741      279002.54149    206494.65746  21415385.117    21415391.782
       223.000         166.000
  23614101.246     -405937.90249   -305296.05445  23614100.089    23614110.480
       214.000         157.000
  21633688.762      233645.24549    172254.73347  21633688.109    21633695.162
       239.000         197.000
  23336308.792      415075.77349    306639.14246  23336308.260    23336318.377
       230.000         176.000
 02  7  2 15 13  0.0000000  0  8G23G17G15G 6G30G29G10G 5
  20651898.032     -197745.67949   -151408.09447  20651897.369    20651904.142
       240.000         210.000
  22100058.679     -382098.38149   -283967.07447  22100057.878    22100065.141
       235.000         192.000
  22924275.310     -495454.99449   -363919.58645  22924275.274    22924282.465
       224.000         155.000
  20629494.443     -322608.52949   -244811.05047  20629494.388    20629500.339
       242.000         206.000
  21429911.999      355339.60049    265977.99146  21429912.280    21429918.268
       225.000         167.000
  23601814.486     -470503.84049   -355607.10845  23601813.574    23601822.286
       215.000         157.000
  21647043.902      303825.89349    226940.90647  21647043.264    21647049.907
       239.000         197.000
  23355913.645      518098.78149    386916.68246  23355913.398    23355921.615
       228.000         174.000
 02  7  2 15 13 30.0000000  0  8G23G17G15G 6G30G29G10G 5
  20648634.625     -214895.18049   -164771.34447  20648634.008    20648640.472
       240.000         209.000
  22090557.292     -432028.73349   -322873.82847  22090556.106    22090563.494
       234.000         191.000
  22911203.973     -564145.70749   -417444.79645  22911202.435    22911209.807
       223.000         154.000
  20622280.166     -360520.07849   -274352.52347  20622280.242    20622285.961
       242.000         206.000
  21444512.047      432061.85849    325761.47246  21444512.173    21444518.777
       225.000         168.000
  23589572.774     -534835.04949   -405735.28545  23589572.659    23589582.145
       214.000         155.000
  21660480.970      374437.84749    281963.16247  21660480.351    21660487.627
       239.000         198.000
  23375538.480      621225.80249    467275.26946  23375538.591    23375547.097
       227.000         173.000
 02  7  2 15 14  0.0000000  0  9G23G17G15G 6G30G29G26G10G 5
  20645472.999     -231509.76149   -177717.76047  20645472.727    20645478.991
       239.000         209.000
  22081090.770     -481774.40149   -361636.68447  22081089.620    22081097.876
       233.000         191.000
  22898166.601     -632657.89949   -470830.89745  22898165.660    22898174.884
       221.000         155.000
  20615123.200     -398130.69649   -303659.49947  20615123.027    20615128.828
       242.000         205.000
  21459184.414      509166.57049    385842.98346  21459183.836    21459190.260
       222.000         169.000
  23577376.481     -598928.57949   -455678.26545  23577376.292    23577384.361
       214.000         155.000
                   -348704.79549   -262802.15144                  23581356.698
       208.000         121.000
  21673999.545      445478.26949    337319.27647  21673998.503    21674006.490
       238.000         198.000
  23395182.263      724454.05949    547712.76546  23395181.803    23395191.239
       222.000         170.000
 02  7  2 15 14 30.0000000  0  9G23G17G15G 6G30G29G26G10G 5
  20642413.327     -247589.00849   -190247.04247  20642413.195    20642419.079
       240.000         210.000
  22071659.613     -531335.28849   -400255.54047  22071659.918    22071666.985
       236.000         193.000
  22885163.060     -700991.14149   -524077.57145  22885162.312    22885170.689
       223.000         157.000
  20608023.869     -435438.17749   -332730.26847  20608023.792    20608029.737
       242.000         204.000
  21473929.147      586651.49849    446220.76746  21473928.109    21473934.581
       224.000         168.000
  23565225.795     -662781.24349   -505433.58145  23565226.993    23565234.009
       216.000         159.000
  23565306.089     -433019.55549   -328501.88045  23565306.348    23565312.465
       219.000         143.000
  21687599.200      516944.75949    393007.39947  21687598.678    21687606.219
       240.000         199.000
  23414844.698      827781.08149    628227.19846  23414844.740    23414854.541
       225.000         168.000
 02  7  2 15 15  0.0000000  0  9G23G17G15G 6G30G29G26G10G 5
  20639455.502     -263133.09949   -202359.31747  20639455.382    20639461.347
       240.000         209.000
  22062263.861     -580711.96649   -438730.86447  22062262.953    22062270.870
       235.000         193.000
  22872193.631     -769145.45849   -577184.82145  22872193.050    22872201.920
       224.000         160.000
  20600982.532     -472440.83649   -361563.51247  20600982.297    20600988.662
       241.000         204.000
  21488745.669      664513.74049    506892.57646  21488745.651    21488752.154
       226.000         167.000
  23553121.798     -726390.15849   -554998.91145  23553120.474    23553130.713
       214.000         161.000
  23549293.977     -517163.68949   -394068.59045  23549291.645    23549302.079
       221.000         152.000
  21701279.576      588834.69049    449025.47747  21701278.777    21701285.663
       239.000         199.000
  23434525.382      931204.25149    708816.53746  23434525.156    23434534.396
       225.000         166.000
 02  7  2 15 15 30.0000000  0  9G23G17G15G 6G30G29G26G10G 5
  20636599.690     -278141.09049   -214053.86247  20636599.469    20636605.380
       240.000         209.000
  22052903.006     -629903.54849   -477061.96547  22052902.983    22052909.756
       236.000         193.000
  22859258.739     -837120.18049   -630152.14546  22859257.455    22859267.103
       223.000         163.000
  20593999.749     -509135.70449   -390156.92247  20593999.651    20594005.723
       242.000         204.000
  21503634.088      742751.58849    567857.03446  21503634.693    21503641.626
       225.000         168.000
  23541064.145     -789751.46849   -604371.33245  23541063.061    23541072.712
       213.000         159.000
  23533314.303     -601132.57949   -459498.79345  23533313.906    23533325.412
       222.000         159.000
  21715040.065      661146.49349    505372.28147  21715039.431    21715046.953
       240.000         199.000
  23454224.383     1034721.91949    789479.51746  23454223.349    23454232.474
       226.000         163.000
 02  7  2 15 16  0.0000000  0  9G23G17G15G 6G30G29G26G10G 5
  20633845.620     -292614.50249   -225331.83547  20633845.486    20633851.049
       241.000         209.000
  22043577.139     -678912.02349   -515250.36547  22043576.649    22043582.927
       236.000         191.000
  22846357.472     -904916.66649   -682980.56346  22846357.716    22846365.601
       228.000         166.000
  20587075.597     -545522.48149   -418510.26247  20587075.494    20587081.232
       243.000         204.000
  21518593.058      821360.93449    629110.99846  21518592.628    21518599.353
       222.000         168.000
  23529054.051     -852863.56249   -653549.56545  23529052.026    23529061.464
       212.000         157.000
  23517369.119     -684924.36449   -524791.02546  23517368.634    23517378.945
       224.000         164.000
  21728880.199      733876.11049    562044.65847  21728879.800    21728886.106
       239.000         198.000
  23473940.715     1138329.81549    870212.80945  23473941.209    23473947.279
       227.000         160.000
 02  7  2 15 16 30.0000000  0  9G23G17G15G 6G30G29G26G10G 5
  20631193.550     -306551.73249   -236192.00947  20631192.892    20631199.084
       240.000         209.000
  22034286.283     -727735.86249   -553294.90747  22034285.691    22034292.454
       237.000         192.000
  22833490.659     -972533.19749   -735668.76746  22833490.414    22833497.996
       226.000         169.000
  20580210.823     -581597.76249   -446620.88147  20580210.697    20580216.506
       242.000         204.000
  21533622.262      900340.58049    690653.52346  21533622.094    21533629.575
       223.000         169.000
  23517092.338     -915722.02649   -702530.21145  23517093.005    23517099.253
       217.000         158.000
  23501458.745     -768533.75549   -589941.11046  23501459.038    23501467.637
       227.000         166.000
  21742799.574      807022.65249    619041.91747  21742798.894    21742805.495
       240.000         197.000
  23493673.902     1242026.89149    951015.58345  23493671.660    23493681.726
       226.000         160.000
 02  7  2 15 17  0.0000000  0  9G23G17G15G 6G30G29G26G10G 5
  20628643.151     -319954.17649   -246635.47147  20628642.228    20628648.129
       239.000         208.000
  22025030.369     -776376.75049   -591196.88547  22025029.270    22025036.670
       235.000         191.000
  22820657.878    -1039971.09149   -788217.75646  22820657.707    22820666.158
       229.000         172.000
  20573405.337     -617361.22949   -474488.52547  20573405.228    20573411.123
       242.000         205.000
  21548721.338      979686.48649    752481.40446  21548722.370    21548727.794
       228.000         172.000
  23505179.594     -978325.45449   -751312.08845  23505180.422    23505186.857
       216.000         159.000
  23485583.723     -851958.73449   -654947.46746  23485583.379    23485591.083
       224.000         167.000
  21756797.552      880581.78949    676360.67347  21756796.923    21756803.843
       241.000         197.000
  23513422.745     1345808.97949   1031884.62245  23513422.197    23513430.959
       225.000         160.000
 02  7  2 15 17 30.0000000  0  9G23G17G15G 6G30G29G26G10G 5
  20626194.448     -332821.69249   -256662.10647  20626193.583    20626199.717
       239.000         207.000
  22015809.028     -824834.74949   -628956.36147  22015808.853    22015815.707
       234.000         190.000
  22807859.042    -1107229.97649   -840627.27746  22807857.919    22807866.022
       226.000         172.000
  20566659.619     -652810.69849   -502111.49247  20566659.358    20566665.150
       242.000         205.000
  21563890.067     1059396.20649    814592.76946  21563889.920    21563896.172
       225.000         172.000
  23493315.535    -1040670.60849   -799892.70845  23493314.037    23493323.788
       216.000         158.000
  23469744.138     -935195.53649   -719807.20346  23469742.825    23469752.499
       220.000         166.000
  21770873.547      954551.13149    733999.07747  21770872.748    21770879.489
       240.000         195.000
  23533187.467     1449673.71849   1112818.01646  23533188.682    23533196.725
       228.000         163.000
 02  7  2 15 18  0.0000000  0 10G23G18G17G15G 6G30G29G26G10G 5
  20623847.561     -345154.53049   -266272.11047  20623847.078    20623852.867
       239.000         207.000
                   -204579.01249   -140325.73043
       206.000          74.000
  22006622.432     -873110.15149   -666573.54347  22006621.143    22006629.263
       233.000         189.000
  22795093.942    -1174310.07349   -892897.48246  22795093.475    22795102.129
       229.000         174.000
  20559973.935     -687944.38149   -529488.38947  20559973.566    20559979.444
       242.000         205.000
  21579126.956     1139466.89249    876985.46046  21579126.602    21579133.134
       223.000         170.000
  23481501.018    -1102754.50349   -848269.81245  23481500.865    23481508.558
       213.000         156.000
  23453941.080    -1018240.55049   -784517.50746  23453941.094    23453950.431
       219.000         166.000
  21785027.024     1028927.99549    791955.02547  21785026.370    21785033.436
       240.000         194.000
  23552968.027     1553618.45449   1193813.76746  23552968.299    23552976.548
       232.000         169.000
 02  7  2 15 18 30.0000000  0  9G23G17G15G 6G30G29G26G10G 5
  20621602.453     -356953.44249   -275466.06347  20621602.232    20621607.560
       241.000         207.000
  21997470.433     -921203.90149   -704049.18447  21997470.128    21997477.261
       234.000         189.000
  22782363.180    -1241211.86449   -945028.73146  22782362.489    22782370.807
       229.000         175.000
  20553348.564     -722761.09249   -556618.29847  20553348.363    20553354.483
       242.000         205.000
  21594431.872     1219895.16249    939656.76546  21594432.296    21594439.032
       224.000         169.000
  23469736.957    -1164575.06549   -896441.62945  23469737.639    23469745.667
       219.000         157.000
  23438175.262    -1101090.95349   -849076.17046  23438175.249    23438184.511
       217.000         166.000
  21799257.436     1103708.92449    850225.82547  21799256.499    21799263.836
       240.000         193.000
  23572762.910     1657639.81649   1274869.24546  23572762.426    23572772.138
       228.000         170.000
 02  7  2 15 19  0.0000000  0  9G23G17G15G 6G30G29G26G10G 5
  20619459.047     -368217.80649   -284243.48947  20619458.566    20619464.265
       240.000         207.000
  21988353.328     -969115.23949   -741382.67347  21988352.780    21988359.654
       234.000         189.000
  22769666.188    -1307934.55249   -997020.41646  22769664.809    22769672.979
       230.000         174.000
  20546783.988     -757258.36349   -583499.28847  20546783.838    20546789.762
       242.000         205.000
  21609804.954     1300679.16849   1002605.25246  21609806.462    21609811.853
       226.000         171.000
  23458024.077    -1226128.45549   -944405.27345  23458024.388    23458030.467
       223.000         159.000
  23422446.960    -1183742.39449   -913479.85245  23422444.299    23422454.750
       208.000         158.000
  21813564.443     1178892.19749    908810.13747  21813563.584    21813570.047
       239.000         192.000
  23592571.766     1761736.07749   1355983.08446  23592571.692    23592581.466
       228.000         169.000
 02  7  2 15 19 30.0000000  0  9G23G17G15G 6G30G29G26G10G 5
  20617417.290     -378948.01749   -292604.68847  20617416.470    20617422.498
       239.000         206.000
  21979270.647    -1016845.20549   -778574.86147  21979269.308    21979276.915
       231.000         188.000
  22757003.503    -1374478.56949  -1048872.89846  22757002.595    22757011.147
       229.000         175.000
  20540280.493     -791434.66149   -610130.17047  20540279.900    20540286.460
       241.000         205.000
  21625244.892     1381815.63049   1065828.39846  21625244.275    21625251.340
       223.000         170.000
  23446362.435    -1287412.21449   -992158.85845  23446361.831    23446367.001
       220.000         159.000
  23406756.856    -1266191.68049   -977725.97545  23406755.650    23406764.408
       206.000         148.000
  21827947.475     1254474.93949    967705.72647  21827946.487    21827953.412
       238.000         191.000
  23612394.452     1865904.15749   1437152.91746  23612394.419    23612403.662
       231.000         170.000
 02  7  2 15 20  0.0000000  0  9G23G17G15G 6G30G29G26G10G 5
  20615477.112     -389144.00449   -300549.60347  20615476.243    20615482.494
       240.000         207.000
  21970222.413    -1064393.54349   -815625.51547  21970221.512    21970228.293
       233.000         188.000
  22744374.839    -1440843.42349  -1100585.76246  22744374.287    22744382.053
       230.000         175.000
  20533838.341     -825287.83549   -636509.26547  20533837.780    20533843.961
       241.000         205.000
  21640750.878     1463302.09449   1129324.29546  21640750.170    21640757.205
       220.000         167.000
  23434752.202    -1348423.13649  -1039699.84545  23434750.870    23434756.960
       218.000         156.000
  23391106.396    -1348435.20249  -1041811.70645  23391104.235    23391114.326
       207.000         144.000
  21842406.005     1330454.52649   1026910.54347  21842404.578    21842411.872
       237.000         190.000
  23632230.611     1970141.81349   1518376.97146  23632229.918    23632238.915
       229.000         171.000
 02  7  2 15 20 30.0000000  0  9G23G17G15G 6G30G29G26G10G 5
  20613638.300     -398806.79549   -308079.04447  20613637.586    20613643.911
       240.000         207.000
  21961208.685    -1111761.26149   -852535.42547  21961208.432    21961215.276
       234.000         188.000
  22731779.991    -1507029.97249  -1152159.68446  22731779.137    22731787.420
       228.000         176.000
  20527458.037     -858816.62549   -662635.59547  20527457.777    20527463.577
       241.000         205.000
  21656323.214     1545135.30049   1193090.34546  21656324.449    21656330.245
       225.000         167.000
  23423194.340    -1409159.02149  -1087026.51245  23423194.710    23423201.927
       225.000         158.000
  23375495.675    -1430469.74749  -1105734.64145  23375492.993    23375504.594
       206.000         147.000
  21856939.257     1406827.54349   1086421.93347  21856938.516    21856945.696
       238.000         191.000
  23652079.063     2074445.74949   1599652.60546  23652078.637    23652087.975
       227.000         171.000
 02  7  2 15 21  0.0000000  0  9G23G17G15G 6G30G29G26G10G 5
  20611900.951     -407936.22049   -315192.87847  20611900.049    20611906.533
       239.000         207.000
  21952229.330    -1158948.39249   -889304.60847  21952228.329    21952235.458
       233.000         189.000
  22719218.858    -1573037.69149  -1203594.24846  22719216.843    22719226.083
       228.000         174.000
  20521139.921     -892018.97149   -688507.55947  20521139.501    20521145.375
       242.000         205.000
  21671961.483     1627312.76549   1257124.62446  21671962.732    21671967.949
       225.000         169.000
  23411690.013    -1469616.55549  -1134136.25145  23411691.433    23411697.466
       225.000         162.000
  23359924.688    -1512291.56349  -1169491.84845  23359921.473    23359933.789
       205.000         147.000
  21871547.115     1483591.58149   1146238.00847  21871546.084    21871553.885
       236.000         192.000
  23671939.614     2178813.56649   1680978.04346  23671938.178    23671947.963
       226.000         169.000
 02  7  2 15 21 30.0000000  0 10G23G18G17G15G 6G30G29G26G10G 5
  20610265.136     -416532.17049   -321891.02047  20610264.561    20610270.848
       240.000         206.000
                   -266006.86049   -191384.13643
       206.000          74.000
  21943284.243    -1205954.66449   -925932.87447  21943283.661    21943291.310
       232.000         190.000
  22706691.972    -1638866.34649  -1254889.26246  22706690.375    22706698.827
       228.000         174.000
  20514884.274     -924892.64849   -714123.41647  20514883.971    20514889.986
       242.000         205.000
  21687664.482     1709831.96949   1321425.25646  21687662.714    21687671.685
       220.000         168.000
  23400239.062    -1529792.72449  -1181026.72745  23400240.201    23400247.153
       223.000         161.000
  23344395.311    -1593896.86749  -1233080.34045  23344396.331    23344403.641
       214.000         147.000
  21886228.793     1560744.35949   1206357.01847  21886227.970    21886235.366
       237.000         193.000
  23691811.713     2283243.03049   1762351.52846  23691811.660    23691819.686
       223.000         167.000
 02  7  2 15 22  0.0000000  0 10G23G18G17G15G 6G30G29G26G10G 5
  20608730.784     -424595.63149   -328174.22947  20608729.743    20608736.262
       240.000         207.000
                   -371633.45249   -273690.71643
       206.000          74.000
  21934373.531    -1252781.23549   -962421.11047  21934373.079    21934380.593
       234.000         191.000
  22694198.955    -1704516.58949  -1306045.25146  22694197.694    22694205.754
       229.000         173.000
  20508691.368     -957436.63149   -739482.37047  20508691.039    20508697.198
       241.000         205.000
  21703431.404     1792689.44549   1385989.45846  21703432.366    21703437.817
       223.000         166.000
  23388842.064    -1589685.16749  -1227696.16946  23388841.012    23388851.976
       220.000         163.000
  23328908.586    -1675282.83449  -1296497.87545  23328908.393    23328915.824
       217.000         151.000
  21900983.965     1638282.60849   1266776.39847  21900982.975    21900990.033
       237.000         193.000
  23711695.096     2387730.75749   1843770.40146  23711693.956    23711702.638
       222.000         166.000
 02  7  2 15 22 30.0000000  0 10G23G18G17G15G 6G30G29G26G10G 5
  20607297.584     -432126.84749   -334042.70947  20607296.825    20607303.371
       240.000         207.000
                   -477091.59149   -355865.92543
       205.000          74.000
  21925496.986    -1299428.36849   -998769.52347  21925495.985    21925503.922
       234.000         192.000
  22681740.118    -1769988.37549  -1357062.20646  22681739.399    22681748.124
       230.000         174.000
  20502561.558     -989649.06049   -764582.97247  20502561.332    20502567.389
       241.000         205.000
  21719263.075     1875882.28849   1450814.94846  21719264.586    21719269.500
       226.000         169.000
  23377499.303    -1649291.22049  -1274142.43746  23377498.964    23377506.644
       220.000         164.000
  23313463.597    -1756445.72149  -1359741.63645  23313462.905    23313473.024
       218.000         155.000
  21915811.831     1716203.48849   1327493.94447  21915810.650    21915818.455
       235.000         193.000
  23731589.157     2492274.01649   1925232.54646  23731587.644    23731597.853
       220.000         165.000
 02  7  2 15 23  0.0000000  0 10G23G18G17G15G 6G30G29G26G10G 5
  20605965.692     -439126.04749   -339496.63247  20605964.877    20605971.326
       240.000         207.000
                   -582379.01549   -437908.00644                  23579460.757
       211.000         129.000
  21916654.371    -1345896.24449  -1034978.25247  21916653.397    21916660.682
       233.000         192.000
  22669315.475    -1835281.76149  -1407940.15046  22669314.530    22669322.678
       229.000         174.000
  20496495.128    -1021528.16149   -789423.83347  20496494.432    20496501.083
       240.000         205.000
  21735157.870     1959407.91049   1515899.75746  21735157.334    21735164.258
       219.000         169.000
  23366211.635    -1708607.83749  -1320363.16745  23366211.538    23366219.894
       219.000         161.000
  23298061.727    -1837382.02449  -1422808.88045  23298061.997    23298069.731
       219.000         156.000
  21930711.997     1794504.49449   1388507.68947  21930711.055    21930717.820
       235.000         192.000
  23751493.151     2596870.35249   2006736.06746  23751491.884    23751502.453
       219.000         165.000
 02  7  2 15 23 30.0000000  0 10G23G18G17G15G 6G30G29G26G10G 5
  20604734.846     -445593.96549   -344536.57047  20604733.930    20604740.620
       241.000         207.000
  23559453.294     -687493.82349   -519815.59445  23559451.101    23559454.481
       207.000         137.000
  21907845.720    -1392185.52949  -1071047.82547  21907844.715    21907852.772
       232.000         191.000
  22656924.474    -1900397.03349  -1458679.28146  22656923.808    22656931.020
       228.000         173.000
  20490492.405    -1053072.31049   -814003.68647  20490492.227    20490498.485
       241.000         205.000
  21751114.520     2043263.09949   1581241.42646  21751113.218    21751121.760
       214.000         165.000
  23354979.636    -1767632.56849  -1366356.41545  23354979.154    23354984.444
       221.000         156.000
  23282703.911    -1918088.54449  -1485697.04045  23282704.859    23282712.420
       221.000         158.000
  21945683.725     1873182.43849   1449815.15747  21945682.540    21945690.608
       236.000         192.000
  23771406.446     2701516.82849   2088278.64446  23771406.887    23771417.252
       219.000         165.000
 02  7  2 15 24  0.0000000  0 10G23G18G17G15G 6G30G29G26G10G 5
  20603604.912     -451531.61249   -349163.31347  20603604.342    20603610.632
       242.000         207.000
  23539481.566     -792434.60249   -601587.60045  23539478.598    23539485.851
       204.000         136.000
  21899070.778    -1438297.03649  -1106978.85147  21899069.729    21899078.106
       232.000         190.000
  22644566.930    -1965334.87149  -1509280.15546  22644565.673    22644573.904
       226.000         171.000
  20484553.797    -1084280.38549   -838321.65947  20484553.759    20484559.706
       242.000         206.000
  21767133.366     2127444.42749   1646837.19846  21767135.296    21767140.299
       222.000         164.000
  23343803.675    -1826363.11849  -1412120.41945  23343804.301    23343809.477
       221.000         156.000
  23267390.712    -1998562.28149  -1548403.79545  23267392.060    23267398.266
       223.000         159.000
  21960726.787     1952233.77649   1511413.58047  21960726.156    21960733.599
       236.000         193.000
  23791329.094     2806210.27749   2169857.80546  23791328.906    23791338.042
       222.000         165.000
 02  7  2 15 24 30.0000000  0 10G23G18G17G15G 6G30G29G26G10G 5
  20602576.194     -456937.87049   -353375.99247  20602575.664    20602581.871
       242.000         207.000
  23519545.244     -897197.33749   -683220.83545  23519543.809    23519551.298
       208.000         137.000
  21890330.174    -1484229.56049  -1142770.42047  21890329.011    21890337.449
       230.000         189.000
  22632243.510    -2030093.51649  -1559741.40246  22632242.794    22632251.356
       226.000         171.000
  20478679.718    -1115149.07049   -862375.17447  20478679.745    20478685.787
       242.000         207.000
  21783215.478     2211950.70849   1712686.15546  21783216.253    21783221.094
       221.000         165.000
  23332684.286    -1884795.17249  -1457651.82045  23332683.140    23332689.856
       217.000         156.000
  23252122.583    -2078798.35649  -1610925.38745  23252123.120    23252129.957
       220.000         159.000
  21975840.650     2031657.51249   1573302.18047  21975839.713    21975847.649
       236.000         194.000
  23811260.528     2910949.47849   2251472.63046  23811260.577    23811269.308
       225.000         165.000
 02  7  2 15 25  0.0000000  0 10G23G18G17G15G 6G30G29G26G10G 5
  20601648.514     -461813.33749   -357175.06047  20601648.076    20601654.027
       243.000         208.000
  23499644.398    -1001780.04049   -764713.79945  23499643.076    23499648.259
       206.000         138.000
  21881623.336    -1529983.68049  -1178422.97047  21881623.098    21881630.123
       232.000         189.000
  22619954.321    -2094673.41549  -1610063.39746  22619954.272    22619962.160
       229.000         172.000
  20472870.600    -1145676.74849   -886162.96947  20472870.247    20472876.372
       243.000         208.000
  21799357.747     2296778.64249   1778785.78846  21799356.300    21799363.532
       214.000         163.000
  23321622.260    -1942926.16549  -1502948.67145  23321622.896    23321629.675
       219.000         159.000
  23236900.002    -2158793.34949  -1673259.13545  23236900.199    23236909.228
       221.000         160.000
  21991024.877     2111450.79549   1635478.74347  21991024.471    21991031.772
       238.000         194.000
  23831200.313     3015731.46749   2333120.77646  23831200.343    23831208.429
       227.000         166.000
 02  7  2 15 25 30.0000000  0 10G23G18G17G15G 6G30G29G26G10G 5
  20600821.598     -466159.23949   -360561.48747  20600820.918    20600826.498
       243.000         208.000
  23479777.395    -1106181.19049   -846065.26645  23479775.350    23479781.159
       204.000         137.000
  21872950.418    -1575560.56249  -1213937.40647  21872949.382    21872957.685
       231.000         188.000
  22607699.304    -2159075.35949  -1660246.69646  22607699.445    22607706.395
       230.000         174.000
  20467126.544    -1175862.30749   -909684.17747  20467126.403    20467132.030
       243.000         209.000
  21815560.252     2381924.83049   1845133.40546  21815560.382    21815566.822
       219.000         163.000
  23310618.176    -2000754.13449  -1548009.34845  23310617.455    23310625.728
       222.000         161.000
  23221723.972    -2238544.34649  -1735402.76045  23221723.295    23221732.680
       222.000         161.000
  22006278.940     2191610.31049   1697940.67747  22006277.821    22006285.769
       236.000         194.000
  23851147.393     3120552.97649   2414799.71646  23851147.364    23851156.180
       227.000         166.000
 02  7  2 15 26  0.0000000  0 10G23G18G17G15G 6G30G29G26G10G 5
  20600095.230     -469976.60849   -363536.07147  20600094.701    20600100.597
       244.000         208.000
  23459945.376    -1210399.30649   -927274.05545  23459944.978    23459949.916
       207.000         137.000
  21864311.094    -1620960.87149  -1249314.26547  21864310.773    21864317.961
       231.000         188.000
  22595477.982    -2223299.89749  -1710291.76246  22595477.237    22595485.291
       228.000         175.000
  20461447.860    -1205704.64649   -932937.93847  20461447.585    20461453.713
       243.000         209.000
  21831823.203     2467385.74849   1911726.25446  21831824.273    21831830.118
       222.000         166.000
  23299672.022    -2058276.74949  -1592832.06745  23299671.703    23299676.736
       220.000         159.000
  23206594.883    -2318048.58449  -1797354.06345  23206595.049    23206603.160
       221.000         160.000
  22021601.708     2272132.50249   1760685.21147  22021601.413    22021608.437
       236.000         193.000
  23871101.483     3225410.89349   2496506.99746  23871101.191    23871110.606
       229.000         169.000
 02  7  2 15 26 30.0000000  0 10G23G18G17G15G 6G30G29G26G10G 5
  20599469.593     -473264.47949   -366098.06547  20599468.555    20599474.660
       243.000         208.000
  23440148.844    -1314430.66549  -1008337.39545  23440142.847    23440153.373
       196.000         135.000
  21855705.560    -1666183.53649  -1284552.69546  21855705.740    21855711.693
       232.000         187.000
  22583290.719    -2287345.48849  -1760197.38146  22583290.373    22583297.585
       226.000         175.000
  20455834.973    -1235200.53949   -955921.74447  20455834.570    20455840.407
       243.000         209.000
  21848145.664     2553159.98749   1978563.22946  21848144.314    21848150.985
       219.000         166.000
  23288784.422    -2115489.83749  -1637413.58145  23288782.821    23288789.167
       219.000         157.000
  23191513.575    -2397300.93149  -1859109.09145  23191513.030    23191521.490
       218.000         157.000
  22036993.549     2353016.16949   1823711.40147  22036992.577    22037000.074
       235.000         191.000
  23891062.326     3330304.02649   2578241.72246  23891062.392    23891071.945
       229.000         171.000
 02  7  2 15 27  0.0000000  0 10G23G18G17G15G 6G30G29G26G10G 5
  20598944.524     -476023.35349   -368247.84747  20598943.978    20598950.553
       244.000         209.000
  23420386.625    -1418273.01148  -1089253.46345  23420383.346    23420394.987
       192.000         132.000
  21847133.943    -1711228.83349  -1319652.91346  21847132.545    21847140.562
       230.000         186.000
  22571137.030    -2351212.38349  -1809963.75846  22571135.468    22571144.128
       225.000         173.000
  20450288.375    -1264348.18949   -978634.18847  20450287.990    20450293.863
       244.000         208.000
  21864526.601     2639244.65449   2045642.13746  21864524.824    21864534.149
       218.000         163.000
  23277956.454    -2172390.55349  -1681751.68645  23277956.206    23277963.713
       221.000         160.000
  23176480.771    -2476297.95049  -1920665.19045  23176480.057    23176489.378
       220.000         157.000
  22052453.356     2434258.21449   1887016.86147  22052452.695    22052459.665
       235.000         190.000
  23911029.147     3435229.69749   2660001.81946  23911028.270    23911037.295
       227.000         168.000
 02  7  2 15 27 30.0000000  0 10G23G18G17G15G 6G30G29G26G10G 5
  20598520.108     -478254.12149   -369986.11747  20598519.262    20598525.623
       245.000         209.000
  23400661.966    -1521924.28749  -1170020.66244  23400662.159    23400670.012
       201.000         131.000
  21838595.490    -1756097.35949  -1354615.39546  21838594.486    21838601.913
       231.000         185.000
  22559017.422    -2414900.85849  -1859591.09546  22559015.309    22559025.303
       224.000         173.000
  20444808.279    -1293146.26149  -1001074.22447  20444807.454    20444813.807
       243.000         208.000
  21880966.440     2725636.68349   2112960.54346  21880966.702    21880974.160
       221.000         164.000
  23267188.781    -2228976.60249  -1725844.61846  23267189.490    23267196.358
       224.000         164.000
  23161497.414    -2555036.51349  -1982019.87945  23161496.969    23161507.633
       216.000         159.000
  22067980.839     2515855.67849   1950599.24847  22067979.246    22067987.646
       233.000         189.000
  23931001.779     3540184.99549   2741785.00446  23931000.953    23931010.944
       222.000         163.000
 02  7  2 15 28  0.0000000  0 10G23G18G17G15G 6G30G29G26G10G 5
  20598195.888     -479957.85649   -371313.72047  20598195.426    20598201.718
       246.000         210.000
  23380975.172    -1625382.90549  -1250637.70845  23380973.289    23380981.182
       201.000         132.000
  21830090.669    -1800790.13749  -1389440.90946  21830089.523    21830097.353
       231.000         185.000
  22546931.514    -2478411.44149  -1909079.81546  22546931.694    22546938.985
       226.000         173.000
  20439394.879    -1321593.55849  -1023240.93547  20439394.582    20439400.223
       243.000         207.000
  21897464.612     2812332.45449   2180515.60446  21897465.930    21897471.073
       224.000         168.000
  23256481.518    -2285245.85149  -1769690.72246  23256481.503    23256490.297
       224.000         169.000
  23146563.569    -2633513.61649  -2043170.83845  23146561.339    23146572.826
       212.000         158.000
  22083575.252     2597805.35849   2014456.09147  22083574.030    22083581.976
       234.000         188.000
  23950978.950     3645166.82149   2823588.86745  23950978.283    23950987.300
       219.000         160.000
 02  7  2 15 28 30.0000000  0 10G23G18G17G15G 6G30G29G26G10G 5
  20597971.925     -481134.89849   -372230.90447  20597971.211    20597977.592
       245.000         211.000
  23361324.789    -1728646.61349  -1331102.90344  23361322.013    23361330.900
       202.000         130.000
  21821619.314    -1845307.04849  -1424129.40046  21821618.048    21821626.471
       231.000         185.000
  22534880.079    -2541743.91749  -1958429.76146  22534879.617    22534886.556
       223.000         172.000
  20434048.661    -1349687.91349  -1045132.63247  20434048.443    20434054.655
       244.000         207.000
  21914019.845     2899329.46249   2248305.38246  21914018.790    21914025.674
       216.000         166.000
  23245834.849    -2341195.03049  -1813287.41146  23245833.924    23245842.303
       221.000         170.000
  23131679.776    -2711725.38249  -2104115.02145  23131678.562    23131688.693
       210.000         155.000
  22099236.286     2680104.55149   2078585.28047  22099235.488    22099243.140
       236.000         189.000
  23970960.687     3750172.75949   2905411.51645  23970959.750    23970968.896
       220.000         156.000
 02  7  2 15 29  0.0000000  0 10G23G18G17G15G 6G30G29G26G10G 5
  20597848.009     -481786.23249   -372738.44947  20597847.247    20597853.362
       246.000         211.000
  23341711.370    -1831713.37948  -1411414.68144  23341709.321    23341720.007
       194.000         130.000
  21813181.223    -1889648.75749  -1458681.37546  21813180.689    21813187.850
       233.000         185.000
  22522861.966    -2604898.82749  -2007641.36646  22522861.897    22522868.019
       222.000         169.000
  20428769.955    -1377428.02149  -1066748.27747  20428769.397    20428775.270
       245.000         208.000
  21930630.578     2986624.44249   2316327.40246  21930630.201    21930637.730
       217.000         163.000
  23235248.889    -2396821.91549  -1856632.92046  23235246.424    23235256.486
       219.000         167.000
  23116847.081    -2789668.81449  -2164850.12045  23116845.071    23116856.897
       203.000         152.000
  22114963.446     2762750.30549   2142984.51647  22114963.080    22114969.719
       236.000         190.000
  23990946.829     3855199.91549   2987250.68945  23990946.194    23990956.959
       221.000         157.000
 02  7  2 15 29 30.0000000  0 10G23G18G17G15G 6G30G29G26G10G 5
  20597824.144     -481911.73149   -372836.24347  20597823.474    20597829.856
       246.000         212.000
  23322134.874    -1934580.46749  -1491570.82944  23322134.432    23322141.300
       195.000         131.000
  21804776.719    -1933814.95249  -1493096.58246  21804775.738    21804783.428
       232.000         186.000
  22510878.033    -2667875.28549  -2056713.89246  22510877.634    22510885.478
       224.000         168.000
  20423559.078    -1404811.44249  -1088085.99147  20423558.555    20423564.896
       245.000         208.000
  21947298.967     3074215.38349   2384579.99246  21947300.580    21947305.973
       225.000         164.000
  23224724.929    -2452123.01849  -1899724.60246  23224724.308    23224732.888
       222.000         168.000
  23102065.975    -2867339.68649  -2225372.76445  23102064.254    23102076.300
       207.000         153.000
  22130756.165     2845740.66249   2207652.27547  22130755.547    22130762.593
       237.000         191.000
  24010936.803     3960246.45649   3069104.98045  24010936.445    24010947.128
       223.000         162.000
 02  7  2 15 30  0.0000000  0 10G23G18G17G15G 6G30G29G26G10G 5
  20597900.064     -481512.89649   -372525.46748  20597899.291    20597905.728
       246.000         213.000
  23302598.090    -2037246.44749  -1571570.20645  23302599.926    23302605.595
       205.000         135.000
  21796405.259    -1977806.76149  -1527375.90146  21796405.053    21796411.743
       234.000         186.000
  22498927.910    -2730674.16249  -2105648.03346  22498926.078    22498935.443
       222.000         167.000
  20418416.243    -1431837.22449  -1109145.03347  20418415.945    20418421.812
       245.000         209.000
  21964023.186     3162098.26949   2453060.10146  21964022.883    21964030.024
       222.000         166.000
  23214263.476    -2507096.50549  -1942561.00946  23214262.900    23214272.446
       220.000         170.000
  23087337.637    -2944735.32949  -2285681.01245  23087337.339    23087348.914
       210.000         155.000
  22146613.635     2929071.88949   2272585.65547  22146612.679    22146620.187
       238.000         192.000
  24030929.915     4065308.95849   3150971.66646  24030930.383    24030938.967
       223.000         163.000
 02  7  2 15 30 30.0000000  0 10G23G18G17G15G 6G30G29G26G10G 5
  20598075.487     -480590.84149   -371806.98848  20598074.730    20598081.510
       247.000         213.000
  23283100.860    -2139709.40849  -1651411.44145  23283100.465    23283107.781
       205.000         139.000
  21788067.107    -2021624.77249  -1561519.78747  21788067.165    21788074.305
       234.000         188.000
  22487011.296    -2793295.95249  -2154444.17446  22487008.458    22487019.168
       220.000         166.000
  20413341.775    -1458504.01549  -1129924.34947  20413341.598    20413347.267
       245.000         209.000
  21980801.708     3250269.93649   2521765.22446  21980801.458    21980807.927
       221.000         165.000
  23203864.977    -2561740.13049  -1985140.40246  23203864.899    23203872.946
       222.000         169.000
  23072662.963    -3021852.51649  -2345772.29345  23072663.637    23072674.147
       213.000         158.000
  22162535.435     3012740.78149   2337782.14547  22162534.597    22162541.741
       237.000         191.000
  24050925.480     4170384.58149   3232848.56646  24050925.491    24050934.411
       220.000         163.000
 02  7  2 15 31  0.0000000  0 10G23G18G17G15G 6G30G29G26G10G 5
  20598350.373     -479146.45849   -370681.50148  20598349.579    20598355.831
       246.000         214.000
  23263641.572    -2241967.58249  -1731093.07545  23263640.757    23263649.219
       201.000         137.000
  21779761.968    -2065269.87249  -1595528.93947  21779761.835    21779768.292
       235.000         189.000
  22475128.139    -2855740.91049  -2203102.58046  22475127.593    22475134.949
       220.000         166.000
  20408335.893    -1484810.45449  -1150422.86247  20408335.543    20408341.537
       245.000         210.000
  21997634.222     3338727.04649   2590692.76546  21997634.594    21997639.127
       221.000         164.000
  23193530.011    -2616051.30549  -2027460.75046  23193530.213    23193537.111
       225.000         169.000
  23058042.011    -3098688.24249  -2405644.17545  23058043.479    23058053.266
       216.000         161.000
  22178520.832     3096744.42749   2403239.49547  22178519.860    22178527.562
       236.000         190.000
  24070922.619     4275470.46349   3314733.47745  24070921.468    24070931.166
       219.000         160.000
 02  7  2 15 31 30.0000000  0 10G23G18G17G15G 6G30G29G26G10G 5
  20598724.725     -477179.61949   -369148.89748  20598724.080    20598730.268
       247.000         214.000
  23244222.110    -2344018.09149  -1810612.88645  23244224.069    23244230.533
       205.000         138.000
  21771489.732    -2108741.51649  -1629402.92847  21771488.732    21771496.683
       234.000         190.000
  22463279.084    -2918008.39649  -2251622.66446  22463278.446    22463286.458
       223.000         166.000
  20403398.956    -1510754.04349  -1170638.64847  20403398.531    20403404.493
       244.000         209.000
  22014521.035     3427467.38149   2659840.95846  22014522.413    22014527.930
       224.000         164.000
  23183258.897    -2670026.83149  -2069519.53646  23183255.936    23183266.027
       221.000         167.000
  23043475.547    -3175238.08149  -2465293.32145  23043476.533    23043485.718
       218.000         162.000
  22194569.339     3181080.67949   2468956.01647  22194567.750    22194575.485
       235.000         189.000
  24090921.239     4380564.48049   3396624.74545  24090918.974    24090930.370
       218.000         158.000
 02  7  2 15 32  0.0000000  0 10G23G18G17G15G 6G30G29G26G10G 5
  20599198.199     -474691.28449   -367209.94348  20599197.452    20599203.653
       247.000         215.000
  23224843.291    -2445859.17949  -1889969.48645  23224842.936    23224849.249
       209.000         138.000
  21763250.367    -2152040.13549  -1663142.12347  21763250.165    21763257.336
       234.000         191.000
  22451463.738    -2980098.90549  -2300004.83246  22451462.036    22451469.896
       223.000         166.000
  20398531.395    -1536333.37449  -1190570.58347  20398531.011    20398536.924
       243.000         209.000
  22031461.483     3516487.93949   2729207.53346  22031461.587    22031469.324
       221.000         165.000
  23173051.789    -2723664.11849  -2111314.74446  23173051.450    23173059.517
       225.000         166.000
  23028963.973    -3251498.90949  -2524717.26546  23028964.660    23028973.039
       220.000         163.000
  22210680.706     3265746.50749   2534929.34546  22210679.676    22210686.945
       232.000         186.000
  24110920.843     4485663.83749   3478520.17745  24110920.317    24110930.814
       218.000         158.000
 02  7  2 15 32 30.0000000  0 10G23G18G17G15G 6G30G29G26G10G 5
  20599770.790     -471682.39549   -364865.35548  20599770.206    20599776.253
       248.000         215.000
  23205504.555    -2547488.42549  -1969161.04345  23205504.314    23205510.235
       204.000         139.000
  21755043.653    -2195166.26849  -1696746.89747  21755043.197    21755050.635
       234.000         191.000
  22439681.821    -3042012.24649  -2348248.93446  22439681.662    22439687.415
       225.000         166.000
  20393733.470    -1561546.54649  -1210217.20947  20393732.833    20393739.099
       242.000         208.000
  22048454.344     3605785.80249   2798790.20046  22048454.423    22048462.351
       219.000         165.000
  23162909.820    -2776960.63149  -2152844.41146  23162909.711    23162917.063
       225.000         166.000
  23014507.750    -3327467.35249  -2583913.37745  23014508.787    23014514.832
       224.000         162.000
  22226854.187     3350739.16149   2601157.34146  22226853.180    22226861.525
       230.000         183.000
  24130921.093     4590765.99749   3560417.74245  24130922.140    24130931.688
       222.000         161.000
 02  7  2 15 33  0.0000000  0 10G23G18G17G15G 6G30G29G26G10G 5
  20600442.287     -468153.74249   -362115.75648  20600441.561    20600447.698
       248.000         215.000
  23186204.699    -2648903.59949  -2048185.87445  23186201.517    23186209.745
       195.000         132.000
  21746869.813    -2238120.20149  -1730217.48747  21746868.456    21746876.411
       232.000         191.000
  22427933.670    -3103748.55249  -2396355.09246  22427933.515    22427940.834
       227.000         167.000
  20389005.525    -1586392.04249  -1229577.32547  20389004.806    20389011.139
       241.000         208.000
  22065499.153     3695357.87149   2868586.58246  22065498.883    22065506.982
       220.000         164.000
  23152833.324    -2829913.79549  -2194106.53746  23152834.196    23152841.993
       226.000         168.000
  23000108.209    -3403139.78349  -2642878.79245  23000109.246    23000114.388
       224.000         160.000
  22243089.458     3436055.82849   2667637.81146  22243088.830    22243095.947
       229.000         182.000
  24150921.877     4695868.32549   3642315.44546  24150922.105    24150931.833
       224.000         164.000
 02  7  2 15 33 30.0000000  0 10G23G18G17G15G 6G30G29G26G10G 5
  20601212.793     -464104.78149   -358960.73148  20601212.118    20601218.188
       247.000         216.000
  23166946.440    -2750101.95448  -2127041.68844  23166946.447    23166954.372
       188.000         128.000
  21738728.846    -2280901.10849  -1763553.25647  21738728.581    21738735.471
       233.000         190.000
  22416219.580    -3165306.99249  -2444322.70946  22416219.064    22416227.296
       227.000         169.000
  20384348.011    -1610867.15449  -1248648.83847  20384347.710    20384353.629
       241.000         208.000
  22082595.936     3785202.27949   2938595.12546  22082595.717    22082602.026
       219.000         163.000
  23142822.782    -2882519.86549  -2235098.21846  23142821.908    23142829.398
       225.000         168.000
  22985765.618    -3478511.83849  -2701610.16845  22985765.975    22985771.944
       225.000         160.000
  22259386.040     3521694.77449   2734369.41246  22259384.859    22259391.969
       228.000         180.000
  24170922.375     4800969.33249   3724212.09946  24170921.679    24170932.684
       225.000         166.000
 02  7  2 15 34  0.0000000  0 10G23G18G17G15G 6G30G29G26G10G 5
  20602081.878     -459537.93949   -355402.16148  20602081.066    20602087.309
       247.000         216.000
  23147730.554    -2851082.24648  -2205727.54244  23147730.650    23147739.179
       188.000         127.000
  21730620.641    -2323510.58749  -1796755.42847  21730619.165    21730626.979
       230.000         189.000
  22404538.940    -3226689.19149  -2492152.97446  22404537.801    22404546.921
       230.000         172.000
  20379761.124    -1634971.36449  -1267431.34047  20379760.375    20379766.987
       240.000         207.000
  22099744.047     3875314.86749   3008812.64045  22099743.396    22099750.562
       218.000         161.000
  23132878.581    -2934777.44449  -2275818.34546  23132877.402    23132884.702
       224.000         166.000
  22971480.224    -3553581.27749  -2760105.79045  22971477.357    22971487.970
       219.000         159.000
  22275743.006     3607651.81649   2801348.88746  22275742.285    22275748.826
       227.000         179.000
  24190921.863     4906065.29249   3806104.83746  24190921.524    24190931.814
       226.000         165.000
 02  7  2 15 34 30.0000000  0 10G23G18G17G15G 6G30G29G26G10G 5
  20603049.475     -454453.18149   -351440.01348  20603048.616    20603054.659
       247.000         216.000
  23128556.565    -2951841.76749  -2284241.36644  23128554.935    23128565.164
       195.000         129.000
  21722544.995    -2365948.25149  -1829823.73347  21722544.226    21722552.075
       231.000         190.000
  22392892.273    -3287894.22149  -2539845.15446  22392892.063    22392899.300
       234.000         173.000
  20375245.166    -1658702.45449  -1285923.09547  20375244.782    20375250.794
       241.000         207.000
  22116942.203     3965693.30749   3079237.33445  22116942.759    22116949.850
       217.000         160.000
  23123001.107    -2986683.22849  -2316264.31546  23122999.780    23123006.962
       222.000         163.000
  22957252.859    -3628343.94949  -2818362.31245  22957252.775    22957260.735
       221.000         158.000
  22292160.139     3693924.90749   2868574.63746  22292159.069    22292167.591
       229.000         180.000
  24210919.827     5011154.42249   3887992.26146  24210919.449    24210931.212
       225.000         163.000
 02  7  2 15 35  0.0000000  0 10G23G18G17G15G 6G30G29G26G10G 5
  20604115.314     -448852.26549   -347075.65848  20604114.199    20604120.322
       246.000         215.000
  23109425.645    -3052379.30349  -2362582.28545  23109427.306    23109432.507
       204.000         136.000
  21714501.673    -2408215.45949  -1862759.20247  21714501.393    21714508.080
       233.000         191.000
  22381279.128    -3348922.89449  -2587399.92746  22381278.493    22381286.396
       233.000         175.000
  20370800.491    -1682059.56849  -1304123.44247  20370799.939    20370806.451
       241.000         207.000
  22134190.316     4056333.76349   3149866.19945  22134189.699    22134197.751
       218.000         158.000
  23113190.794    -3038235.43249  -2356434.80445  23113188.712    23113197.349
       219.000         161.000
  22943084.952    -3702797.27349  -2876377.78745  22943083.114    22943090.918
       221.000         155.000
  22308636.851     3780510.53349   2936043.93546  22308636.173    22308644.244
       230.000         182.000
  24230915.756     5116233.23449   3969871.61945  24230916.566    24230924.875
       224.000         161.000
 02  7  2 15 35 30.0000000  0 10G23G18G17G15G 6G30G29G26G10G 5
  20605279.095     -442735.93049   -342309.68448  20605278.143    20605284.795
       245.000         215.000
  23090337.034    -3152692.65649  -2440748.48845  23090337.092    23090343.440
       207.000         139.000
  21706491.106    -2450312.13649  -1895561.78847  21706489.830    21706497.762
       233.000         191.000
  22369699.198    -3409775.47549  -2634817.49146  22369698.680    22369707.558
       232.000         176.000
  20366427.237    -1705040.83949  -1322030.92747  20366427.106    20366433.280
       241.000         207.000
  22151488.021     4147233.57449   3220697.15045  22151489.163    22151494.895
       220.000         157.000
  23103447.956    -3089431.49449  -2396327.77645  23103447.016    23103455.151
       219.000         161.000
  22928976.640    -3776937.63849  -2934149.45045  22928974.911    22928982.160
       220.000         152.000
  22325172.689     3867405.88849   3003754.55846  22325171.795    22325179.975
       231.000         183.000
  24250909.126     5221299.26449   4051741.03345  24250908.076    24250919.845
       220.000         160.000
 02  7  2 15 36  0.0000000  0 10G23G18G17G15G 6G30G29G26G10G 5
  20606541.087     -436103.78549   -337141.77648  20606540.239    20606546.481
       245.000         214.000
  23071291.267    -3252778.20549  -2518737.18245  23071287.890    23071295.889
       201.000         137.000
  21698512.880    -2492237.45949  -1928230.86747  21698512.832    21698519.015
       234.000         192.000
  22358152.885    -3470450.67049  -2682096.85046  22358151.334    22358160.182
       232.000         176.000
  20362126.238    -1727643.28749  -1339643.22947  20362126.073    20362131.800
       241.000         207.000
  22168834.848     4238391.05349   3291728.84445  22168834.825    22168841.288
       213.000         156.000
  23093774.178    -3140267.24049  -2435940.02246  23093772.144    23093781.643
       218.000         163.000
  22914928.546    -3850760.25249  -2991673.46045  22914927.836    22914933.518
       220.000         152.000
  22341767.003     3954609.51749   3071705.39146  22341765.907    22341774.592
       231.000         184.000
  24270899.830     5326351.38749   4133599.60345  24270897.817    24270911.299
       218.000         159.000
 02  7  2 15 36 30.0000000  0 10G23G18G17G15G 6G30G29G26G10G 5
  20607900.896     -428957.76149   -331573.45048  20607900.008    20607906.589
       244.000         214.000
  23052288.544    -3352634.71549  -2596547.41445  23052285.875    23052295.418
       205.000         134.000
  21690567.298    -2533992.61749  -1960767.33747  21690567.013    21690573.141
       236.000         192.000
  22346640.318    -3530949.30649  -2729238.64046  22346639.094    22346646.944
       231.000         177.000
  20357897.400    -1749866.10649  -1356959.71047  20357897.141    20357903.201
       242.000         207.000
  22186229.435     4329802.17049   3362958.21745  22186229.293    22186237.712
       214.000         156.000
  23084169.083    -3190741.26149  -2475270.40446  23084168.952    23084177.727
       223.000         166.000
  22900941.211    -3924262.73949  -3048948.03945  22900940.539    22900947.944
       219.000         154.000
  22358419.372     4042117.87049   3139893.67546  22358419.049    22358426.563
       233.000         184.000
  24290887.304     5431385.89549   4215444.46445  24290886.329    24290899.469
       214.000         160.000
 02  7  2 15 37  0.0000000  0 10G23G18G17G15G 6G30G29G26G10G 5
  20609358.134     -421299.67349   -325606.09748  20609357.359    20609364.007
       245.000         214.000
  23033330.420    -3452261.20949  -2674178.36145  23033329.188    23033336.861
       208.000         136.000
  21682653.738    -2575579.04849  -1993172.34047  21682652.372    21682659.748
       236.000         193.000
  22335161.158    -3591272.53749  -2776243.74046  22335160.910    22335167.708
       234.000         177.000
  20353740.958    -1771708.77649  -1373979.98047  20353740.489    20353746.443
       241.000         207.000
  22203672.194     4421463.17749   3434382.28245  22203672.717    22203680.363
       216.000         156.000
  23074633.509    -3240851.98249  -2514317.69646  23074634.323    23074642.459
       223.000         170.000
  22887015.002    -3997442.51049  -3105971.16045  22887015.119    22887024.463
       222.000         160.000
  22375129.084     4129927.05949   3208316.37146  22375128.491    22375135.979
       233.000         184.000
  24310870.453     5536399.37849   4297272.95545  24310870.165    24310882.204
       213.000         160.000
 02  7  2 15 37 30.0000000  0 10G23G18G17G15G 6G30G29G26G10G 5
  20610912.902     -413129.40549   -319239.64648  20610912.172    20610918.548
       245.000         215.000
  23014417.235    -3551654.61649  -2751627.69745  23014418.400    23014422.703
       210.000         137.000
  21674772.326    -2616995.88249  -2025445.16947  21674771.398    21674778.543
       236.000         193.000
  22323715.750    -3651419.30149  -2823111.32646  22323714.084    22323721.416
       231.000         176.000
  20349657.203    -1793168.58149  -1390701.89547  20349656.536    20349662.939
       242.000         207.000
  22221162.223     4513371.86749   3505999.33845  22221163.149    22221169.662
       216.000         156.000
  23065167.752    -3290595.87749  -2553079.13346  23065167.807    23065177.241
       222.000         170.000
  22873151.610    -4070295.31249  -3162739.51945  22873152.896    22873160.637
       222.000         162.000
  22391895.663     4218035.31849   3276972.10146  22391894.534    22391902.153
       233.000         183.000
  24330849.823     5641390.34749   4379083.89945  24330849.953    24330860.735
       213.000         158.000
 02  7  2 15 38  0.0000000  0 10G23G18G17G15G 6G30G29G26G10G 5
  20612564.884     -404448.37049   -312475.19248  20612564.149    20612570.432
       244.000         214.000
  22995548.176    -3650813.36149  -2828894.19945  22995547.424    22995553.892
       210.000         136.000
  21666922.938    -2658244.03649  -2057586.57447  21666922.202    21666929.797
       236.000         194.000
  22312303.477    -3711390.19549  -2869841.87446  22312302.394    22312310.304
       232.000         176.000
  20345646.576    -1814244.36349  -1407124.57247  20345645.942    20345652.466
       242.000         207.000
  22238698.451     4605524.88249   3577806.78845  22238698.040    22238706.370
       215.000         156.000
  23055772.110    -3339970.81449  -2591553.07746  23055772.731    23055781.730
       223.000         169.000
  22859351.153    -4142818.16549  -3219250.74046  22859351.200    22859359.570
       222.000         164.000
  22408718.470     4306439.23149   3345858.22046  22408718.197    22408724.986
       233.000         182.000
  24350824.048     5746355.73049   4460874.87145  24350823.116    24350834.981
       208.000         153.000
 02  7  2 15 38 30.0000000  0 10G23G18G17G15G 6G30G29G26G10G 5
  20614313.875     -395257.23049   -305313.26348  20614313.018    20614319.582
       242.000         214.000
  22976723.545    -3749734.89449  -2905975.88145  22976721.717    22976729.434
       210.000         137.000
  21659105.894    -2699323.48449  -2089596.53547  21659104.934    21659112.030
       237.000         193.000
  22300924.993    -3771185.06049  -2916435.26046  22300924.701    22300932.190
       234.000         179.000
  20341709.388    -1834934.08949  -1423246.42147  20341708.978    20341715.031
       244.000         208.000
  22256280.608     4697919.75249   3649802.70245  22256280.508    22256288.419
       212.000         156.000
  23046447.230    -3388973.95349  -2629737.27546  23046445.828    23046455.036
       221.000         166.000
  22845613.991    -4215007.24749  -3275501.90246  22845613.061    22845622.704
       223.000         165.000
  22425597.113     4395136.45449   3414972.88246  22425596.033    22425603.274
       230.000         181.000
  24370792.841     5851293.50249   4542644.34945  24370792.981    24370804.223
       207.000         148.000
 02  7  2 15 39  0.0000000  0 10G23G18G17G15G 6G30G29G26G10G 5
  20616159.844     -385556.94349   -297754.58548  20616159.110    20616165.761
       242.000         213.000
  22957944.595    -3848416.91449  -2982870.93045  22957944.756    22957949.744
       211.000         138.000
  21651320.827    -2740234.19549  -2121475.00347  21651320.133    21651327.241
       236.000         193.000
  22289579.913    -3830803.62849  -2962891.26846  22289578.936    22289587.288
       233.000         181.000
  20337846.128    -1855235.92349  -1439066.01447  20337845.672    20337851.749
       245.000         210.000
  22273908.006     4790553.55649   3721984.79145  22273908.394    22273915.719
       214.000         156.000
  23037193.254    -3437602.51249  -2667629.61246  23037193.243    23037200.677
       221.000         165.000
  22831941.192    -4286858.96649  -3331490.18046  22831940.397    22831949.589
       221.000         166.000
  22442530.750     4484124.45949   3484314.12846  22442529.360    22442538.002
       230.000         179.000
  24390755.936     5956201.11049   4624390.30445  24390756.910    24390767.501
       209.000         146.000
 02  7  2 15 39 30.0000000  0 10G23G18G17G15G 6G30G29G26G10G 5
  20618102.567     -375347.86349   -289799.44447  20618101.285    20618108.042
       240.000         211.000
  22939212.091    -3946857.25249  -3059577.57545  22939213.123    22939218.964
       212.000         140.000
  21643567.961    -2780975.85049  -2153221.73347  21643567.470    21643574.387
       238.000         194.000
  22278268.490    -3890245.40949  -3009209.53546  22278267.197    22278275.614
       233.000         181.000
  20334057.083    -1875147.56949  -1454581.57447  20334056.745    20334062.951
       246.000         211.000
  22291580.935     4883424.03549   3794351.29545  22291582.389    22291588.698
       214.000         156.000
  23028011.488    -3485853.36149  -2705227.63446  23028012.309    23028019.311
       224.000         166.000
  22818333.286    -4358369.18749  -3387212.37046  22818334.196    22818342.753
       225.000         168.000
  22459519.648     4573400.94649   3553880.17646  22459519.828    22459526.309
       230.000         180.000
  24410713.186     6061076.90249   4706111.45545  24410714.814    24410725.401
       213.000         147.000
 02  7  2 15 40  0.0000000  0 10G23G18G17G15G 6G30G29G26G10G 5
  20620141.543     -364632.54149   -281449.83547  20620140.923    20620147.397
       241.000         211.000
  22920525.927    -4045055.07049  -3136095.27045  22920524.991    22920533.236
       213.000         144.000
  21635846.844    -2821550.69849  -2184838.47747  21635846.435    21635853.026
       239.000         194.000
  22266990.464    -3949512.17249  -3055391.38746  22266989.664    22266997.226
       233.000         180.000
  20330342.292    -1894669.24049  -1469793.24547  20330341.657    20330347.884
       246.000         211.000
  22309297.885     4976526.42549   3866898.53445  22309297.335    22309305.085
       212.000         154.000
  23018901.916    -3533725.77049  -2742530.76246  23018901.916    23018907.589
       222.000         165.000
  22804790.973    -4429536.36949  -3442667.25246  22804791.102    22804799.463
       226.000         170.000
  22476562.647     4662961.67949   3623667.71746  22476561.980    22476569.200
       231.000         181.000
  24430663.848     6165916.64449   4787804.51745  24430664.983    24430675.140
       216.000         149.000
 02  7  2 15 40 30.0000000  0 10G23G18G17G15G 6G30G29G26G10G 5
  20622276.483     -353413.22149   -272707.48647  20622275.746    20622282.307
       241.000         211.000
  22901885.875    -4143009.10449  -3212423.00945  22901884.945    22901892.473
       214.000         145.000
  21628157.445    -2861959.83149  -2216326.10147  21628156.549    21628163.160
       237.000         195.000
  22255745.490    -4008605.12649  -3101437.81346  22255744.089    22255752.012
       232.000         179.000
  20326701.781    -1913800.28849  -1484700.54547  20326701.547    20326707.375
       247.000         211.000
  22327057.804     5069856.78449   3939623.43045  22327058.899    22327066.939
       217.000         155.000
  23009864.453    -3581218.19149  -2779537.82345  23009863.233    23009870.330
       220.000         161.000
  22791314.366    -4500358.07949  -3497852.94146  22791314.951    22791323.187
       227.000         173.000
  22493658.961     4752802.95949   3693673.87346  22493658.095    22493665.976
       230.000         181.000
  24450607.175     6270716.79549   4869466.72445  24450608.526    24450618.422
       221.000         154.000
 02  7  2 15 41  0.0000000  0 10G23G18G17G15G 6G30G29G26G10G 5
  20624507.838     -341687.90249   -263570.86547  20624506.831    20624513.539
       240.000         210.000
  22883293.172    -4240714.55249  -3288557.04445  22883292.236    22883297.889
       215.000         145.000
  21620499.754    -2902200.80649  -2247682.69847  21620498.710    21620506.144
       237.000         195.000
  22244534.118    -4067521.27249  -3147346.45846  22244533.020    22244540.426
       233.000         179.000
  20323136.492    -1932536.33349  -1499300.04647  20323135.936    20323141.992
       246.000         211.000
  22344861.888     5163415.08549   4012525.90445  22344863.963    22344870.120
       222.000         158.000
  23000900.167    -3628325.33249  -2816244.64645  23000901.297    23000904.508
       223.000         159.000
  22777904.440    -4570827.97449  -3552764.45046  22777904.455    22777912.369
       227.000         172.000
  22510808.600     4842924.72749   3763898.57146  22510807.872    22510816.089
       230.000         181.000
  24470543.135     6375477.94849   4951098.51945  24470544.065    24470555.399
       223.000         159.000
 02  7  2 15 41 30.0000000  0 10G23G18G17G15G 6G30G29G26G10G 5
  20626834.910     -329458.96049   -254041.79847  20626834.240    20626840.518
       241.000         209.000
  22864748.336    -4338170.49549  -3364496.65245  22864748.514    22864752.052
       215.000         144.000
  21612873.877    -2942275.05849  -2278909.38047  21612872.440    21612879.769
       239.000         196.000
  22233356.032    -4126262.07649  -3193118.48346  22233354.749    22233362.539
       230.000         179.000
  20319646.308    -1950877.03349  -1513591.48147  20319645.872    20319651.810
       246.000         210.000
  22362708.567     5257197.02049   4085602.65845  22362708.029    22362715.317
       216.000         158.000
  22992009.857    -3675046.23449  -2852650.44945  22992010.862    22992015.126
       229.000         162.000
  22764561.824    -4640944.00349  -3607400.24346  22764560.932    22764567.678
       227.000         168.000
  22528010.703     4933322.86549   3834338.64746  22528009.663    22528017.024
       231.000         181.000
  24490470.907     6480196.29849   5032696.97645  24490471.719    24490482.466
       226.000         160.000
 02  7  2 15 42  0.0000000  0 10G23G18G17G15G 6G30G29G26G10G 5
  20629257.715     -316727.18449   -244120.93047  20629256.443    20629263.029
       240.000         208.000
  22846250.930    -4435374.39749  -3440239.90545  22846249.281    22846255.994
       215.000         144.000
  21605279.655    -2982182.63149  -2310006.18547  21605278.397    21605285.847
       239.000         197.000
  22222211.538    -4184827.12249  -3238753.56846  22222210.714    22222218.026
       231.000         179.000
  20316231.841    -1968820.20449  -1527573.15747  20316231.056    20316237.495
       245.000         210.000
  22380596.061     5351199.99749   4158851.66145  22380594.217    22380603.222
       213.000         155.000
  22983193.719    -3721377.71749  -2888752.84446  22983193.486    22983200.033
       227.000         166.000
  22751287.291    -4710702.35449  -3661757.35346  22751286.902    22751294.913
       227.000         168.000
  22545265.166     5023995.25049   3904992.40546  22545263.919    22545271.573
       231.000         180.000
  24510389.986     6584869.82549   5114260.52045  24510389.930    24510402.368
       222.000         160.000
 02  7  2 15 42 30.0000000  0 11G23G18G17G15G 6G30G29G26G10G 5G22
  20631774.448     -303500.76449   -233814.60947  20631773.560    20631780.176
       241.000         208.000
  22827800.636    -4532331.70149  -3515791.03745  22827798.944    22827805.810
       211.000         143.000
  21597715.697    -3021930.74349  -2340978.73747  21597714.933    21597721.616
       239.000         198.000
  22211099.062    -4243223.59149  -3284257.29246  22211098.516    22211104.751
       231.000         178.000
  20312891.916    -1986371.32049  -1541249.32847  20312891.788    20312897.579
       247.000         211.000
  22398524.066     5445414.11249   4232265.17545  22398526.063    22398531.330
       216.000         153.000
  22974450.304    -3767324.44349  -2924555.42546  22974449.410    22974457.794
       226.000         169.000
  22738080.024    -4780106.79449  -3715838.69246  22738079.575    22738086.484
       227.000         167.000
  22562569.608     5114931.67349   3975851.93246  22562568.329    22562576.544
       230.000         179.000
  24530298.461     6689488.96549   5195781.67645  24530298.638    24530311.224
       222.000         159.000
  24333665.116    -1783064.05049  -1053938.84945  24333659.728    24333678.031
       204.000         147.000
 02  7  2 15 43  0.0000000  0 11G23G18G17G15G 6G30G29G26G10G 5G22
  20634387.032     -289771.30449   -223116.31847  20634386.132    20634392.572
       243.000         209.000
  22809399.443    -4629030.66549  -3591140.80745  22809399.002    22809405.011
       211.000         144.000
  21590183.892    -3061510.13349  -2371819.80547  21590183.037    21590189.691
       239.000         198.000
  22200020.407    -4301442.31349  -3329622.47446  22200019.296    22200026.165
       229.000         177.000
  20309628.843    -2003519.38549  -1554611.43648  20309628.307    20309634.569
       247.000         213.000
  22416494.625     5539845.85549   4305848.22945  22416496.762    22416502.725
       215.000         154.000
  22965782.289    -3812874.57849  -2960048.99646  22965780.941    22965789.436
       225.000         169.000
  22724942.381    -4849144.39649  -3769634.16946  22724940.901    22724948.593
       225.000         166.000
  22579925.849     5206139.09449   4046922.61246  22579925.233    22579932.521
       230.000         179.000
  24550197.795     6794060.74349   5277265.92545  24550198.471    24550209.972
       223.000         159.000
  24321519.347    -1846887.04649  -1103671.05945  24321519.902    24321530.554
       208.000         141.000
 02  7  2 15 43 30.0000000  0 11G23G18G17G15G 6G30G29G26G10G 5G22
  20637094.987     -275541.37349   -212028.04647  20637094.247    20637100.917
       243.000         210.000
  22791047.204    -4725470.90649  -3666288.92145  22791043.519    22791051.935
       204.000         141.000
  21582684.085    -3100922.62149  -2402530.82747  21582683.249    21582689.900
       239.000         199.000
  22188975.193    -4359484.54449  -3374850.15146  22188973.983    22188982.145
       229.000         178.000
  20306442.361    -2020264.33949  -1567659.44248  20306442.083    20306447.777
       248.000         214.000
  22434505.325     5634490.95049   4379597.56545  22434502.957    22434513.427
       204.000         152.000
  22957190.092    -3858027.19649  -2995232.79846  22957190.867    22957197.832
       229.000         172.000
  22711874.878    -4917813.13849  -3823142.23246  22711872.768    22711880.614
       224.000         163.000
  22597333.037     5297613.49549   4118201.31646  22597332.172    22597339.357
       228.000         178.000
  24570087.479     6898581.23849   5358710.21945  24570088.921    24570099.170
       220.000         159.000
  24309458.786    -1910270.84449  -1153061.12545  24309461.440    24309462.721
       216.000         143.000
 02  7  2 15 44  0.0000000  0 11G23G18G17G15G 6G30G29G26G10G 5G22
  20639897.736     -260812.80849   -200551.24047  20639896.827    20639902.770
       243.000         209.000
  22772744.016    -4821650.62749  -3741234.08545  22772742.388    22772749.637
       207.000         140.000
  21575215.726    -3140169.14049  -2433112.53047  21575215.089    21575221.855
       239.000         199.000
  22177963.526    -4417350.91249  -3419940.81646  22177962.816    22177969.987
       230.000         178.000
  20303332.905    -2036605.11249  -1580392.50448  20303332.246    20303338.448
       247.000         214.000
  22452554.094     5729345.49149   4453510.16045  22452552.861    22452562.950
       204.000         147.000
  22948674.080    -3902780.36549  -3030105.33246  22948674.034    22948680.194
       230.000         172.000
  22698877.949    -4986110.49049  -3876360.86145  22698877.484    22698886.003
       223.000         162.000
  22614790.054     5389351.49049   4189685.42046  22614789.687    22614796.963
       225.000         177.000
  24589967.217     7003047.41449   5440112.13945  24589966.271    24589977.661
       218.000         159.000
  24297482.232    -1973214.12449  -1202107.88545  24297484.911    24297487.279
       219.000         148.000
 02  7  2 15 44 30.0000000  0 11G23G18G17G15G 6G30G29G26G10G 5G22
  20642795.139     -245586.56149   -188686.63247  20642794.381    20642800.905
       244.000         209.000
  22754491.224    -4917567.99249  -3815974.82245  22754490.394    22754498.714
       207.000         142.000
  21567778.971    -3179249.89049  -2463565.04347  21567778.198    21567785.235
       240.000         200.000
  22166985.267    -4475041.77449  -3464894.69246  22166984.476    22166991.534
       230.000         180.000
  20300300.551    -2052540.16749  -1592809.41848  20300300.205    20300305.882
       246.000         214.000
  22470644.399     5824406.80349   4527583.80845  22470646.055    22470653.256
       214.000         148.000
  22940234.390    -3947131.86949  -3064664.89546  22940234.156    22940240.221
       227.000         171.000
  22685952.389    -5054033.03449  -3929287.47745  22685952.022    22685959.361
       224.000         162.000
  22632296.776     5481350.34249   4261372.78146  22632296.757    22632303.880
       225.000         175.000
  24609836.186     7107456.93149   5521469.90245  24609836.725    24609846.758
       210.000         156.000
  24285588.878    -2035715.00449  -1250809.85245  24285585.879    24285598.661
       208.000         148.000
 02  7  2 15 45  0.0000000  0 11G23G18G17G15G 6G30G29G26G10G 5G22
  20645786.837     -229865.12049   -176436.16747  20645786.370    20645792.403
       246.000         210.000
  22736288.617    -5013222.23849  -3890510.52145  22736289.664    22736296.125
       209.000         142.000
  21560373.374    -3218166.35549  -2493889.54847  21560372.275    21560379.729
       239.000         199.000
  22156040.205    -4532558.15349  -3509712.63346  22156038.813    22156047.336
       231.000         181.000
  20297345.546    -2068069.07949  -1604909.85348  20297345.000    20297351.114
       245.000         213.000
  22488773.688     5919670.63949   4601815.24845  22488775.495    22488780.619
       214.000         151.000
  22931871.211    -3991080.29849  -3098910.40046  22931870.277    22931877.496
       226.000         171.000
  22673098.834    -5121578.55049  -3981920.26446  22673098.630    22673107.253
       222.000         163.000
  22649852.586     5573605.87749   4333260.15846  22649851.974    22649859.462
       223.000         173.000
  24629693.021     7211806.07449   5602780.63945  24629691.379    24629704.904
       197.000         149.000
  24273778.622    -2097772.70649  -1299166.44345  24273772.737    24273791.944
       203.000         148.000
 02  7  2 15 45 30.0000000  0 11G23G18G17G15G 6G30G29G26G10G 5G22
  20648872.876     -213648.64749   -163799.95847  20648872.583    20648878.673
       248.000         212.000
  22718137.077    -5108610.11149  -3964838.69245  22718136.661    22718143.248
       212.000         141.000
  21552999.161    -3256917.70049  -2524085.39547  21552998.490    21553005.951
       238.000         199.000
  22145128.684    -4589898.93149  -3554393.73946  22145127.327    22145136.078
       231.000         181.000
  20294468.243    -2083189.28249  -1616691.82347  20294467.712    20294473.667
       244.000         212.000
  22506940.315     6015135.11349   4676203.05445  22506939.290    22506947.438
       211.000         151.000
  22923585.365    -4034622.21349  -3132839.14346  22923584.493    22923592.302
       225.000         169.000
  22660317.784    -5188742.55649  -4034255.79446  22660317.938    22660323.915
       222.000         163.000
  22667457.005     5666116.80649   4405346.54246  22667456.386    22667463.270
       222.000         170.000
  24649537.314     7316093.67749   5684043.45245  24649538.000    24649551.459
       197.000         142.000
  24262053.658    -2159384.18049  -1347175.26445  24262055.439    24262068.884
       216.000         151.000
 02  7  2 15 46  0.0000000  0 11G23G18G17G15G 6G30G29G26G10G 5G22
  20652052.637     -196939.73349   -150780.02748  20652052.062    20652058.067
       248.000         213.000
  22700037.061    -5203730.84749  -4038958.68045  22700035.852    22700042.751
       210.000         141.000
  21545656.239    -3295505.52749  -2554153.83647  21545655.553    21545662.422
       238.000         198.000
  22134250.217    -4647065.35449  -3598938.96346  22134249.148    22134257.538
       233.000         182.000
  20291668.744    -2097900.63349  -1628155.19948  20291668.280    20291674.390
       245.000         213.000
  22525143.785     6110796.00849   4750743.95045  22525142.838    22525151.401
       212.000         151.000
  22915376.896    -4077756.83349  -3166450.48746  22915374.946    22915383.233
       223.000         168.000
  22647609.718    -5255523.27649  -4086292.72246  22647610.366    22647617.147
       226.000         163.000
  22685109.167     5758878.85049   4477628.59946  22685107.807    22685115.611
       223.000         167.000
  24669371.238     7420315.87249   5765255.24445  24669371.669    24669384.438
       198.000         139.000
  24250415.706    -2220549.06249  -1394836.24045  24250419.054    24250424.821
       220.000         155.000
 02  7  2 15 46 30.0000000  0 11G23G18G17G15G 6G30G29G26G10G 5G22
  20655325.435     -179741.31249   -137378.67148  20655324.566    20655330.946
       247.000         213.000
  22681987.004    -5298584.42549  -4112870.46545  22681985.168    22681992.895
       207.000         140.000
  21538343.981    -3333931.67149  -2584096.27347  21538342.955    21538349.812
       238.000         196.000
  22123404.676    -4704059.37049  -3643349.85546  22123403.437    22123412.047
       233.000         184.000
  20288947.030    -2112203.25449  -1639300.10348  20288946.645    20288952.562
       245.000         213.000
  22543384.000     6206648.71749   4825434.29245  22543384.190    22543390.718
       216.000         151.000
  22907245.904    -4120483.34149  -3199743.82646  22907244.005    22907252.172
       221.000         164.000
  22634975.264    -5321919.09149  -4138029.64646  22634975.612    22634984.475
       224.000         166.000
  22702808.459     5851887.63749   4550102.92246  22702806.594    22702814.093
       222.000         165.000
  24689192.017     7524468.74149   5846412.95045  24689190.439    24689204.107
       201.000         139.000
  24238862.315    -2281267.14449  -1442149.12145  24238861.545    24238863.992
       212.000         149.000
 02  7  2 15 47  0.0000000  0 11G23G18G17G15G 6G30G29G26G10G 5G22
  20658691.620     -162051.60449   -123594.49848  20658691.146    20658697.259
       247.000         213.000
  22663988.198    -5393165.46849  -4186569.91245  22663987.548    22663993.112
       211.000         139.000
  21531062.956    -3372193.50049  -2613910.67447  21531062.076    21531069.194
       237.000         195.000
  22112592.354    -4760878.01249  -3687624.11046  22112590.702    22112599.617
       232.000         184.000
  20286303.990    -2126092.44849  -1650122.85748  20286303.554    20286309.494
       246.000         214.000
  22561660.992     6302693.23249   4900274.04445  22561661.307    22561666.565
       217.000         150.000
  22899193.466    -4162796.25249  -3232714.90445  22899192.029    22899200.691
       217.000         161.000
  22622415.220    -5387923.44249  -4189461.54346  22622415.598    22622422.552
       225.000         167.000
  22720554.409     5945143.67749   4622769.94546  22720553.438    22720559.785
       225.000         165.000
  24708999.392     7628552.98149   5927517.22345  24709000.095    24709010.148
       206.000         144.000
  24227392.940    -2341533.58249  -1489109.96645  24227386.719    24227401.303
       205.000         144.000
 02  7  2 15 47 30.0000000  0 11G23G18G17G15G 6G30G29G26G10G 5G22
  20662151.140     -143872.18349   -109428.73048  20662150.361    20662156.382
       248.000         213.000
  22646042.605    -5487472.43149  -4260055.82745  22646039.783    22646046.391
       208.000         137.000
  21523812.937    -3410291.55049  -2643597.44347  21523811.865    21523820.188
       237.000         195.000
  22101813.208    -4817521.61149  -3731761.95146  22101811.604    22101820.278
       233.000         184.000
  20283739.904    -2139567.07149  -1660622.57748  20283739.399    20283745.711
       244.000         214.000
  22579973.686     6398926.27049   4975260.77445  22579971.581    22579979.603
       209.000         147.000
  22891220.348    -4204693.72249  -3265362.24645  22891218.839    22891228.937
       220.000         162.000
  22609930.006    -5453533.47249  -4240586.19046  22609929.631    22609937.415
       223.000         167.000
  22738347.037     6038644.08249   4695627.35946  22738345.161    22738353.743
       227.000         168.000
  24728793.174     7732565.75549   6008565.82645  24728792.483    24728805.113
       210.000         150.000
  24216010.261    -2401346.76349  -1535717.63245  24216010.855    24216023.309
       216.000         150.000
 02  7  2 15 48  0.0000000  0 11G23G18G17G15G 6G30G29G26G10G 5G22
  20665703.197     -125206.13149    -94883.75648  20665702.182    20665708.473
       248.000         213.000
  22628148.416    -5581505.35249  -4333328.19745  22628147.689    22628153.266
       205.000         138.000
  21516593.953    -3448227.88749  -2673158.21147  21516593.702    21516600.260
       238.000         195.000
  22091067.045    -4873992.15249  -3775764.94646  22091066.053    22091074.799
       234.000         185.000
  20281254.571    -2152627.54849  -1670799.56948  20281254.030    20281259.937
       242.000         213.000
  22598320.200     6495343.06749   5050390.70045  22598319.629    22598327.314
       210.000         146.000
  22883326.556    -4246175.41549  -3297685.58846  22883326.413    22883333.747
       223.000         164.000
  22597520.001    -5518747.80049  -4291402.50046  22597520.562    22597529.101
       223.000         168.000
  22756185.003     6132384.01949   4768671.42346  22756183.712    22756191.889
       226.000         171.000
  24748572.107     7836502.86149   6089555.47145  24748571.680    24748583.740
       214.000         155.000
  24204715.687    -2460706.77249  -1581972.19145  24204717.912    24204727.792
       221.000         156.000
 02  7  2 15 48 30.0000000  0 11G23G18G17G15G 6G30G29G26G10G 5G22
  20669347.561     -106054.74349    -79960.60248  20669346.789    20669352.708
       248.000         213.000
  22610307.303    -5675261.93049  -4406385.20945  22610306.321    22610312.984
       207.000         137.000
  21509405.742    -3486002.79749  -2702593.20447  21509405.758    21509412.270
       238.000         195.000
  22080354.180    -4930289.67349  -3819633.11346  22080353.599    22080362.056
       236.000         186.000
  20278848.307    -2165272.39749  -1680652.70647  20278847.596    20278853.909
       240.000         211.000
  22616702.542     6591940.67649   5125661.50045  22616702.273    22616710.785
       213.000         146.000
  22875512.575    -4287238.92649  -3329683.07646  22875512.652    22875518.713
       224.000         164.000
  22585186.055    -5583562.98549  -4341907.80046  22585185.871    22585194.386
       223.000         169.000
  22774067.948     6226360.90149   4841900.11246  22774067.831    22774074.983
       229.000         173.000
  24768335.893     7940361.98549   6170484.36145  24768336.008    24768348.049
       217.000         157.000
  24193507.072    -2519611.81749  -1627872.27045  24193506.124    24193515.420
       215.000         155.000
 02  7  2 15 49  0.0000000  0 11G23G18G17G15G 6G30G29G26G10G 5G22
  20673084.171      -86418.51349    -64659.65148  20673083.462    20673089.716
       248.000         213.000
  22592519.479    -5768739.47249  -4479224.73545  22592519.304    22592523.734
       209.000         135.000
  21502248.425    -3523615.68549  -2731901.92947  21502247.104    21502254.354
       236.000         195.000
  22069674.320    -4986413.25149  -3863365.75346  22069673.613    22069681.111
       234.000         187.000
  20276521.486    -2177499.27349  -1690180.14847  20276520.877    20276526.934
       241.000         210.000
  22635119.021     6688717.08549   5201071.55945  22635119.243    22635126.017
       207.000         146.000
  22867778.734    -4327881.14949  -3361352.26546  22867778.786    22867784.215
       225.000         163.000
  22572928.896    -5647975.03949  -4392098.94446  22572928.257    22572936.946
       221.000         167.000
  22791996.148     6320572.67649   4915311.84046  22791995.300    22792003.411
       230.000         175.000
  24788084.509     8044141.65549   6251351.34345  24788083.967    24788096.913
       219.000         157.000
  24182383.979    -2578059.34349  -1673415.80045  24182377.528    24182388.227
       202.000         146.000
 02  7  2 15 49 30.0000000  0 10G23G18G17G15G 6G30G29G26G10G22
  20676913.402      -66296.13149    -48979.88148  20676912.441    20676918.731
       247.000         213.000
  22574785.521    -5861933.45149  -4551843.33644  22574782.174    22574789.176
       202.000         131.000
  21495122.139    -3561064.02549  -2761082.43947  21495121.667    21495129.030
       237.000         194.000
  22059028.074    -5042360.02949  -3906960.62946  22059026.754    22059035.227
       233.000         186.000
  20274275.144    -2189303.81649  -1699378.50447  20274274.592    20274280.279
       240.000         210.000
  22653568.442     6785671.94049   5276620.74445  22653567.601    22653575.669
       205.000         142.000
  22860125.996    -4368097.00449  -3392689.25246  22860125.714    22860132.396
       225.000         164.000
  22560749.282    -5711977.82249  -4441971.22046  22560748.019    22560757.499
       219.000         165.000
  22809969.045     6415019.59849   4988906.80946  22809968.218    22809976.336
       231.000         178.000
  24171348.583    -2636044.67349  -1718599.19545  24171348.554    24171351.968
       215.000         138.000
 02  7  2 15 50  0.0000000  0 10G23G18G17G15G 6G30G29G26G10G22
  20680834.331      -45691.82449    -32924.58548  20680833.727    20680839.750
       246.000         213.000
  22557104.581    -5954844.43249  -4624241.43845  22557101.703    22557108.673
       197.000         132.000
  21488026.756    -3598350.97049  -2790137.17447  21488025.250    21488033.020
       236.000         194.000
  22048414.706    -5098133.32749  -3950420.32146  22048414.071    22048421.332
       233.000         185.000
  20272108.826    -2200687.55349  -1708248.95347  20272108.321    20272114.407
       242.000         211.000
  22672050.810     6882799.52049   5352304.44945  22672052.894    22672060.858
       209.000         142.000
  22852554.127    -4407887.12849  -3423694.46846  22852554.036    22852561.200
       225.000         166.000
  22548647.625    -5775571.08249  -4491524.38146  22548647.076    22548655.165
       222.000         166.000
  22827985.443     6509696.18549   5062680.74246  22827984.755    22827993.615
       230.000         180.000
  24160403.479    -2693568.99449  -1763423.45045  24160406.788    24160412.049
       219.000         142.000
 02  7  2 15 50 30.0000000  0 10G23G18G17G15G 6G30G29G26G10G22
  20684846.286      -24609.01949    -16496.43548  20684845.280    20684851.436
       245.000         213.000
  22539477.222    -6047472.84949  -4696419.41045  22539478.434    22539484.207
       200.000         136.000
  21480961.343    -3635478.86649  -2819067.99247  21480960.790    21480967.082
       236.000         193.000
  22037834.020    -5153735.23949  -3993746.46546  22037832.866    22037840.555
       232.000         184.000
  20270022.550    -2211651.11649  -1716791.99847  20270022.096    20270027.931
       243.000         212.000
  22690566.274     6980094.66149   5428118.78545  22690565.678    22690574.590
       209.000         144.000
  22845063.437    -4447251.47149  -3454367.94346  22845063.692    22845071.535
       227.000         170.000
  22536624.448    -5838753.69849  -4540757.53846  22536625.219    22536633.059
       222.000         167.000
  22846044.538     6604597.53549   5136629.82146  22846042.934    22846051.576
       228.000         179.000
  24149545.601    -2750632.64549  -1807888.64145  24149545.458    24149556.775
       212.000         147.000
 02  7  2 15 51  0.0000000  0 10G23G18G17G15G 6G30G29G26G10G22
  20688949.140       -3048.00949       304.35148  20688948.479    20688954.701
       245.000         213.000
  22521904.882    -6139815.64749  -4768374.73745  22521903.131    22521912.182
       205.000         138.000
  21473926.648    -3672446.88949  -2847874.20947  21473925.681    21473933.027
       236.000         194.000
  22027286.190    -5209164.65449  -4036938.19246  22027285.687    22027292.261
       231.000         183.000
  20268016.730    -2222192.01449  -1725005.69348  20268016.454    20268022.231
       244.000         213.000
  22709112.773     7077555.72649   5504062.35945  22709112.219    22709120.140
       210.000         145.000
  22837654.355    -4486186.86149  -3484707.16146  22837654.771    22837662.529
       229.000         173.000
  22524680.106    -5901521.29049  -4589667.29946  22524678.939    22524688.855
       220.000         166.000
  22864146.165     6699722.31149   5210752.99746  22864144.882    22864152.287
       224.000         176.000
  24138774.552    -2807232.92349  -1851992.71645  24138769.388    24138784.170
       204.000         143.000
 02  7  2 15 51 30.0000000  0 10G23G18G17G15G 6G30G29G26G10G22
  20693143.112       18991.68449     17478.13648  20693142.396    20693148.363
       244.000         213.000
  22504388.219    -6231868.92049  -4840104.54045  22504386.168    22504393.565
       202.000         139.000
  21466922.453    -3709253.29449  -2876554.50847  21466921.330    21466928.813
       236.000         194.000
  22016771.621    -5264419.75049  -4079994.09146  22016770.497    22016778.324
       228.000         182.000
  20266091.934    -2232306.98649  -1732887.50048  20266091.607    20266097.285
       243.000         214.000
  22727689.729     7175181.31449   5580134.16945  22727689.458    22727698.385
       211.000         148.000
  22830327.903    -4524689.04349  -3514708.79246  22830326.494    22830335.468
       225.000         172.000
  22512815.380    -5963868.87049  -4638249.80046  22512813.394    22512821.796
       219.000         164.000
  22882289.816     6795069.37849   5285049.37246  22882288.291    22882296.675
       224.000         172.000
  24128090.701    -2863366.27849  -1895732.97845  24128084.605    24128098.676
       199.000         138.000
 02  7  2 15 52  0.0000000  0 10G23G18G17G15G 6G30G29G26G10G22
  20697427.935       41508.22749     35023.51048  20697426.850    20697433.233
       244.000         213.000
  22486926.161    -6323631.15849  -4911607.54245  22486924.516    22486929.815
       205.000         138.000
  21459948.989    -3745899.02849  -2905109.59947  21459947.797    21459955.485
       236.000         194.000
  22006289.853    -5319501.19949  -4122914.68546  22006288.553    22006296.750
       224.000         180.000
  20264248.419    -2241994.94549  -1740436.56548  20264248.003    20264253.673
       244.000         214.000
  22746298.204     7272968.23049   5656331.63845  22746297.966    22746305.770
       216.000         149.000
  22823083.492    -4562756.36949  -3544371.62946  22823081.320    22823090.991
       220.000         168.000
  22501031.128    -6025793.67249  -4686502.82646  22501031.040    22501039.211
       222.000         165.000
  22900475.551     6890635.59549   5359516.50546  22900474.032    22900482.759
       222.000         169.000
  24117497.996    -2919031.43549  -1939108.43445  24117498.633    24117503.625
       212.000         138.000
 02  7  2 15 52 30.0000000  0 10G23G18G17G15G 6G30G29G26G10G22
  20701802.608       64497.90149     52937.54447  20701801.781    20701808.127
       242.000         211.000
  22469519.409    -6415102.86949  -4982884.17845  22469518.386    22469525.401
       208.000         141.000
  21453005.587    -3782386.48849  -2933541.36947  21453004.724    21453011.425
       235.000         193.000
  21995840.427    -5374411.42249  -4165701.84146  21995838.898    21995847.282
       224.000         178.000
  20262485.943    -2251256.87749  -1747653.65948  20262485.403    20262491.080
       245.000         214.000
  22764936.154     7370911.12449   5732650.68845  22764935.313    22764944.121
       211.000         149.000
  22815922.104    -4600389.15749  -3573695.84046  22815921.166    22815930.304
       224.000         169.000
  22489327.911    -6087294.99049  -4734425.88746  22489329.211    22489335.011
       226.000         167.000
  22918702.090     6986416.02849   5434150.56146  22918700.724    22918708.592
       216.000         166.000
  24106995.920    -2974228.98449  -1982119.59045  24106998.073    24107001.704
       215.000         142.000
 02  7  2 15 53  0.0000000  0 10G23G18G17G15G 6G30G29G26G10G22
  20706267.267       87960.02249     71219.72047  20706266.170    20706272.969
       241.000         211.000
  22452168.868    -6506281.40349  -5053932.30745  22452167.238    22452175.312
       208.000         147.000
  21446092.416    -3818715.25349  -2961849.49847  21446091.390    21446098.767
       232.000         192.000
  21985424.105    -5429149.47149  -4208354.84846  21985422.459    21985431.159
       223.000         178.000
  20260804.965    -2260090.53049  -1754537.02048  20260804.647    20260810.219
       247.000         215.000
  22783603.047     7469007.79849   5809089.57445  22783603.689    22783611.215
       215.000         148.000
  22808844.079    -4637584.46849  -3602679.16446  22808843.726    22808851.755
       225.000         171.000
  22477706.419    -6148368.76849  -4782015.79446  22477708.176    22477712.612
       228.000         168.000
  22936968.221     7082408.79149   5508950.08046  22936967.378    22936975.517
       216.000         163.000
  24096582.257    -3028956.64349  -2024764.58245  24096578.546    24096590.764
       203.000         144.000
 02  7  2 15 53 30.0000000  0 10G23G18G17G15G 6G30G29G26G10G22
  20710821.690      111893.99649     89869.56947  20710820.647    20710827.196
       242.000         211.000
  22434874.060    -6597164.11249  -5124750.00345  22434872.061    22434881.407
       211.000         148.000
  21439209.579    -3854884.57149  -2990033.36247  21439209.414    21439216.019
       235.000         193.000
  21975040.383    -5483714.39249  -4250872.90246  21975039.237    21975048.806
       225.000         179.000
  20259205.867    -2268493.66449  -1761084.91948  20259205.254    20259211.289
       247.000         216.000
  22802299.759     7567256.25149   5885646.71845  22802300.966    22802307.096
       215.000         148.000
  22801849.830    -4674339.25549  -3631319.22146  22801848.609    22801856.975
       226.000         174.000
  22466167.141    -6209010.94749  -4829269.37346  22466168.895    22466175.365
       230.000         172.000
  22955275.349     7178612.21949   5583913.73945  22955274.804    22955280.787
       218.000         160.000
  24086256.101    -3083211.87049  -2067041.34845  24086250.036    24086267.241
       199.000         144.000
 02  7  2 15 54  0.0000000  0 10G23G18G17G15G 6G30G29G26G10G22
  20715465.723      136298.70549    108886.22247  20715464.972    20715471.151
       242.000         211.000
  22417636.503    -6687748.71149  -5195335.39845  22417636.333    22417642.359
       217.000         148.000
  21432357.251    -3890894.24049  -3018092.83247  21432355.829    21432363.835
       234.000         193.000
  21964690.201    -5538106.17349  -4293256.07846  21964689.502    21964697.313
       225.000         180.000
  20257689.046    -2276464.73949  -1767296.14548  20257688.844    20257694.445
       249.000         217.000
  22821024.512     7665653.85749   5962320.10145  22821023.934    22821031.875
       210.000         146.000
  22794939.710    -4710651.00849  -3659614.05146  22794938.662    22794946.097
       228.000         173.000
  22454710.570    -6269218.11549  -4876183.97746  22454710.258    22454718.723
       228.000         175.000
  22973622.089     7275024.00049   5659039.75645  22973621.023    22973628.142
       214.000         159.000
  24076020.766    -3136992.76249  -2108948.51345  24076019.948    24076034.885
       205.000         145.000
 02  7  2 15 54 30.0000000  0 10G23G18G17G15G 6G30G29G26G10G22
  20720198.986      161171.96549    128267.99247  20720198.245    20720204.633
       244.000         212.000
  22400455.961    -6778034.03149  -5265687.52645  22400455.198    22400458.708
       213.000         147.000
  21425535.039    -3926745.21349  -3046028.65347  21425534.891    21425541.455
       237.000         194.000
  21954372.541    -5592325.52949  -4335504.92146  21954372.474    21954379.224
       227.000         180.000
  20256254.634    -2284002.97649  -1773170.09348  20256254.097    20256260.123
       249.000         218.000
  22839776.229     7764196.89149   6039106.81845  22839774.273    22839784.927
       205.000         144.000
  22788114.390    -4746518.41349  -3687562.62946  22788114.936    22788120.832
       230.000         174.000
  22443336.680    -6328987.85649  -4922757.73846  22443335.232    22443344.902
       225.000         174.000
  22992007.489     7371640.95449   5734325.63445  22992006.155    22992013.423
       217.000         158.000
  24065877.929    -3190298.24949  -2150485.36145  24065879.978    24065886.081
       215.000         146.000
 02  7  2 15 55  0.0000000  0 10G23G18G17G15G 6G30G29G26G10G22
  20725021.050      186511.72049    148013.25648  20725020.287    20725026.513
       245.000         213.000
  22383332.146    -6868018.55349  -5335805.24545  22383331.322    22383337.636
       219.000         147.000
  21418742.865    -3962438.33049  -3073841.44647  21418741.624    21418749.032
       234.000         194.000
  21944087.882    -5646372.97849  -4377619.78346  21944087.165    21944094.501
       230.000         181.000
  20254902.700    -2291107.44749  -1778706.03448  20254902.393    20254908.199
       249.000         219.000
  22858554.963     7862881.89149   6116004.14345  22858556.211    22858563.002
       210.000         143.000
  22781373.984    -4781940.00849  -3715163.80746  22781374.253    22781381.218
       230.000         175.000
  22432046.174    -6388317.62949  -4968988.66446  22432045.498    22432054.124
       224.000         173.000
  23010431.621     7468459.69949   5809768.76845  23010431.040    23010438.228
       219.000         160.000
  24055825.370    -3243127.45849  -2191651.05545  24055821.281    24055831.229
       205.000         145.000
 02  7  2 15 55 30.0000000  0 10G23G18G17G15G 6G30G29G26G10G22
  20729931.712      212317.22049    168121.44448  20729931.097    20729936.985
       247.000         214.000
  22366266.441    -6957699.72149  -5405686.61645  22366265.726    22366274.637
       219.000         149.000
  21411980.705    -3997973.16049  -3101530.91447  21411979.835    21411987.369
       235.000         195.000
  21933836.039    -5700247.97149  -4419600.27346  21933835.492    21933842.232
       233.000         184.000
  20253633.735    -2297776.07149  -1783902.35348  20253633.341    20253639.338
       249.000         219.000
  22877361.465     7961706.73249   6193010.38845  22877362.222    22877367.514
       213.000         142.000
  22774719.067    -4816912.87049  -3742415.34746  22774717.991    22774725.944
       227.000         175.000
  22420840.538    -6447203.47449  -5014873.67146  22420839.886    22420847.724
       225.000         173.000
  23028893.867     7565478.28649   5885367.62146  23028893.669    23028901.030
       223.000         163.000
  24045862.495    -3295478.15449  -2232443.82345  24045860.677    24045871.205
       208.000         145.000
 02  7  2 15 56  0.0000000  0 10G23G18G17G15G 6G30G29G26G10G22
  20734930.564      238586.07249    188590.68148  20734929.807    20734935.926
       247.000         214.000
  22349258.722    -7047076.66649  -5475330.95445  22349258.650    22349266.666
       220.000         151.000
  21405248.537    -4033350.64149  -3129097.75347  21405247.605    21405255.566
       236.000         195.000
  21923616.612    -5753951.35649  -4461447.02546  21923615.117    21923622.863
       232.000         185.000
  20252447.819    -2304008.38749  -1788758.68848  20252447.362    20252453.300
       249.000         219.000
  22896193.797     8060667.66949   6270122.68945  22896194.015    22896200.614
       210.000         143.000
  22768149.409    -4851435.82549  -3769316.31946  22768148.669    22768156.771
       226.000         174.000
  22409719.912    -6505643.08949  -5060410.99746  22409720.313    22409727.426
       225.000         172.000
  23047393.512     7662693.22349   5961119.48046  23047393.202    23047400.708
       225.000         166.000
  24035991.886    -3347349.41949  -2272863.00045  24035992.649    24036003.002
       214.000         148.000
 02  7  2 15 56 30.0000000  0 10G23G18G17G15G 6G30G29G26G10G22
  20740017.079      265315.94949    209419.15048  20740016.206    20740022.339
       247.000         214.000
  22332308.970    -7136148.34349  -5544737.35145  22332308.564    22332314.267
       219.000         148.000
  21398546.154    -4068571.68749  -3156542.70447  21398544.576    21398553.255
       234.000         196.000
  21913429.524    -5807483.72849  -4503160.53446  21913427.930    21913436.802
       231.000         186.000
  20251344.929    -2309803.87049  -1793274.64248  20251344.576    20251350.315
       250.000         218.000
  22915050.220     8159761.05149   6347338.22045  22915049.132    22915057.482
       206.000         142.000
  22761665.664    -4885507.49249  -3795865.62446  22761664.218    22761673.116
       225.000         172.000
  22398684.446    -6563634.14549  -5105598.81346  22398683.454    22398691.701
       223.000         173.000
  23065929.699     7760101.42149   6037021.93246  23065929.429    23065936.823
       226.000         167.000
  24026213.848    -3398740.49049  -2312908.01445  24026216.117    24026224.255
       214.000         152.000
 02  7  2 15 57  0.0000000  0 10G23G18G17G15G 6G30G29G26G10G22
  20745191.464      292507.58049    230607.43548  20745190.503    20745196.943
       247.000         214.000
  22315417.776    -7224910.16149  -5613902.31945  22315417.358    22315421.295
       218.000         141.000
  21391873.779    -4103634.15849  -3183864.07747  21391873.294    21391880.690
       236.000         195.000
  21903275.410    -5860842.84549  -4544739.05346  21903274.469    21903283.172
       230.000         187.000
  20250325.913    -2315159.03449  -1797447.48848  20250325.521    20250331.373
       250.000         218.000
  22933931.987     8258986.28449   6424656.50845  22933932.909    22933942.227
       206.000         140.000
  22755268.422    -4919123.82349  -3822060.11046  22755267.456    22755275.277
       226.000         171.000
  22387735.078    -6621171.36749  -5150432.99046  22387733.864    22387743.041
       221.000         172.000
  23084502.733     7857702.52049   6113074.68246  23084502.202    23084508.535
       225.000         167.000
  24016526.587    -3449647.60749  -2352575.89845  24016523.257    24016533.931
       206.000         150.000
 02  7  2 15 57 30.0000000  0 10G23G18G17G15G 6G30G29G26G10G22
  20750453.315      320158.79549    252153.83648  20750452.611    20750458.805
       248.000         215.000
  22298585.806    -7313360.96149  -5682824.97145  22298584.911    22298591.494
       218.000         140.000
  21385231.782    -4138538.91949  -3211062.57947  21385230.883    21385238.189
       236.000         196.000
  21893154.232    -5914029.19649  -4586182.96446  21893153.595    21893161.834
       231.000         186.000
  20249390.859    -2320072.84949  -1801276.42848  20249390.709    20249396.203
       250.000         218.000
  22952838.923     8358339.90949   6502074.74745  22952840.459    22952845.370
       204.000         136.000
  22748958.130    -4952283.12149  -3847898.46246  22748956.585    22748965.104
       221.000         169.000
  22376872.501    -6678252.19149  -5194911.51246  22376871.304    22376880.232
       221.000         172.000
  23103111.562     7955493.18849   6189275.16646  23103110.230    23103117.679
       224.000         167.000
  24006930.513    -3500069.74349  -2391865.77545  24006928.159    24006938.705
       207.000         146.000
 02  7  2 15 58  0.0000000  0 10G23G18G17G15G 6G30G29G26G10G22
  20755802.183      348267.36449    274056.61548  20755801.508    20755807.885
       249.000         215.000
  22281813.730    -7401499.92349  -5751504.61545  22281813.741    22281820.835
       219.000         146.000
  21378619.518    -4173286.93149  -3238138.93847  21378619.200    21378625.836
       236.000         195.000
  21883066.085    -5967043.73649  -4627492.98246  21883065.759    21883073.061
       233.000         186.000
  20248539.920    -2324544.83949  -1804761.09048  20248539.328    20248545.237
       249.000         217.000
  22971769.170     8457818.16448   6579590.19044  22971767.196    22971776.232
       193.000         131.000
  22742734.653    -4984984.11249  -3873379.72646  22742733.343    22742743.129
       218.000         167.000
  22366097.372    -6734874.35349  -5239032.62346  22366096.883    22366107.266
       222.000         174.000
  23121756.095     8053470.28049   6265620.91746  23121754.832    23121762.608
       226.000         166.000
  23997428.319    -3550006.31249  -2430777.39745  23997431.034    23997435.154
       217.000         145.000
 02  7  2 15 58 30.0000000  0 10G23G18G17G15G 6G30G29G26G10G22
  20761237.648      376830.84949    296313.87648  20761236.865    20761243.180
       249.000         215.000
  22265101.030    -7489326.14149  -5819940.58445  22265100.612    22265105.336
       218.000         146.000
  21372036.950    -4207879.23749  -3265093.95947  21372035.847    21372043.207
       234.000         195.000
  21873010.454    -6019887.57749  -4668669.98046  21873010.330    21873016.543
       232.000         184.000
  20247773.054    -2328574.54649  -1807901.10948  20247772.729    20247778.416
       249.000         216.000
  22990720.409     8557417.17049   6657199.74844  22990720.885    22990728.477
       196.000         126.000
  22736598.768    -5017225.94049  -3898503.20746  22736598.001    22736606.578
       222.000         168.000
  22355410.022    -6791035.75849  -5282794.71646  22355409.702    22355420.115
       225.000         176.000
  23140435.595     8151630.25149   6342109.17546  23140434.361    23140442.295
       225.000         166.000
  23988019.544    -3599456.52649  -2469310.05245  23988021.688    23988026.671
       217.000         147.000
 02  7  2 15 59  0.0000000  0 10G23G18G17G15G 6G30G29G26G10G22
  20766759.518      405848.33449    318924.89848  20766758.832    20766765.466
       248.000         214.000
  22248448.004    -7576837.01549  -5888130.85345  22248446.031    22248452.493
       216.000         145.000
  21365483.931    -4242315.21749  -3291927.16747  21365483.224    21365490.324
       235.000         194.000
  21862987.178    -6072560.09749  -4709713.48046  21862986.110    21862993.458
       227.000         181.000
  20247090.759    -2332160.16449  -1810695.09048  20247090.311    20247096.061
       249.000         215.000
  23009696.969     8657134.79049   6734901.72044  23009698.557    23009703.453
       204.000         126.000
  22730551.536    -5049006.02849  -3923266.88046  22730551.187    22730559.749
       223.000         171.000
  22344811.371    -6846732.63949  -5326194.84446  22344811.949    22344820.749
       227.000         179.000
  23159149.490     8249971.43649   6418738.64046  23159148.335    23159156.006
       223.000         166.000
  23978702.926    -3648418.40949  -2507462.14845  23978700.361    23978709.619
       210.000         145.000
 02  7  2 15 59 30.0000000  0 10G23G18G17G15G 6G30G29G26G10G22
  20772367.245      435317.10149    341887.56547  20772366.630    20772372.529
       248.000         212.000
  22231855.404    -7664031.72549  -5956074.71445  22231855.637    22231861.864
       219.000         149.000
  21358960.598    -4276596.19049  -3318639.60247  21358959.350    21358966.725
       233.000         194.000
  21852996.162    -6125061.93949  -4750624.03446  21852995.316    21853002.514
       228.000         179.000
  20246492.977    -2335301.57649  -1813142.93948  20246492.495    20246498.088
       249.000         215.000
  23028695.804     8756967.29749   6812693.11444  23028699.253    23028704.664
       204.000         127.000
  22724592.291    -5080323.39449  -3947670.00646  22724593.531    22724599.927
       229.000         175.000
  22334301.510    -6901963.18749  -5369231.59946  22334302.964    22334309.829
       230.000         178.000
  23177896.864     8348489.96949   6495506.29846  23177895.197    23177902.896
       219.000         165.000
  23969477.887    -3696891.61349  -2545233.44345  23969471.700    23969484.961
       202.000         141.000
 02  7  2 16  0  0.0000000  0 10G23G18G17G15G 6G30G29G26G10G22
  20778060.914      465236.78049    365201.59747  20778059.868    20778066.621
       247.000         211.000
  22215323.859    -7750907.33249  -6023769.93245  22215322.772    22215331.507
       219.000         152.000
  21352466.710    -4310721.10449  -3345230.43847  21352466.535    21352473.571
       233.000         193.000
  21843038.109    -6177391.89949  -4791400.61146  21843037.440    21843044.534
       230.000         180.000
  20245980.177    -2337996.17449  -1815242.62248  20245979.550    20245985.150
       249.000         215.000
  23047715.805     8856912.72048   6890572.52944  23047712.840    23047721.808
       191.000         127.000
  22718722.005    -5111174.70249  -3971709.96246  22718723.145    22718728.748
       232.000         177.000
  22323881.431    -6956723.06049  -5411901.54946  22323882.328    22323889.246
       231.000         178.000
  23196677.403     8447184.60049   6572411.19846  23196675.576    23196685.372
       217.000         163.000
  23960345.959    -3744873.46849  -2582621.89645  23960346.078    23960352.950
       209.000         138.000
 02  7  2 16  0 30.0000000  0 10G23G18G17G15G 6G30G29G26G10G22
  20783839.833      495605.47149    388865.50147  20783838.938    20783845.128
       246.000         210.000
  22198852.705    -7837462.46949  -6091215.45545  22198851.545    22198859.884
       220.000         154.000
  21346002.679    -4344690.62549  -3371700.19447  21346001.661    21346008.670
       232.000         193.000
  21833112.727    -6229550.59149  -4832043.71846  21833112.091    21833120.085
       234.000         182.000
  20245552.568    -2340243.13049  -1816993.48748  20245551.986    20245557.656
       248.000         214.000
  23066752.943     8956967.84648   6968537.60744  23066745.884    23066761.257
       183.000         120.000
  22712940.531    -5141558.81849  -3995385.86346  22712941.618    22712947.315
       232.000         179.000
  22313551.146    -7011009.74149  -5454202.80046  22313550.910    22313559.077
       230.000         178.000
  23215491.078     8546052.35849   6649450.97745  23215489.051    23215499.347
       215.000         161.000
  23951309.742    -3792363.03449  -2619626.78045  23951311.412    23951315.347
       212.000         140.000
 02  7  2 16  1  0.0000000  0 10G23G18G17G15G 6G30G29G26G10G22
  20789703.963      526422.11149    412878.46047  20789702.818    20789709.288
       246.000         209.000
  22182443.269    -7923694.53249  -6158409.22945  22182443.994    22182449.538
       224.000         155.000
  21339568.130    -4378503.98849  -3398048.27847  21339567.395    21339574.320
       232.000         192.000
  21823220.091    -6281537.36649  -4872552.85846  21823219.569    21823226.663
       233.000         181.000
  20245210.561    -2342040.32849  -1818393.89148  20245209.953    20245215.415
       247.000         213.000
  23085813.321     9057130.82549   7046586.55144  23085816.432    23085824.414
       202.000         122.000
  22707248.421    -5171472.86149  -4018695.47246  22707248.349    22707255.885
       230.000         180.000
  22303311.504    -7064819.34549  -5496132.31746  22303311.289    22303319.090
       230.000         178.000
  23234337.328     8645091.57849   6726624.37145  23234336.613    23234345.903
       216.000         161.000
  23942367.503    -3839358.04149  -2656246.31045  23942367.014    23942377.213
       209.000         143.000
 02  7  2 16  1 30.0000000  0 10G23G18G17G15G 6G30G29G26G10G22
  20795652.570      557682.61849    437237.29247  20795651.690    20795657.935
       245.000         209.000
  22166095.626    -8009604.19949  -6225351.75245  22166095.441    22166099.621
       225.000         156.000
  21333162.939    -4412163.87449  -3424276.74947  21333161.400    21333168.537
       231.000         192.000
  21813359.702    -6333354.63049  -4912929.90346  21813358.976    21813365.865
       234.000         179.000
  20244953.860    -2343389.14049  -1819444.90747  20244953.330    20244959.219
       246.000         212.000
  23104895.078     9157396.09449   7124715.09244  23104898.162    23104902.253
       203.000         123.000
  22701645.221    -5200917.53349  -4041639.34846  22701643.819    22701653.347
       227.000         179.000
  22293162.765    -7118151.58949  -5537689.86846  22293162.954    22293170.315
       231.000         179.000
  23253215.612     8744297.09649   6803927.33245  23253216.163    23253223.433
       218.000         161.000
  23933518.899    -3885859.65849  -2692481.32645  23933514.713    23933529.124
       204.000         144.000
 02  7  2 16  2  0.0000000  0 10G23G18G17G15G 6G30G29G26G10G22
  20801685.397      589385.72549    461941.00347  20801684.414    20801690.525
       245.000         209.000
  22149809.216    -8095189.32949  -6292041.41445  22149808.227    22149813.685
       223.000         157.000
  21326786.676    -4445670.12449  -3450385.52347  21326786.103    21326792.829
       233.000         192.000
  21803531.674    -6385001.83349  -4953174.44646  21803530.430    21803537.861
       233.000         178.000
  20244782.814    -2344288.01649  -1820145.34448  20244782.509    20244788.290
       247.000         213.000
  23123994.893     9257761.00948   7202921.38944  23123993.023    23123997.658
       194.000         121.000
  22696131.385    -5229890.60949  -4064215.74846  22696129.467    22696139.191
       225.000         177.000
  22283105.731    -7171003.17549  -5578872.86646  22283106.297    22283113.152
       229.000         177.000
  23272125.446     8843666.60849   6881358.07545  23272125.483    23272132.703
       220.000         161.000
  23924762.843    -3931866.32449  -2728330.61245  23924758.794    23924770.444
       205.000         141.000
 02  7  2 16  2 30.0000000  0 10G23G18G17G15G 6G30G29G26G10G22
  20807802.797      621532.88749    486990.73447  20807801.948    20807808.241
       244.000         209.000
  22133585.498    -8180445.27049  -6358474.55045  22133583.249    22133592.576
       222.000         156.000
  21320440.494    -4479019.82549  -3476372.29047  21320439.377    21320447.291
       235.000         194.000
  21793736.328    -6436476.16849  -4993284.27346  21793735.851    21793742.729
       235.000         180.000
  20244698.265    -2344732.55449  -1820491.74048  20244697.637    20244703.435
       246.000         213.000
  23143111.029     9358225.85148   7281205.70644  23143105.451    23143119.396
       190.000         118.000
  22690708.209    -5258387.25049  -4086420.89046  22690707.240    22690716.623
       226.000         175.000
  22273140.948    -7223368.15549  -5619676.68246  22273140.176    22273148.071
       228.000         175.000
  23291066.492     8943201.10949   6958917.36645  23291067.000    23291072.944
       221.000         161.000
  23916103.183    -3977373.44549  -2763790.73445  23916105.195    23916107.922
       214.000         140.000
 02  7  2 16  3  0.0000000  0 10G23G18G17G15G 6G30G29G26G10G22
  20814003.963      654120.35949    512383.56647  20814003.545    20814009.311
       244.000         209.000
  22117424.184    -8265372.11549  -6424651.26345  22117423.057    22117431.345
       225.000         156.000
  21314123.661    -4512214.97049  -3502238.63447  21314122.780    21314129.462
       235.000         195.000
  21783973.669    -6487779.73049  -5033261.03446  21783973.139    21783979.589
       238.000         183.000
  20244700.055    -2344723.62249  -1820484.78348  20244699.376    20244705.550
       246.000         213.000
  23162246.805     9458785.82049   7359563.99544  23162250.258    23162254.252
       197.000         117.000
  22685376.061    -5286407.51549  -4108254.82546  22685374.802    22685383.842
       225.000         174.000
  22263268.708    -7275245.44249  -5660100.52946  22263267.051    22263276.031
       224.000         173.000
  23310038.012     9042896.00649   7036601.64145  23310036.997    23310043.734
       221.000         160.000
  23907540.064    -4022381.61749  -2798862.15845  23907541.833    23907543.892
       216.000         140.000
 02  7  2 16  3 30.0000000  0 11G21G23G18G17G15G 6G30G29G26G10G22
  24842913.266    -1487125.13549  -1136280.51645  24842911.360    24842922.838
       204.000         135.000
  20820287.859      687141.98549    538114.69647  20820287.345    20820293.503
       245.000         210.000
                  -8349972.81449  -6490573.81545                  22101329.363
       224.000         155.000
  21307835.347    -4545260.38049  -3527988.28947  21307834.813    21307841.785
       237.000         196.000
  21774242.798    -6538916.78049  -5073108.05446  21774241.756    21774248.855
       235.000         185.000
  20244787.371    -2344264.60149  -1820127.10747  20244786.976    20244792.660
       245.000         211.000
  23181401.301     9559433.62049   7437990.72144  23181404.088    23181408.198
       198.000         118.000
  22680134.021    -5313954.20849  -4129719.74446  22680133.081    22680140.972
       226.000         173.000
  22253488.965    -7326636.89849  -5700145.78646  22253489.020    22253496.993
       226.000         175.000
  23329038.514     9142744.13649   7114405.30045  23329036.914    23329044.607
       220.000         161.000
  23899070.185    -4066894.22249  -2833547.34445  23899064.482    23899078.497
       200.000         140.000
 02  7  2 16  4  0.0000000  0 11G21G23G18G17G15G 6G30G29G26G10G22
  24824978.883    -1581367.40049  -1209716.03144  24824973.758    24824988.264
       197.000         130.000
  20826654.221      720596.47549    564183.13247  20826653.918    20826659.411
       246.000         211.000
  22085289.132    -8434245.16349  -6556240.53245  22085288.273    22085294.615
       222.000         153.000
  21301575.542    -4578155.75649  -3553621.04147  21301574.607    21301581.644
       236.000         197.000
  21764543.242    -6589887.01549  -5112825.09746  21764540.622    21764549.000
       233.000         184.000
  20244960.764    -2343353.90249  -1819417.47547  20244960.346    20244966.453
       245.000         211.000
  23200570.796     9660166.64848   7516483.85544  23200566.252    23200579.975
       178.000         113.000
  22674982.577    -5341025.19749  -4150814.00646  22674982.826    22674988.928
       229.000         174.000
  22243802.560    -7377539.13149  -5739809.81146  22243801.047    22243810.781
       224.000         176.000
  23348067.769     9242743.46249   7192326.77945  23348066.900    23348074.116
       220.000         162.000
  23890692.341    -4110909.74049  -2867844.98245  23890689.300    23890702.994
       206.000         142.000
 02  7  2 16  4 30.0000000  0 11G21G23G18G17G15G 6G30G29G26G10G22
  24807072.334    -1675465.54949  -1283039.22344  24807070.962    24807080.495
       201.000         127.000
  20833104.244      754491.02649    590594.47047  20833103.622    20833109.660
       246.000         212.000
  22069316.861    -8518178.42049  -6621643.02345  22069314.911    22069322.280
       217.000         151.000
  21295345.938    -4610892.08449  -3579129.87447  21295345.429    21295352.016
       239.000         198.000
  21754877.216    -6640681.45449  -5152405.16146  21754875.973    21754883.237
       233.000         183.000
  20245222.013    -2341981.42349  -1818348.02647  20245221.705    20245227.039
       245.000         212.000
  23219755.431     9760990.96548   7595048.18844                  23219754.379
       189.000         105.000
  22669924.014    -5367609.65849  -4171529.16146  22669924.488    22669930.145
       229.000         175.000
  22234211.015    -7427940.39549  -5779083.50846  22234210.267    22234218.117
       225.000         174.000
  23367127.137     9342900.67449   7270371.27445  23367126.415    23367133.760
       220.000         162.000
  23882413.491    -4154417.46749  -2901747.16145  23882415.628    23882422.488
       214.000         144.000
 02  7  2 16  5  0.0000000  0 11G21G23G18G17G15G 6G30G29G26G10G22
  24789193.530    -1769422.49649  -1356252.37844  24789192.749    24789201.153
       205.000         130.000
  20839636.747      788819.34949    617343.80348  20839636.070    20839641.833
       248.000         214.000
  22053408.360    -8601775.49749  -6686783.51845  22053406.604    22053413.081
       221.000         151.000
  21289145.910    -4643474.00749  -3604518.38647  21289145.151    21289152.291
       240.000         199.000
  21745243.931    -6691304.54049  -5191851.70246  21745243.191    21745250.099
       235.000         185.000
  20245570.545    -2340150.53149  -1816921.37147  20245569.914    20245576.125
       244.000         212.000
  23238958.842     9861899.50249   7673678.11944  23238970.446    23238970.697
       197.000         109.000
  22664957.575    -5393710.34749  -4191867.34046  22664957.586    22664963.168
       230.000         175.000
  22224714.883    -7477842.26349  -5817968.03446  22224715.090    22224722.627
       227.000         174.000
  23386214.968     9443208.75749   7348533.35446  23386214.830    23386222.310
       219.000         164.000
  23874230.825    -4197420.95649  -2935256.40045  23874230.094    23874237.702
       211.000         145.000
 02  7  2 16  5 30.0000000  0 11G21G23G18G17G15G 6G30G29G26G10G22
  24771340.453    -1863238.67049  -1429355.83445  24771338.040    24771349.777
       201.000         135.000
  20846251.087      823577.72549    644428.25948  20846249.911    20846256.264
       248.000         215.000
  22037564.251    -8685036.58549  -6751662.24745  22037563.172    22037570.656
       220.000         152.000
  21282974.805    -4675903.91249  -3629788.44047  21282974.074    21282980.740
       240.000         199.000
  21735643.021    -6741758.27949  -5231166.28346  21735641.678    21735649.519
       235.000         187.000
  20246006.010    -2337862.13549  -1815138.21647  20246005.512    20246011.087
       243.000         212.000
  23258179.303     9962887.37548   7752369.70644                  23258187.052
       185.000         105.000
  22660082.757    -5419327.78949  -4211828.97446  22660081.972    22660087.129
       228.000         174.000
  22215314.105    -7527244.03149  -5856462.85846  22215315.217    22215322.960
       229.000         177.000
  23405330.627     9543663.13249   7426809.43946  23405330.887    23405338.959
       220.000         165.000
  23866143.105    -4239921.06649  -2968373.37145  23866139.415    23866149.423
       205.000         141.000
 02  7  2 16  6  0.0000000  0 11G21G23G18G17G15G 6G30G29G26G10G22
  24753514.256    -1956911.28649  -1502347.51645  24753512.830    24753526.686
       204.000         137.000
  20852947.131      858765.80549    671847.53648  20852946.436    20852952.275
       248.000         216.000
  22021784.356    -8767958.76649  -6816276.87945  22021783.596    22021790.099
       225.000         155.000
  21276832.893    -4708180.38749  -3654938.93547  21276832.525    21276839.123
       241.000         200.000
  21726074.519    -6792041.29749  -5270347.85247  21726073.922    21726081.386
       235.000         189.000
  20246528.912    -2335113.83949  -1812996.68947  20246527.840    20246534.541
       242.000         211.000
                  10063952.84548   7831121.76244
       182.000         102.000
  22655300.384    -5444458.62649  -4231411.44146  22655299.862    22655304.731
       230.000         173.000
  22206009.710    -7576141.51549  -5894564.75746  22206011.338    22206018.469
       234.000         180.000
  23424474.410     9644262.52649   7505198.53746  23424472.995    23424482.042
       221.000         167.000
  23858150.610    -4281915.25549  -3001096.07345  23858147.458    23858155.759
       207.000         138.000
 02  7  2 16  6 30.0000000  0 11G21G23G18G17G15G 6G30G29G26G10G22
  24735716.611    -2050437.80949  -1575225.31645  24735715.890    24735727.764
       209.000         139.000
  20859724.694      894382.58449    699600.86948  20859723.724    20859729.894
       249.000         216.000
  22006069.929    -8850539.54449  -6880625.51445  22006068.296    22006074.164
       222.000         157.000
  21270720.228    -4740302.94049  -3679969.48647  21270719.427    21270726.073
       241.000         200.000
  21716538.622    -6842153.19649  -5309396.07647  21716537.494    21716544.931
       234.000         189.000
  20247139.650    -2331903.85749  -1810495.41247  20247138.997    20247144.920
       243.000         212.000
                  10165094.68858   7909933.51543
       168.000          85.000
  22650611.129    -5469100.82949  -4250613.12246  22650610.629    22650616.525
       232.000         175.000
  22196801.870    -7624531.29949  -5932271.04146  22196802.164    22196809.641
       230.000         181.000
  23443645.429     9745005.30849   7583699.36246  23443644.842    23443653.119
       221.000         167.000
  23850255.955    -4323401.62249  -3033423.12845  23850255.632    23850261.943
       211.000         138.000
 02  7  2 16  7  0.0000000  0 11G21G23G18G17G15G 6G30G29G26G10G22
  24717947.925    -2143817.04649  -1647988.26945  24717947.821    24717958.731
       212.000         143.000
  20866583.652      930426.31949    727686.89048  20866582.735    20866588.628
       249.000         216.000
  21990420.256    -8932777.05049  -6944706.64845  21990419.729    21990426.608
       223.000         159.000
  21264636.847    -4772271.41949  -3704879.96947  21264635.739    21264643.015
       242.000         200.000
  21707035.165    -6892093.58749  -5348310.66847  21707033.833    21707041.612
       234.000         189.000
  20247838.524    -2328230.87749  -1807633.36247  20247837.874    20247843.817
       243.000         211.000
                  10266308.50648   -532511.60643
       178.000          74.000
  22646015.226    -5493252.50049  -4269432.58846  22646014.930    22646022.148
       231.000         179.000
  22187690.599    -7672410.50349  -5969579.48546  22187690.961    22187698.217
       230.000         178.000
  23462843.084     9845889.24549   7662310.20646  23462842.142    23462850.906
       222.000         168.000
  23842458.788    -4364379.04449  -3065353.60345  23842459.109    23842463.684
       214.000         140.000
 02  7  2 16  7 30.0000000  0 11G21G23G18G17G15G 6G30G29G26G10G22
  24700206.708    -2237049.74549  -1720637.02545  24700204.724    24700215.500
       211.000         142.000
  20873522.893      966892.52549    756102.10948  20873522.061    20873527.987
       248.000         216.000
  21974836.119    -9014672.50449  -7008521.24545  21974836.038    21974841.458
       227.000         161.000
  21258582.251    -4804088.66149  -3729672.62847  21258581.550    21258588.573
       240.000         200.000
  21697563.930    -6941864.93849  -5387093.52247  21697562.880    21697570.518
       235.000         189.000
  20248625.278    -2324096.49349  -1804411.78747  20248624.589    20248630.759
       244.000         212.000
                  10367589.80148   -453481.62643
       173.000          74.000
  22641512.487    -5516914.56249  -4287870.55846  22641512.017    22641519.792
       232.000         181.000
  22178676.751    -7719779.08249  -6006490.01746  22178676.891    22178683.513
       229.000         177.000
  23482066.884     9946909.11749   7741026.95746  23482065.284    23482073.780
       223.000         168.000
  23834758.248    -4404848.92549  -3096888.63545  23834756.242    23834765.658
       211.000         141.000
 02  7  2 16  8  0.0000000  0 11G21G23G18G17G15G 6G30G29G26G10G22
  24682493.514    -2330131.70949  -1793168.38345  24682490.527    24682502.993
       205.000         139.000
  20880542.693     1003781.64649    784846.87148  20880541.882    20880548.028
       248.000         216.000
  21959317.903    -9096222.11949  -7072066.36545  21959317.101    21959323.173
       226.000         162.000
  21252556.912    -4835752.71849  -3754345.91847  21252555.902    21252562.984
       240.000         200.000
  21688125.264    -6991465.17249  -5425743.03447  21688124.274    21688131.703
       236.000         189.000
  20249500.297    -2319497.76949  -1800828.38948  20249499.653    20249505.490
       244.000         213.000
                  10468937.76148   -374382.38943
       188.000          74.000
  22637103.591    -5540083.46849  -4305924.24446  22637103.629    22637111.424
       230.000         182.000
  22169760.791    -7766632.15849  -6042998.85746  22169759.865    22169767.277
       227.000         173.000
  23501316.401    10048064.77949   7819849.51046  23501315.168    23501322.064
       225.000         167.000
  23827153.293    -4444808.02149  -3128025.52845  23827147.569    23827163.693
       202.000         140.000
 02  7  2 16  8 30.0000000  0 11G21G23G18G17G15G 6G30G29G26G10G22
  24664808.202    -2423062.71049  -1865582.09445  24664806.160    24664818.286
       208.000         137.000
  20887642.408     1041090.92149    813919.03048  20887641.417    20887647.610
       249.000         216.000
  21943865.556    -9177424.95849  -7135341.27146  21943865.198    21943872.218
       224.000         163.000
  21246560.397    -4867264.43149  -3778900.49847  21246559.573    21246566.439
       241.000         200.000
  21678719.101    -7040895.26949  -5464259.96247  21678717.986    21678725.169
       237.000         188.000
  20250463.776    -2314434.33649  -1796882.86848  20250463.276    20250469.228
       245.000         213.000
                  10570348.82348   -547600.17143
       190.000          74.000
  22632788.850    -5562758.32149  -4323592.95846  22632789.196    22632795.217
       231.000         181.000
  22160943.038    -7812967.82149  -6079104.53046  22160942.369    22160949.556
       226.000         172.000
  23520591.017    10149352.92749   7898775.30246  23520589.934    23520597.299
       226.000         166.000
  23819645.496    -4484255.97049  -3158764.15945  23819645.862    23819654.218
       216.000         142.000
 02  7  2 16  9  0.0000000  0 11G21G23G18G17G15G 6G30G29G26G10G22
  24647152.716    -2515842.24049  -1937877.77645  24647153.691    24647164.903
       209.000         138.000
  20894821.549     1078817.68449    843316.49448  20894820.547    20894826.956
       249.000         216.000
  21928479.221    -9258280.53049  -7198345.55946  21928479.070    21928485.696
       226.000         165.000
  21240592.713    -4898624.98949  -3803337.28647  21240591.934    21240598.873
       242.000         201.000
  21669344.966    -7090156.17449  -5502645.05747  21669343.745    21669351.511
       237.000         188.000
  20251515.779    -2308906.08749  -1792575.15648  20251515.398    20251521.362
       246.000         214.000
                  10671819.10648   -468523.77743
       187.000          74.000
  22628568.334    -5584938.45849  -4340876.17946  22628567.788    22628574.619
       228.000         180.000
  22152224.233    -7858784.45549  -6114805.77746  22152223.385    22152231.424
       224.000         171.000
  23539890.030    10250770.15049   7977801.67046  23539887.725    23539896.489
       224.000         164.000
  23812237.144    -4523192.68149  -3189104.50645  23812238.021    23812242.593
       219.000         146.000
 02  7  2 16  9 30.0000000  0 11G21G23G18G17G15G 6G30G29G26G10G22
  24629526.581    -2608469.58549  -2010054.79645  24629525.594    24629534.290
       211.000         136.000
  20902079.594     1116959.25849    873037.19448  20902079.122    20902085.185
       249.000         216.000
  21913159.286    -9338788.02749  -7261078.62246  21913158.116    21913165.237
       226.000         165.000
  21234653.667    -4929835.01949  -3827656.78247  21234652.956    21234660.143
       243.000         203.000
  21660002.824    -7139248.69649  -5540898.93846  21660001.973    21660009.895
       236.000         187.000
  20252656.325    -2302912.88649  -1787905.14248  20252656.048    20252661.815
       246.000         215.000
                  10773344.96448   -389401.74543
       188.000          74.000
  22624441.834    -5606623.30949  -4357773.45246  22624440.336    22624448.020
       227.000         179.000
  22143604.820    -7904080.15349  -6150101.11046  22143605.521    22143611.333
       226.000         171.000
  23559212.757    10352313.35749   8056926.20346  23559211.058    23559218.654
       221.000         163.000
  23804925.772    -4561618.03149  -3219046.37145  23804925.123    23804932.158
       216.000         147.000
 02  7  2 16 10  0.0000000  0 11G21G23G18G17G15G 6G30G29G26G10G22
  24611930.036    -2700940.62449  -2082110.06545  24611928.736    24611938.136
       215.000         135.000
  20909416.791     1155516.00649    903081.40248  20909415.793    20909421.946
       248.000         215.000
  21897906.127    -9418943.73149  -7323537.58046  21897905.426    21897910.791
       225.000         163.000
  21228743.599    -4960892.67849  -3851857.54747  21228742.367    21228749.271
       242.000         203.000
  21650693.448    -7188170.62449  -5579019.90646  21650692.458    21650699.908
       236.000         187.000
  20253885.866    -2296451.81449  -1782870.56148  20253885.437    20253891.546
       247.000         215.000
                  10874925.79648   -561759.77243
       187.000          74.000
  22620410.119    -5627809.13449  -4374281.89446  22620408.817    22620416.475
       227.000         177.000
  22135085.468    -7948850.15349  -6184986.79246  22135085.569    22135092.629
       226.000         170.000
  23578559.138    10453982.11349   8136148.55745  23578559.363    23578565.045
       221.000         162.000
  23797711.346    -4599528.85149  -3248587.28645  23797709.838    23797719.281
       215.000         148.000
 02  7  2 16 10 30.0000000  0 11G21G23G18G17G15G 6G30G29G26G10G22
  24594363.568    -2793253.23349  -2154041.89745  24594361.977    24594373.479
       210.000         135.000
  20916832.664     1194486.71249    933448.16848  20916831.999    20916838.267
       248.000         214.000
  21882720.324    -9498745.37449  -7385720.64346  21882719.708    21882725.681
       228.000         164.000
  21222862.508    -4991797.30049  -3875939.06447  21222861.908    21222868.848
       243.000         203.000
  21641416.487    -7236921.28349  -5617007.40247  21641415.740    21641422.793
       238.000         188.000
  20255204.772    -2289521.17949  -1777470.08548  20255204.494    20255210.186
       247.000         215.000
                  10976559.47449   -482467.54043
       195.000          74.000
  22616473.873    -5648493.84549  -4390399.86846  22616473.261    22616479.834
       226.000         176.000
  22126666.835    -7993091.17949  -6219460.30346  22126666.498    22126673.883
       226.000         171.000
  23597929.420    10555774.81449   8215467.49745  23597927.695    23597936.445
       219.000         162.000
  23790595.226    -4636923.38849  -3277725.87245  23790593.275    23790601.547
       212.000         147.000
 02  7  2 16 11  0.0000000  0 11G21G23G18G17G15G 6G30G29G26G10G22
  24576826.851    -2885408.37749  -2225851.01745  24576826.097    24576839.324
       213.000         134.000
  20924326.604     1233867.35249    964134.36247  20924325.701    20924331.605
       247.000         212.000
  21867602.057    -9578193.63949  -7447628.31746  21867602.044    21867607.834
       226.000         165.000
  21217010.327    -5022551.16949  -3899903.10647  21217009.060    21217016.501
       241.000         204.000
  21632171.824    -7285502.72749  -5654863.05847  21632170.560    21632178.321
       237.000         189.000
  20256612.833    -2282122.10049  -1771704.58248  20256612.079    20256618.399
       246.000         216.000
                  11078240.99749   -403096.50943
       199.000          74.000
  22612632.876    -5668677.90349  -4406127.68546  22612631.871    22612637.931
       229.000         175.000
  22118348.637    -8036802.92949  -6253521.39346  22118348.966    22118355.695
       228.000         173.000
  23617322.754    10657687.00149   8294879.53445  23617321.419    23617330.421
       219.000         161.000
  23783577.190    -4673803.01349  -3306463.23345  23783575.313    23783585.615
       212.000         147.000
 02  7  2 16 11 30.0000000  0 11G21G23G18G17G15G 6G30G29G26G10G22
  24559320.646    -2977404.78149  -2297536.51245  24559319.687    24559331.166
       208.000         134.000
  20931898.038     1273655.76649    995138.30447  20931897.049    20931903.233
       246.000         210.000
  21852550.979    -9657287.20149  -7509259.59545  21852548.386    21852555.326
       226.000         162.000
  21211186.534    -5053154.64449  -3923749.96247  21211185.592    21211192.845
       242.000         204.000
  21622959.265    -7333915.03049  -5692586.92147  21622958.717    21622965.167
       237.000         191.000
  20258110.084    -2274253.92749  -1765573.55048  20258109.633    20258115.480
       247.000         216.000
                  11179967.36948   -575010.05743
       191.000          74.000
  22608887.288    -5688360.41549  -4421464.69046  22608886.743    22608893.285
       227.000         175.000
  22110131.868    -8079983.01449  -6287168.18946  22110132.404    22110139.610
       229.000         175.000
  23636738.451    10759715.71249   8374382.36745  23636737.597    23636745.711
       219.000         162.000
  23776656.752    -4710166.91349  -3334798.71445  23776655.894    23776665.096
       214.000         146.000
 02  7  2 16 12  0.0000000  0 11G21G23G18G17G15G 6G30G29G26G10G22
  24541844.639    -3069240.99649  -2369097.12945  24541844.065    24541855.474
       207.000         134.000
  20939546.599     1313849.80949   1026458.31647  20939545.504    20939551.501
       245.000         208.000
  21837567.307    -9736024.83649  -7570613.55445  21837566.287    21837572.537
       227.000         162.000
  21205391.370    -5083608.06349  -3947479.88147  21205390.634    21205397.499
       242.000         204.000
  21613778.866    -7382158.54749  -5730179.24347  21613777.813    21613784.317
       237.000         191.000
  20259696.745    -2265915.98349  -1759076.45448  20259696.224    20259702.264
       247.000         216.000
                  11281735.37449   -495761.84843
       200.000          74.000
  22605237.517    -5707540.07049  -4436409.86346  22605236.530    22605243.795
       228.000         175.000
  22102016.769    -8122629.13749  -6320398.89946  22102016.303    22102023.636
       228.000         175.000
  23656175.801    10861858.65849   8453974.22945  23656174.911    23656183.620
       219.000         161.000
  23769835.394    -4746014.42249  -3362731.81945  23769834.146    23769843.648
       210.000         145.000
 02  7  2 16 12 30.0000000  0 11G21G23G18G17G15G 6G30G29G26G10G22
  24524399.400    -3160914.75449  -2440531.14845  24524399.891    24524411.557
       206.000         137.000
  20947272.170     1354448.12349   1058093.35047  20947271.576    20947277.682
       246.000         207.000
  21822652.233    -9814404.35749  -7631688.45746  21822652.482    21822657.782
       230.000         165.000
  21199624.945    -5113911.03849  -3971092.57747  21199624.186    21199631.232
       241.000         204.000
  21604630.703    -7430232.62049  -5767639.55047  21604629.556    21604636.473
       237.000         192.000
  20261373.073    -2257106.98349  -1752212.31648  20261372.604    20261378.314
       247.000         216.000
                  11383542.81149   -416514.92843
       195.000          74.000
  22601683.706    -5726214.89149  -4450961.67246  22601683.540    22601690.924
       230.000         178.000
  22094003.617    -8164738.45549  -6353211.31846  22094003.360    22094009.400
       229.000         174.000
  23675634.508    10964114.05649   8533653.69945  23675632.970    23675641.811
       222.000         161.000
  23763112.012    -4781344.02749  -3390261.36145  23763112.290    23763118.219
       214.000         147.000
 02  7  2 16 13  0.0000000  0 11G21G23G18G17G15G 6G30G29G26G10G22
  24506985.447    -3252425.94949  -2511838.52045  24506984.288    24506995.958
       215.000         142.000
  20955074.339     1395448.19249   1090041.43847  20955073.584    20955079.788
       246.000         208.000
  21807805.467    -9892424.96349  -7692483.68446  21807805.920    21807809.657
       230.000         166.000
  21193886.891    -5144064.30449  -3994588.62447  21193885.978    21193893.142
       242.000         204.000
  21595514.468    -7478138.07949  -5804968.45147  21595512.658    21595520.281
       236.000         191.000
  20263139.107    -2247826.55949  -1744980.82448  20263138.741    20263144.508
       246.000         215.000
                  11485387.26848   -587236.81243
       189.000          74.000
  22598226.251    -5744384.24749  -4465119.60746  22598226.603    22598232.725
       232.000         180.000
  22086093.158    -8206309.05349  -6385603.94446  22086093.156    22086100.079
       228.000         175.000
  23695113.998    11066478.49449   8613418.11845  23695112.315    23695121.342
       220.000         160.000
  23756487.988    -4816155.75849  -3417387.41645  23756487.806    23756495.136
       215.000         150.000
 02  7  2 16 13 30.0000000  0 11G21G23G18G17G15G 6G30G29G26G10G22
  24489602.927    -3343771.58149  -2583016.83945  24489602.291    24489614.250
       213.000         147.000
  20962952.727     1436849.21849   1122301.96447  20962952.070    20962957.734
       247.000         208.000
  21793027.413    -9970084.35049  -7752997.42846  21793026.722    21793032.487
       232.000         168.000
  21188177.578    -5174066.85049  -4017967.21247  21188176.491    21188183.833
       241.000         205.000
  21586430.558    -7525873.82049  -5842165.11047  21586429.006    21586436.883
       235.000         192.000
  20264995.242    -2238072.89849  -1737380.57448  20264994.876    20265000.241
       246.000         214.000
                  11587264.87749   -507848.46643
       195.000          74.000
  22594865.566    -5762045.77349  -4478881.82146  22594866.020    22594872.807
       232.000         181.000
  22078285.659    -8247337.31549  -6417574.00246  22078284.342    22078291.689
       228.000         174.000
  23714614.133    11168950.89649   8693266.68045  23714613.335    23714621.360
       221.000         158.000
  23749962.481    -4850447.57649  -3444108.28345  23749958.926    23749973.178
       209.000         151.000
 02  7  2 16 14  0.0000000  0 11G21G23G18G17G15G 6G30G29G26G10G22
  24472251.967    -3434950.19349  -2654065.01445  24472250.633    24472262.554
       213.000         150.000
  20970907.141     1478649.40749   1154873.53247  20970906.494    20970912.736
       247.000         208.000
  21778318.496   -10047380.67049  -7813228.25846  21778317.614    21778323.515
       233.000         172.000
  21182496.883    -5203918.50349  -4041228.22847  21182496.053    21182503.665
       240.000         204.000
  21577378.939    -7573439.69049  -5879229.39947  21577378.182    21577385.202
       236.000         192.000
  20266941.568    -2227844.93549  -1729410.75148  20266941.338    20266946.953
       246.000         214.000
                  11689174.29549   -428432.64843
       199.000          74.000
  22591601.689    -5779197.89049  -4492247.09946  22591601.040    22591608.243
       227.000         180.000
  22070581.901    -8287820.61949  -6449119.40846  22070581.804    22070588.428
       228.000         174.000
  23734134.587    11271529.34749   8773197.89445  23734133.781    23734141.439
       220.000         156.000
  23743535.676    -4884218.36349  -3470423.16845  23743534.373    23743546.367
       214.000         152.000
 02  7  2 16 14 30.0000000  0 11G21G23G18G17G15G 6G30G29G26G10G22
  24454933.205    -3525961.63849  -2724982.96445  24454932.253    24454942.570
       214.000         151.000
  20978936.855     1520845.23349   1187753.38347  20978936.165    20978942.271
       248.000         210.000
  21763678.619   -10124313.74049  -7873176.05246  21763677.639    21763683.205
       234.000         173.000
  21176844.689    -5233620.94249  -4064372.97447  21176844.066    21176851.020
       241.000         204.000
  21568359.522    -7620837.13749  -5916162.45147  21568358.806    21568365.797
       235.000         192.000
  20268978.129    -2217143.52149  -1721071.98748  20268977.589    20268983.096
       246.000         214.000
                  11791111.17449   -598700.39343
       202.000          74.000
  22588434.599    -5795840.77049  -4505215.56846  22588433.193    22588442.420
       226.000         178.000
  22062982.164    -8327758.05249  -6480239.44746  22062981.885    22062988.474
       228.000         175.000
  23753674.209    11374209.57449   8853208.42645  23753672.125    23753680.106
       215.000         155.000
  23737209.128    -4917468.91349  -3496332.71545  23737207.853    23737217.418
       211.000         150.000
 02  7  2 16 15  0.0000000  0 11G21G23G18G17G15G 6G30G29G26G10G22
  24437646.535    -3616803.99349  -2795769.14645  24437645.980    24437655.488
       214.000         150.000
  20987041.521     1563435.45449   1220940.55047  20987040.754    20987046.908
       247.000         211.000
  21749108.126   -10200881.96149  -7932839.56246  21749107.666    21749112.406
       235.000         174.000
  21171221.115    -5263173.53849  -4087400.95847  21171220.229    21171226.943
       241.000         204.000
  21559372.370    -7668065.54149  -5952963.77447  21559371.538    21559378.309
       236.000         191.000
  20271104.961    -2205967.08149  -1712363.07448  20271104.526    20271109.901
       246.000         214.000
                  11893073.25349   -519251.95543
       196.000          74.000
  22585364.729    -5811972.52349  -4517785.77246  22585364.398    22585372.363
       227.000         177.000
  22055486.415    -8367146.61849  -6510931.81346  22055484.616    22055492.878
       224.000         173.000
  23773232.523    11476990.09149   8933297.09145  23773230.795    23773240.061
       214.000         154.000
  23730980.790    -4950197.78549  -3521835.75345  23730974.628    23730986.084
       203.000         146.000
 02  7  2 16 15 30.0000000  0 11G21G23G18G17G15G 6G30G29G26G10G22
  24420392.764    -3707473.51649  -2866420.68445  24420392.924    24420401.955
       222.000         152.000
  20995221.192     1606420.19949   1254435.14147  20995219.932    20995226.483
       247.000         212.000
  21734607.795   -10277081.59749  -7992215.84646  21734607.364    21734613.401
       237.000         177.000
  21165626.296    -5292574.34049  -4110310.66347  21165625.352    21165632.284
       241.000         204.000
  21550417.820    -7715122.82949  -5989631.77147  21550416.797    21550424.103
       237.000         190.000
  20273322.670    -2194312.88249  -1703281.87948  20273321.971    20273327.589
       246.000         214.000
                  11995059.78349   -439787.37143
       199.000          74.000
  22582392.854    -5827589.98949  -4529955.19546  22582392.675    22582400.157
       227.000         177.000
  22048095.942    -8405982.03049  -6541193.14046  22048095.511    22048102.261
       227.000         173.000
  23792809.940    11579870.83649   9013463.88445  23792807.812    23792817.322
       217.000         156.000
  23724851.171    -4982402.21349  -3546930.13545  23724849.119    23724858.355
       210.000         145.000
 02  7  2 16 16  0.0000000  0 11G21G23G18G17G15G 6G30G29G26G10G22
  24403172.078    -3797971.39949  -2936938.42945  24403171.016    24403182.182
       218.000         152.000
  21003475.062     1649794.87249   1288233.56848  21003474.237    21003480.432
       249.000         213.000
  21720177.548   -10352913.68749  -8051305.74046  21720176.645    21720182.649
       237.000         179.000
  21160059.942    -5321825.77949  -4133103.97247  21160059.136    21160066.043
       240.000         203.000
  21541495.151    -7762011.65949  -6026168.47047  21541494.404    21541501.174
       239.000         189.000
  20275630.951    -2182182.59049  -1693829.70948  20275630.763    20275635.920
       245.000         213.000
                  12097065.51049   -609377.81143
       195.000          74.000
  22579518.510    -5842694.21549  -4541724.70046  22579517.695    22579525.499
       228.000         178.000
  22040810.922    -8444264.35849  -6571023.48846  22040811.064    22040817.125
       227.000         173.000
  23812405.734    11682846.71449   9093704.76145  23812404.495    23812413.302
       218.000         156.000
  23718822.249    -5014084.00549  -3571617.26145  23718823.920    23718832.770
       215.000         148.000
 02  7  2 16 16 30.0000000  0 11G21G23G18G17G15G 6G30G29G26G10G22
  24385983.418    -3888296.53949  -3007321.55145  24385981.097    24385992.833
       217.000         151.000
  21011802.733     1693557.12349   1322334.00948  21011801.902    21011808.431
       249.000         214.000
  21705817.021   -10428377.51649  -8110108.68446  21705815.746    21705822.463
       234.000         179.000
  21154521.947    -5350928.47949  -4155781.38147  21154520.770    21154528.181
       241.000         203.000
  21532604.656    -7808732.13849  -6062574.00747  21532603.579    21532609.829
       237.000         188.000
  20278030.000    -2169575.92249  -1684006.35048  20278029.492    20278035.082
       246.000         213.000
                  12199087.27448   -529881.46243
       183.000          74.000
  22576742.186    -5857284.41549  -4553093.66046  22576741.587    22576748.798
       230.000         178.000
  22033631.736    -8481991.83049  -6600421.47746  22033632.204    22033639.376
       229.000         175.000
  23832019.234    11785914.99749   9174017.65945  23832018.957    23832026.890
       218.000         156.000
  23712893.644    -5045242.71149  -3595896.80945  23712894.145    23712903.697
       216.000         152.000
 02  7  2 16 17  0.0000000  0 11G21G23G18G17G15G 6G30G29G26G10G22
  24368827.847    -3978445.60249  -3077567.50245  24368825.863    24368837.736
       214.000         149.000
  21020204.191     1737706.73449   1356736.29248  21020203.526    21020210.007
       249.000         215.000
  21691527.339   -10503469.64349  -8168621.98946  21691526.888    21691532.610
       237.000         180.000
  21149012.409    -5379880.74249  -4178341.57747  21149011.994    21149018.522
       240.000         203.000
  21523746.258    -7855282.63649  -6098847.08346  21523745.671    21523751.795
       237.000         187.000
  20280520.127    -2156490.29349  -1673809.77048  20280519.568    20280525.371
       245.000         213.000
                  12301124.09648   -450375.55843
       190.000          74.000
  22574064.146    -5871357.83149  -4564059.91346  22574063.421    22574070.706
       227.000         176.000
  22026559.004    -8519160.23249  -6629383.83346  22026558.811    22026566.362
       228.000         175.000
  23851650.037    11889075.02749   9254402.02645  23851650.416    23851656.187
       216.000         153.000
  23707064.768    -5075876.04849  -3619766.94245  23707063.721    23707072.868
       214.000         154.000
 02  7  2 16 17 30.0000000  0 11G21G23G18G17G15G 6G30G29G26G10G22
  24351706.060    -4068417.89949  -3147675.68045  24351705.285    24351716.409
       219.000         147.000
  21028678.907     1782241.20849   1391438.47348  21028678.149    21028684.367
       249.000         216.000
  21677308.770   -10578189.42449  -8226845.14546  21677307.642    21677313.419
       238.000         182.000
  21143531.543    -5408683.13449  -4200784.98447  21143530.379    21143537.707
       240.000         203.000
  21514920.385    -7901663.40749  -6134987.90946  21514919.151    21514925.637
       237.000         187.000
  20283101.290    -2142925.76749  -1663240.01848  20283100.332    20283106.806
       243.000         213.000
                  12403172.55348   -619380.23643
       190.000          74.000
  22571484.451    -5884913.60949  -4574622.83946  22571484.426    22571490.931
       228.000         175.000
  22019592.623    -8555767.94449  -6657909.29646  22019592.383    22019599.333
       226.000         173.000
  23871298.031    11992324.26949   9334855.91745  23871295.906    23871304.155
       212.000         150.000
  23701335.537    -5105983.77149  -3643227.50845  23701335.377    23701344.021
       219.000         155.000
 02  7  2 16 18  0.0000000  0 11G21G23G18G17G15G 6G30G29G26G10G22
  24334619.023    -4158213.93449  -3217646.52045  24334618.015    24334629.092
       222.000         149.000
  21037226.074     1827156.93349   1426437.72948  21037224.962    21037231.769
       249.000         217.000
  21663160.953   -10652537.01849  -8284778.28246  21663159.417    21663166.129
       237.000         183.000
  21138078.808    -5437337.45049  -4223113.02847  21138077.993    21138084.705
       240.000         202.000
  21506126.174    -7947876.13449  -6170997.80247  21506125.009    21506132.429
       237.000         189.000
  20285773.373    -2128883.30049  -1652297.84947  20285772.682    20285778.668
       244.000         212.000
                  12505228.28048   -539856.83843
       190.000          74.000
  22569003.393    -5897952.45449  -4584782.94346  22569003.704    22569010.279
       230.000         176.000
  22012733.175    -8591814.36449  -6685997.38846  22012732.502    22012739.313
       229.000         172.000
  23890961.939    12095658.73649   9415376.21545  23890960.073    23890966.934
       212.000         146.000
  23695706.057    -5135566.85449  -3666279.29445  23695704.525    23695714.085
       213.000         154.000
 02  7  2 16 18 30.0000000  0 11G21G23G18G17G15G 6G30G29G26G10G22
  24317565.614    -4247830.60549  -3287477.60945  24317564.560    24317576.783
       220.000         150.000
  21045845.701     1872453.28449   1461733.57648  21045844.925    21045851.248
       249.000         217.000
  21649084.243   -10726509.75649  -8342419.32546  21649083.531    21649088.568
       238.000         183.000
  21132654.539    -5465842.28349  -4245324.56847  21132653.848    21132660.582
       240.000         202.000
  21497364.399    -7993919.64549  -6206875.83747  21497363.005    21497370.474
       236.000         190.000
  20288536.880    -2114360.75149  -1640981.59347  20288536.379    20288542.444
       244.000         212.000
                  12607289.96148   -460330.45043
       190.000          74.000
  22566621.293    -5910471.64849  -4594538.10146  22566621.073    22566626.844
       229.000         177.000
  22005981.458    -8627295.87849  -6713645.26546  22005981.416    22005986.084
       231.000         173.000
  23910641.815    12199077.24949   9495962.00245  23910640.128    23910646.989
       210.000         143.000
  23690176.392    -5164623.54449  -3688920.83645  23690174.463    23690186.873
       212.000         154.000
 02  7  2 16 19  0.0000000  0 11G21G23G18G17G15G 6G30G29G26G10G22
  24300546.028    -4337268.46349  -3357169.39845  24300547.021    24300554.963
       221.000         149.000
  21054537.060     1918126.72249   1497323.25448  21054535.968    21054542.409
       247.000         215.000
  21635078.920   -10800107.91749  -8399768.49746  21635078.187    21635083.956
       239.000         185.000
  21127258.391    -5494199.24749  -4267420.89547  21127257.494    21127264.456
       240.000         202.000
  21488634.427    -8039795.31949  -6242623.09347  21488633.079    21488640.452
       235.000         190.000
  20291391.738    -2099358.98749  -1629291.93247  20291391.542    20291397.237
       244.000         212.000
                  12709353.35448   -628814.43843
       193.000          74.000
  22564337.579    -5922471.83249  -4603888.84746  22564337.045    22564343.769
       230.000         176.000
  21999337.240    -8662211.95449  -6740852.56146  21999336.276    21999342.423
       230.000         173.000
  23930337.066    12302576.10849   9576610.41845  23930334.994    23930343.306
       212.000         145.000
  23684747.521    -5193154.68649  -3711152.90145  23684745.492    23684757.899
       213.000         154.000
 02  7  2 16 19 30.0000000  0 11G21G23G18G17G15G 6G30G29G26G10G22
  24283561.729    -4426524.36849  -3426719.36445  24283560.271    24283569.861
       220.000         147.000
  21063300.014     1964176.42549   1533206.13448  21063299.381    21063305.474
       247.000         214.000
  21621145.500   -10873328.84749  -8456823.71646  21621144.553    21621150.991
       238.000         186.000
  21121890.675    -5522406.88449  -4289400.85947  21121889.770    21121896.319
       240.000         201.000
  21479936.593    -8085501.79349  -6278238.50847  21479935.110    21479942.875
       234.000         189.000
  20294338.133    -2083875.96549  -1617227.25447  20294337.752    20294343.546
       243.000         211.000
                  12811416.88748   -549283.48943
       194.000          74.000
  22562153.221    -5933950.70549  -4612833.37746  22562151.557    22562159.021
       228.000         176.000
  21992801.098    -8696559.03349  -6767616.49746  21992799.512    21992806.176
       230.000         173.000
  23950047.498    12406154.53449   9657320.79645  23950046.048    23950055.050
       211.000         148.000
  23679418.687    -5221158.28249  -3732973.88545  23679417.520    23679427.475
       212.000         153.000
 02  7  2 16 20  0.0000000  0 11G21G23G18G17G15G 6G30G29G26G10G22
  24266611.728    -4515596.80249  -3496126.37645  24266610.275    24266617.260
       222.000         146.000
  21072134.225     2010600.17149   1569380.47148  21072133.126    21072139.770
       245.000         213.000
  21607283.896   -10946171.17549  -8513583.90546  21607282.570    21607289.795
       239.000         186.000
  21116551.296    -5550465.60049  -4311264.78547  21116550.376    21116557.234
       239.000         201.000
  21471271.070    -8131038.99949  -6313722.02747  21471270.779    21471277.584
       236.000         189.000
  20297376.185    -2067911.28549  -1604787.25547  20297375.789    20297381.774
       243.000         211.000
                  12913477.75048   -469750.66143
       194.000          74.000
  22560068.208    -5944907.16349  -4621370.82646  22560067.370    22560074.837
       226.000         176.000
  21986373.740    -8730334.94449  -6793935.35046  21986374.120    21986379.076
       233.000         175.000
  23969772.424    12509809.82149   9738091.08045  23969771.043    23969780.139
       212.000         150.000
  23674190.135    -5248634.07249  -3754383.60145  23674189.739    23674198.744
       212.000         153.000
 02  7  2 16 20 30.0000000  0 11G21G23G18G17G15G 6G30G29G26G10G22
  24249696.789    -4604484.98549  -3565389.83945  24249695.895    24249704.409
       219.000         147.000
  21081039.211     2057396.38149   1605845.05347  21081038.491    21081044.651
       245.000         212.000
  21593494.665   -11018633.49449  -8570047.99946  21593494.125    21593499.973
       240.000         187.000
  21111240.252    -5578374.90149  -4333012.27447  21111239.223    21111246.260
       238.000         200.000
  21462637.976    -8176406.90349  -6349073.60847  21462636.756    21462644.218
       237.000         190.000
  20300506.023    -2051463.90349  -1591971.13347  20300505.802    20300511.310
       242.000         210.000
                  13015533.709 8    392872.616 1
       194.000
  22558082.718    -5955339.96349  -4629500.24246  22558082.444    22558089.111
       228.000         175.000
  21980055.783    -8763537.44749  -6819807.38446  21980056.713    21980061.798
       234.000         178.000
  23989511.601    12613540.46749   9818920.10545  23989509.558    23989519.918
       209.000         150.000
  23669062.628    -5275581.10049  -3775381.28845  23669062.419    23669070.752
       215.000         155.000
 02  7  2 16 21  0.0000000  0 11G21G23G18G17G15G 6G30G29G26G10G22
  24232816.964    -4693188.34649  -3634509.23545  24232813.712    24232824.930
       217.000         148.000
  21090014.588     2104562.11749   1642597.56747  21090013.018    21090020.006
       243.000         210.000
  21579777.913   -11090715.56949  -8626215.80147  21579777.181    21579782.972
       239.000         188.000
  21105957.489    -5606135.71549  -4354644.06647  21105956.670    21105963.480
       239.000         200.000
  21454036.889    -8221605.96849  -6384293.62547  21454036.070    21454042.921
       238.000         191.000
  20303727.665    -2034534.22649  -1578779.18747  20303726.742    20303733.382
       241.000         210.000
                  13117581.07648   -558081.67643
       189.000          74.000
  22556197.054    -5965248.99149  -4637221.50246  22556196.360    22556203.645
       229.000         176.000
  21973847.084    -8796165.23049  -6845231.58646  21973846.782    21973854.192
       232.000         178.000
  24009264.241    12717343.19849   9899805.31945  24009261.504    24009272.388
       202.000         147.000
  23664035.591    -5301999.57649  -3795967.13845  23664033.910    23664043.573
       214.000         157.000
 02  7  2 16 21 30.0000000  0 11G21G23G18G17G15G 6G30G29G26G10G22
  24215972.244    -4781704.64449  -3703482.90545  24215970.892    24215981.510
       217.000         150.000
  21099059.712     2152095.57849   1679636.61547  21099058.836    21099064.961
       243.000         209.000
  21566133.750   -11162415.62649  -8682085.92846  21566132.817    21566138.443
       239.000         187.000
  21100703.082    -5633747.84749  -4376159.99147  21100701.698    21100709.273
       239.000         199.000
  21445467.837    -8266635.96649  -6419381.89047  21445466.832    21445473.923
       237.000         192.000
  20307041.104    -2017121.40249  -1565210.76747  20307040.319    20307046.683
       241.000         210.000
                  13219617.31848   -478576.58643
       181.000          74.000
  22554411.279    -5974632.91449  -4644533.61346  22554410.257    22554418.630
       228.000         177.000
  21967747.971    -8828215.91749  -6870206.11346  21967746.785    21967754.708
       228.000         178.000
  24029029.402    12821216.01349   9980745.10245  24029028.140    24029039.856
       196.000         141.000
  23659108.687    -5327888.95949  -3816140.67345  23659107.481    23659117.523
       218.000         157.000
 02  7  2 16 22  0.0000000  0 10G21G23G18G17G15G 6G29G26G10G22
  24199164.090    -4870030.91049  -3772308.49045  24199163.118    24199174.000
       217.000         151.000
  21108174.945     2199996.55149   1716962.03547  21108174.295    21108180.281
       244.000         208.000
  21552562.934   -11233730.67449  -8737656.05547  21552562.441    21552568.028
       240.000         188.000
  21095477.182    -5661209.49149  -4397558.65647  21095475.986    21095483.712
       239.000         199.000
  21436931.407    -8311495.02149  -6454336.97447  21436930.362    21436938.361
       237.000         192.000
  20310446.948    -1999223.19149  -1551264.12347  20310445.991    20310452.737
       240.000         208.000
  22552725.951    -5983488.97049  -4651434.39846  22552725.333    22552732.823
       228.000         179.000
  21961759.313    -8859685.77749  -6894728.06046  21961759.031    21961767.193
       232.000         179.000
  24048808.554    12925158.47449  10061739.19745  24048806.708    24048817.500
       200.000         135.000
  23654283.634    -5353246.98949  -3835900.20945  23654283.280    23654290.729
       218.000         158.000
 02  7  2 16 22 30.0000000  0 10G21G23G18G17G15G 6G29G26G10G22
  24182392.191    -4958168.97149  -3840987.40845  24182389.490    24182402.261
       212.000         151.000
  21117359.255     2248260.10449   1754569.98947  21117358.857    21117364.633
       245.000         208.000
  21539065.055   -11304662.40249  -8792927.47447  21539064.226    21539070.025
       240.000         189.000
  21090279.609    -5688523.37349  -4418842.18247  21090278.604    21090285.830
       239.000         199.000
  21428426.937    -8356186.03449  -6489161.12847  21428425.370    21428433.306
       237.000         192.000
  20313944.816    -1980841.76249  -1536940.95147  20313944.119    20313950.264
       240.000         207.000
  22551140.885    -5991819.09449  -4657925.37046  22551140.151    22551147.165
       226.000         179.000
  21955881.316    -8890575.59549  -6918797.99846  21955881.899    21955888.123
       233.000         181.000
  24068600.870    13029165.60649  10142783.68744  24068601.494    24068608.361
       205.000         130.000
  23649558.937    -5378075.95849  -3855247.49845  23649558.731    23649566.425
       218.000         157.000
 02  7  2 16 23  0.0000000  0 10G21G23G18G17G15G 6G29G26G10G22
  24165655.815    -5046116.46049  -3909517.83345  24165653.156    24165665.889
       212.000         150.000
  21126612.483     2296885.24749   1792459.69747  21126611.591    21126617.106
       244.000         207.000
  21525640.577   -11375208.45349  -8847898.39047  21525639.970    21525645.032
       239.000         189.000
  21085110.179    -5715688.64749  -4440009.91247  21085109.612    21085116.732
       240.000         200.000
  21419954.606    -8400707.92749  -6523853.48347  21419953.685    21419961.027
       237.000         191.000
  20317534.896    -1961975.66849  -1522240.12147  20317534.494    20317540.515
       241.000         207.000
  22549656.085    -5999621.43549  -4664005.08746  22549655.129    22549662.712
       225.000         178.000
  21950114.228    -8920882.48349  -6942413.69746  21950111.584    21950120.686
       227.000         180.000
  24088405.264    13133236.22749  10223877.57744  24088406.953    24088411.679
       207.000         130.000
  23644934.886    -5402374.60649  -3874181.54345  23644932.394    23644942.169
       210.000         154.000
 02  7  2 16 23 30.0000000  0 10G21G23G18G17G15G 6G29G26G10G22
  24148956.510    -5133871.09949  -3977897.98945  24148956.635    24148966.250
       219.000         151.000
  21135934.019     2345870.88949   1830630.31647  21135932.918    21135939.295
       244.000         207.000
  21512289.763   -11445366.95749  -8902567.31947  21512289.102    21512295.175
       240.000         189.000
  21079969.233    -5742704.38249  -4461061.10447  21079968.262    21079974.915
       240.000         200.000
  21411514.730    -8445059.70949  -6558413.27047  21411513.238    21411521.156
       238.000         190.000
  20321217.567    -1942623.44949  -1507160.48547  20321217.114    20321223.171
       240.000         207.000
  22548271.979    -6006894.20649  -4669672.15146  22548271.706    22548278.599
       224.000         177.000
  21944458.065    -8950603.45849  -6965572.85846  21944456.359    21944464.991
       228.000         178.000
  24108221.253    13237369.08349  10305019.94244  24108222.725    24108225.745
       208.000         127.000
  23640411.489    -5426141.66649  -3892701.30645  23640407.566    23640420.486
       205.000         152.000
 02  7  2 16 24  0.0000000  0 10G21G23G18G17G15G 6G29G26G10G22
  24132294.579    -5221433.28249  -4046128.18145  24132293.061    24132304.554
       221.000         154.000
  21145323.500     2395212.89649   1869078.62147  21145322.688    21145329.055
       246.000         208.000
  21499012.675   -11515138.53349  -8956934.72847  21499012.074    21499017.590
       241.000         190.000
  21074856.386    -5769572.64949  -4481997.40847  21074855.781    21074862.603
       239.000         200.000
  21403106.892    -8489243.18649  -6592841.91847  21403106.458    21403111.825
       239.000         189.000
  20324992.454    -1922786.49149  -1491703.13647  20324992.041    20324997.785
       240.000         206.000
  22546988.455    -6013638.48649  -4674927.40846  22546987.395    22546995.123
       222.000         176.000
  21938913.633    -8979738.59949  -6988275.50646  21938913.976    21938920.474
       232.000         179.000
  24128048.647    13341559.95849  10386207.53144  24128050.788    24128052.683
       209.000         125.000
  23635989.283    -5449378.62649  -3910808.00245  23635989.105    23635999.580
       213.000         153.000
 02  7  2 16 24 30.0000000  0 10G21G23G18G17G15G 6G29G26G10G22
  24115669.133    -5308801.96049  -4114207.57245  24115666.871    24115678.358
       219.000         156.000
  21154780.288     2444909.05849   1907802.88647  21154779.461    21154785.611
       246.000         208.000
  21485809.354   -11584522.06149  -9010999.76347  21485807.895    21485814.115
       239.000         190.000
  21069771.596    -5796293.35349  -4502818.71747  21069770.731    21069777.111
       240.000         201.000
  21394731.114    -8533258.52649  -6627139.53947  21394730.196    21394736.861
       239.000         188.000
  20328859.650    -1902464.65049  -1475867.95247  20328859.064    20328865.179
       239.000         206.000
  22545805.786    -6019853.56149  -4679770.29546  22545805.344    22545812.856
       224.000         177.000
  21933481.222    -9008286.21549  -7010520.34146  21933480.687    21933487.538
       232.000         181.000
  24147886.395    13445806.56349  10467438.54344  24147888.115    24147889.864
       205.000         122.000
  23631668.757    -5472085.26449  -3928501.50345  23631669.725    23631679.341
       218.000         155.000
 02  7  2 16 25  0.0000000  0 10G21G23G18G17G15G 6G29G26G10G22
  24099080.273    -5395975.14749  -4182134.67045  24099078.545    24099089.753
       220.000         158.000
  21164304.355     2494957.91049   1946801.98847  21164304.047    21164310.501
       248.000         209.000
  21472680.090   -11653515.63349  -9064760.93447  21472679.353    21472684.970
       240.000         190.000
  21064715.067    -5822865.97749  -4523524.64047  21064714.222    21064721.052
       239.000         201.000
  21386387.419    -8577104.97849  -6661305.55847  21386386.373    21386393.118
       238.000         189.000
  20332819.243    -1881656.72949  -1459654.00747  20332818.902    20332825.218
       239.000         206.000
  22544724.096    -6025537.90749  -4684199.62446  22544723.723    22544730.838
       223.000         177.000
  21928161.019    -9036243.59649  -7032305.24446  21928160.031    21928167.643
       231.000         181.000
  24167733.867    13550107.31349  10548711.81844  24167733.206    24167743.324
       198.000         119.000
  23627450.342    -5494260.52949  -3945780.99045  23627450.237    23627457.823
       217.000         158.000
 02  7  2 16 25 30.0000000  0 10G21G23G18G17G15G 6G29G26G10G22
  24082529.379    -5482950.72949  -4249907.79345  24082529.462    24082538.095
       225.000         160.000
  21173895.431     2545358.53849   1986075.18747  21173894.408    21173900.488
       247.000         209.000
  21459625.760   -11722117.00649  -9118216.51147  21459625.610    21459630.551
       241.000         191.000
  21059686.922    -5849289.29849  -4544114.22947  21059686.043    21059692.610
       239.000         200.000
  21378076.081    -8620781.14249  -6695338.91347  21378074.777    21378082.292
       238.000         191.000
  20336871.704    -1860361.23049  -1443060.13447  20336871.017    20336877.456
       239.000         205.000
  22543743.613    -6030689.74149  -4688214.01146  22543742.682    22543750.309
       222.000         176.000
  21922953.706    -9063607.78749  -7053627.94746  21922953.475    21922959.460
       233.000         180.000
  24187591.156    13654461.23849  10630026.45144  24187590.260    24187597.543
       199.000         114.000
  23623331.613    -5515903.18949  -3962645.38345  23623327.910    23623338.346
       212.000         158.000
 02  7  2 16 26  0.0000000  0 10G21G23G18G17G15G 6G29G26G10G22
  24066016.768    -5569727.19449  -4317525.74245  24066015.334    24066024.174
       220.000         161.000
  21183552.824     2596108.52249   2025620.62347  21183552.162    21183557.656
       247.000         209.000
  21446646.114   -11790325.23249  -9171365.73447  21446645.376    21446650.912
       241.000         192.000
  21054687.042    -5875563.53349  -4564587.64947  21054686.284    21054692.685
       238.000         200.000
  21369797.115    -8664287.36049  -6729239.83147  21369796.218    21369803.635
       238.000         194.000
  20341016.909    -1838577.86449  -1426086.10247  20341016.607    20341022.600
       239.000         205.000
  22542864.522    -6035308.43549  -4691812.95446  22542864.140    22542871.184
       224.000         175.000
  21917859.810    -9090377.22949  -7074487.17046  21917860.061    21917865.197
       234.000         180.000
  24207459.148    13758866.03249  10711380.77144  24207454.688    24207466.422
       195.000         113.000
  23619313.907    -5537013.03749  -3979094.62445  23619313.060    23619322.475
       221.000         161.000
 02  7  2 16 26 30.0000000  0 10G21G23G18G17G15G 6G29G26G10G22
  24049541.176    -5656305.64749  -4384989.39145  24049539.370    24049549.630
       220.000         161.000
  21193276.012     2647203.78649   2065435.09547  21193274.851    21193281.973
       247.000         210.000
  21433741.163   -11858141.45949  -9224209.49147  21433740.390    21433745.588
       242.000         193.000
  21049715.353    -5901690.60949  -4584946.40147  21049714.376    21049720.984
       238.000         199.000
  21361549.914    -8707625.72549  -6763009.96147  21361549.377    21361556.299
       239.000         195.000
  20345254.623    -1816308.54449  -1408733.39947  20345253.754    20345260.116
       238.000         203.000
  22542086.788    -6039395.28649  -4694997.47346  22542085.909    22542093.387
       224.000         175.000
  21912879.049    -9116552.21849  -7094883.18846  21912879.040    21912884.192
       233.000         181.000
  24227335.692    13863317.73349  10792771.63444  24227335.994    24227341.211
       196.000         110.000
  23615398.263    -5557592.11049  -3995130.29946  23615398.460    23615406.716
       224.000         164.000
 02  7  2 16 27  0.0000000  0 10G21G23G18G17G15G 6G29G26G10G22
  24033103.746    -5742682.78849  -4452296.19045  24033102.649    24033112.935
       220.000         162.000
  21203064.744     2698644.29849   2105518.58847  21203063.854    21203069.778
       246.000         210.000
  21420911.245   -11925562.57749  -9276745.38647  21420910.202    21420915.635
       243.000         192.000
  21044771.788    -5927668.63849  -4605189.02347  21044770.588    21044777.764
       236.000         199.000
  21353335.269    -8750794.13349  -6796647.64347  21353334.164    21353341.383
       238.000         194.000
  20349585.263    -1793550.81949  -1391000.12447  20349584.945    20349590.790
       239.000         203.000
  22541411.048    -6042947.63349  -4697765.50346  22541409.727    22541417.810
       224.000         176.000
  21908011.890    -9142128.99449  -7114813.08346  21908010.860    21908017.793
       232.000         181.000
  24247220.480    13967815.99549  10874198.74544  24247219.999    24247227.367
       197.000         111.000
  23611583.979    -5577638.02949  -4010750.51246  23611583.121    23611592.727
       222.000         166.000
 02  7  2 16 27 30.0000000  0 10G21G23G18G17G15G 6G29G26G10G22
  24016705.172    -5828857.91649  -4519445.53446  24016704.032    24016714.040
       224.000         163.000
  21212918.754     2750427.43149   2145869.07247  21212917.733    21212924.237
       245.000         209.000
  21408156.715   -11992587.74049  -9328972.74347  21408155.922    21408161.508
       244.000         194.000
  21039856.597    -5953497.92749  -4625315.73347  21039855.581    21039862.825
       237.000         199.000
  21345152.931    -8793792.78849  -6830153.05947  21345151.539    21345159.400
       237.000         194.000
  20354008.908    -1770304.82549  -1372886.39247  20354008.113    20354014.190
       238.000         203.000
  22540836.733    -6045965.23049  -4700116.83946  22540836.014    22540843.965
       223.000         176.000
  21903258.653    -9167106.28449  -7134275.86646  21903257.410    21903265.344
       230.000         182.000
  24267114.077    14072357.99648  10955659.92844  24267109.610    24267124.612
       192.000         112.000
  23607870.664    -5597151.12849  -4025955.50846  23607868.513    23607878.916
       218.000         164.000
 02  7  2 16 28  0.0000000  0 10G21G23G18G17G15G 6G29G26G10G22
  24000345.585    -5914829.81149  -4586436.49546  24000343.938    24000353.562
       224.000         165.000
  21222837.618     2802551.14649   2186484.93047  21222836.906    21222843.361
       245.000         210.000
  21395477.723   -12059216.16349  -9380890.95147  21395476.740    21395482.962
       243.000         195.000
  21034969.661    -5979178.52649  -4645326.57447  21034968.484    21034975.634
       236.000         200.000
  21337002.788    -8836621.61249  -6863526.14847  21337001.741    21337008.996
       236.000         192.000
  20358525.493    -1746570.17949  -1354391.88147  20358524.936    20358530.656
       239.000         203.000
  22540364.380    -6048447.31449  -4702050.90046  22540363.391    22540371.794
       222.000         176.000
  21898619.885    -9191482.32649  -7153270.13746  21898618.992    21898626.277
       232.000         184.000
  24287015.037    14176941.75048  11037153.69444  24287013.430    24287025.902
       186.000         111.000
  23604258.246    -5616131.09949  -4040745.09345  23604255.234    23604265.650
       217.000         159.000
 02  7  2 16 28 30.0000000  0 10G21G23G18G17G15G 6G29G26G10G22
  23984024.571    -6000596.46849  -4653267.53946  23984021.617    23984032.303
       222.000         164.000
  21232820.978     2855013.51449   2227364.69047  21232819.965    21232826.329
       244.000         210.000
  21382874.525   -12125446.18649  -9432498.70547  21382873.615    21382879.633
       244.000         195.000
  21030111.103    -6004710.07149  -4665221.27647  21030110.348    21030117.321
       238.000         200.000
  21328885.230    -8879280.20549  -6896766.58447  21328884.501    21328891.942
       237.000         193.000
  20363135.035    -1722346.38249  -1335516.22047  20363134.305    20363140.115
       238.000         202.000
  22539993.992    -6050393.16049  -4703567.12146  22539993.597    22540000.942
       223.000         176.000
  21894095.980    -9215255.15249  -7171794.36046  21894095.423    21894101.729
       232.000         184.000
  24306923.640    14281565.57248  11118678.78144  24306921.059    24306934.195
       186.000         111.000
  23600748.023    -5634577.49949  -4055118.92445  23600746.733    23600755.936
       218.000         157.000
 02  7  2 16 29  0.0000000  0 10G21G23G18G17G15G 6G29G26G10G22
  23967742.389    -6086157.69449  -4719938.53346  23967741.028    23967751.042
       224.000         164.000
  21242868.033     2907811.78749   2268506.17847  21242866.819    21242873.657
       243.000         209.000
  21370347.144   -12191277.64349  -9483795.90547  21370346.157    21370351.960
       243.000         195.000
  21025280.942    -6030093.20349  -4685000.32347  21025280.061    21025286.916
       237.000         201.000
  21320800.000    -8921769.18049  -6929874.85147  21320799.188    21320806.768
       235.000         193.000
  20367837.724    -1697633.84249  -1316259.71047  20367837.120    20367843.012
       239.000         202.000
  22539725.776    -6051802.63149  -4704665.37946  22539725.493    22539732.060
       226.000         176.000
  21889686.868    -9238423.83349  -7189847.82446  21889685.626    21889693.813
       231.000         185.000
  24326839.559    14386226.69448  11200232.87944  24326839.420    24326851.111
       189.000         111.000
  23597339.384    -5652491.00849  -4069077.52245  23597338.662    23597346.955
       219.000         155.000
 02  7  2 16 29 30.0000000  0 10G21G23G18G17G15G 6G29G26G10G22
  23951499.232    -6171514.29749  -4786450.05946  23951497.523    23951508.658
       223.000         165.000
  21252978.373     2960942.35649   2309906.60047  21252977.290    21252983.959
       243.000         209.000
  21357895.471   -12256710.84049  -9534782.76447  21357894.967    21357900.947
       245.000         196.000
  21020478.603    -6055329.21449  -4704664.73547  21020477.686    21020484.549
       237.000         201.000
  21312746.556    -8964089.81249  -6962851.95947  21312745.204    21312753.223
       233.000         193.000
  20372633.172    -1672433.52849  -1296623.12847  20372632.930    20372638.599
       240.000         203.000
  22539559.517    -6052676.40949  -4705346.21046  22539558.808    22539566.497
       228.000         177.000
  21885392.850    -9260987.97249  -7207430.23746  21885391.998    21885400.131
       232.000         186.000
  24346763.218    14490921.83149  11281813.40844  24346767.434    24346775.321
       197.000         116.000
  23594031.712    -5669872.85449  -4082621.84445  23594031.502    23594041.265
       218.000         155.000
 02  7  2 16 30  0.0000000  0 10G21G23G18G17G15G 6G29G26G10G22
  23935295.830    -6256663.89149  -4852800.28946  23935295.030    23935305.297
       224.000         165.000
  21263151.809     3014404.23249   2351565.18947  21263151.077    21263157.302
       243.000         208.000
  21345520.117   -12321743.99149  -9585457.89547  21345519.175    21345525.404
       244.000         197.000
  21015704.509    -6080416.93349  -4724213.59847  21015703.791    21015711.011
       237.000         201.000
  21304725.251    -9006241.21349  -6995697.17947  21304723.537    21304731.634
       232.000         192.000
  20377521.780    -1646744.30449  -1276605.57147  20377521.555    20377527.273
       239.000         203.000
  22539495.420    -6053013.28249  -4705608.68546  22539494.982    22539502.105
       228.000         178.000
  21881214.489    -9282945.23049  -7224539.75047  21881215.050    21881222.000
       236.000         189.000
  24366692.999    14595649.82349  11363419.54544  24366695.478    24366701.104
       199.000         122.000
  23590825.381    -5686721.91749  -4095750.98045  23590825.611    23590835.307
       220.000         156.000
 02  7  2 16 30 30.0000000  0 10G21G23G18G17G15G 6G29G26G10G22
  23919132.151    -6341604.43849  -4918987.62746  23919130.850    23919141.589
       224.000         165.000
  21273388.079     3068195.55549   2393480.50147  21273387.370    21273393.753
       244.000         209.000
  21333221.204   -12386375.46249  -9635820.04447  21333220.579    21333226.217
       246.000         197.000
  21010958.809    -6105356.04249  -4743646.65347  21010958.106    21010965.201
       237.000         202.000
  21296736.415    -9048222.60249  -7028409.96447  21296735.087    21296743.398
       232.000         190.000
  20382503.542    -1620565.46449  -1256206.49347  20382502.907    20382509.095
       239.000         202.000
  22539533.642    -6052812.21849  -4705451.98746  22539532.726    22539540.926
       229.000         179.000
  21877152.288    -9304293.59349  -7241174.80447  21877152.323    21877159.410
       235.000         191.000
  24386629.303    14700408.69349  11445049.75244  24386629.308    24386637.436
       201.000         122.000
  23587720.681    -5703037.97549  -4108464.79245  23587719.731    23587728.347
       219.000         155.000
 02  7  2 16 31  0.0000000  0 10G21G23G18G17G15G 6G29G26G10G22
  23903007.920    -6426336.03349  -4985012.15146  23903007.982    23903017.482
       224.000         167.000
  21283686.132     3122312.73749   2435649.71347  21283685.061    21283691.442
       242.000         208.000
  21320998.682   -12450605.48049  -9685869.37147  21320997.860    21321003.235
       245.000         198.000
  21006241.031    -6130147.76049  -4762964.86447  21006240.332    21006247.275
       238.000         202.000
  21288779.582    -9090035.33649  -7060991.29247  21288778.325    21288785.771
       233.000         190.000
  20387578.183    -1593898.20149  -1235426.82247  20387577.674    20387583.173
       240.000         202.000
  22539674.074    -6052074.07349  -4704876.80646  22539673.569    22539681.018
       230.000         181.000
  21873205.780    -9325032.71549  -7257335.12347  21873204.596    21873212.830
       233.000         189.000
  24406570.490    14805195.30349  11526701.58344  24406569.583    24406580.390
       201.000         119.000
  23584717.407    -5718822.19449  -4120764.18245  23584716.171    23584724.110
       219.000         154.000
 02  7  2 16 31 30.0000000  0 10G21G23G18G17G15G 6G29G26G10G22
  23886924.172    -6510856.52449  -5050872.15946  23886922.378    23886932.137
       223.000         167.000
  21294046.073     3176755.03249   2478072.26747  21294045.289    21294051.641
       243.000         208.000
  21308852.918   -12514432.09149  -9735604.33847  21308851.709    21308857.604
       245.000         198.000
  21001551.772    -6154790.63849  -4782167.08947  21001551.159    21001558.013
       239.000         202.000
  21280855.254    -9131677.91449  -7093440.01847  21280854.121    21280861.502
       236.000         191.000
  20392746.165    -1566741.01349  -1214265.40547  20392745.916    20392751.212
       240.000         203.000
  22539917.197    -6050796.77949  -4703881.49546  22539917.270    22539924.552
       234.000         182.000
  21869375.527    -9345159.75849  -7273018.50147  21869375.466    21869382.272
       235.000         188.000
  24426515.877    14910008.78648  11608374.35544  24426513.007    24426524.254
       191.000         115.000
  23581815.335    -5734073.19049  -4132648.07745  23581813.760    23581821.593
       218.000         153.000
 02  7  2 16 32  0.0000000  0 10G21G23G18G17G15G 6G29G26G10G22
  23870880.751    -6595164.77049  -5116566.78146  23870880.214    23870890.176
       221.000         167.000
  21304467.594     3231520.21649   2520746.41947  21304467.064    21304473.385
       244.000         208.000
  21296783.996   -12577854.21249  -9785024.14647  21296782.604    21296788.738
       243.000         198.000
  20996890.694    -6179284.80449  -4801253.43647  20996889.686    20996896.895
       239.000         202.000
  21272963.317    -9173150.37249  -7125756.16747  21272962.265    21272969.647
       237.000         192.000
  20398007.359    -1539093.70549  -1192722.07347  20398006.824    20398012.313
       241.000         203.000
  22540263.085    -6048980.08949  -4702465.87346  22540263.200    22540270.110
       235.000         184.000
  21865662.279    -9364673.47149  -7288223.93747  21865662.057    21865668.490
       237.000         188.000
  24446466.207    15014847.32849  11690066.63744                  24446464.735
       196.000         109.000
  23579014.444    -5748791.15049  -4144116.62645  23579012.170    23579021.142
       216.000         151.000
 02  7  2 16 32 30.0000000  0 10G21G23G18G17G15G 6G29G26G10G22
  23854877.560    -6679258.50749  -5182094.27046  23854875.134    23854886.984
       219.000         166.000
  21314950.393     3286607.06849   2563671.22647  21314949.847    21314956.138
       244.000         209.000
  21284792.275   -12640870.09149  -9834127.39847  21284791.535    21284797.512
       245.000         199.000
  20992258.020    -6203629.37549  -4820223.21247  20992257.023    20992264.163
       239.000         203.000
  21265103.957    -9214451.66749  -7157938.96147  21265103.145    21265110.110
       236.000         192.000
  20403361.920    -1510955.45549  -1170796.17847  20403361.597    20403367.086
       240.000         203.000
  22540711.821    -6046623.02549  -4700629.16646  22540711.120    22540717.718
       234.000         183.000
  21862066.366    -9383571.59849  -7302949.69147  21862066.286    21862072.917
       238.000         190.000
  24466421.424    15119709.51548  11771777.38644                  24466420.390
       193.000         108.000
  23576314.807    -5762975.34149  -4155169.23745  23576312.359    23576321.884
       212.000         149.000
 02  7  2 16 33  0.0000000  0 10G21G23G18G17G15G 6G29G26G10G22
  23838915.827    -6763137.64149  -5247454.53446  23838915.023    23838925.893
       222.000         167.000
  21325493.814     3342012.87949   2606844.56947  21325492.858    21325499.737
       243.000         209.000
  21272878.243   -12703479.44449  -9882913.86847  21272877.603    21272883.271
       246.000         201.000
  20987653.774    -6227824.62549  -4839076.63947  20987653.050    20987660.153
       239.000         203.000
  21257277.072    -9255582.25149  -7189988.72847  21257275.954    21257283.311
       235.000         192.000
  20408809.932    -1482326.64449  -1148488.03347  20408809.485    20408814.807
       240.000         204.000
  22541263.354    -6043725.16249  -4698371.05746  22541262.259    22541269.126
       231.000         180.000
  21858587.464    -9401853.09449  -7317194.97947  21858586.356    21858594.233
       233.000         189.000
  24486380.155    15224592.86149  11853504.62344                  24486377.753
       196.000         102.000
  23573716.622    -5776626.29149  -4165806.33545  23573716.636    23573724.153
       218.000         149.000
 02  7  2 16 33 30.0000000  0 10G21G23G18G17G15G 6G29G26G10G22
  23822995.037    -6846801.76049  -5312647.24246  23822994.844    23823005.248
       223.000         168.000
  21336097.290     3397734.79849   2650264.22447  21336096.368    21336103.399
       244.000         209.000
  21261041.460   -12765681.98149  -9931383.33147  21261040.448    21261046.147
       244.000         202.000
  20983077.868    -6251871.28249  -4857814.26547  20983076.868    20983083.811
       240.000         203.000
  21249482.649    -9296542.65449  -7221905.91047  21249481.740    21249488.461
       234.000         191.000
  20414351.091    -1453207.84049  -1125798.07947  20414350.849    20414355.892
       241.000         204.000
  22541917.442    -6040287.09749  -4695692.03346  22541916.766    22541922.830
       230.000         178.000
  21855225.733    -9419517.18249  -7330959.19246  21855224.573    21855232.460
       232.000         187.000
                  15329494.79549  11935246.26944
       195.000         106.000
  23571220.825    -5789744.62849  -4176028.44845  23571218.825    23571229.427
       214.000         149.000
 02  7  2 16 34  0.0000000  0 10G21G23G18G17G15G 6G29G26G10G22
  23807115.669    -6930249.60849  -5377671.44746  23807115.527    23807125.455
       226.000         169.000
  21346760.454     3453770.38749   2693928.29247  21346759.386    21346766.192
       243.000         208.000
  21249282.206   -12827476.67749  -9979535.00947  21249281.299    21249286.931
       246.000         202.000
  20978530.215    -6275769.24349  -4876436.02447  20978529.316    20978536.431
       239.000         203.000
  21241720.529    -9337333.11449  -7253690.65647  21241718.584    21241726.688
       232.000         190.000
  20419985.466    -1423598.95249  -1102726.23147  20419984.699    20419990.410
       241.000         204.000
  22542674.504    -6036308.58949  -4692591.87346  22542674.012    22542681.116
       230.000         177.000
  21851981.936    -9436562.90449  -7344241.54846  21851982.587    21851987.739
       235.000         186.000
                  15434413.28248  12017000.89144
       190.000         106.000
  23568825.595    -5802330.98449  -4185836.00145  23568823.513    23568834.629
       215.000         150.000
 02  7  2 16 34 30.0000000  0 10G21G23G18G17G15G 6G29G26G10G22
  23791277.796    -7013480.44449  -5442526.53146  23791277.192    23791285.939
       223.000         167.000
  21357482.903     3510117.27449   2737834.93847  21357482.543    21357488.840
       244.000         208.000
  21237600.765   -12888863.38049 -10027368.76147  21237600.215    21237605.545
       247.000         204.000
  20974010.730    -6299518.80949  -4894942.15447  20974009.585    20974016.964
       238.000         202.000
  21233990.434    -9377953.59749  -7285342.96947  21233989.575    21233996.731
       235.000         190.000
  20425712.944    -1393500.36749  -1079272.82047  20425712.294    20425718.128
       240.000         203.000
  22543534.381    -6031789.69749  -4689070.64446  22543533.127    22543540.783
       228.000         177.000
  21848856.412    -9452989.09749  -7357041.12446  21848855.932    21848861.833
       233.000         185.000
                  15539345.57948  12098766.25844
       183.000          99.000
  23566531.543    -5814385.55349  -4195229.18245  23566530.760    23566541.664
       217.000         152.000
 02  7  2 16 35  0.0000000  0 10G21G23G18G17G15G 6G29G26G10G22
  23775481.043    -7096492.48149  -5507211.11146  23775479.928    23775489.550
       218.000         164.000
  21368264.345     3566773.82449   2781982.88447  21368263.769    21368270.551
       244.000         208.000
  21225997.317   -12949840.57349 -10074883.41747  21225996.209    21226001.744
       246.000         205.000
  20969519.695    -6323119.30349  -4913332.12347  20969518.964    20969526.000
       238.000         202.000
  21226293.235    -9418403.43649  -7316862.27847  21226292.104    21226299.337
       235.000         191.000
  20431533.721    -1362911.49149  -1055437.35147  20431532.824    20431539.244
       239.000         202.000
  22544497.177    -6026729.42949  -4685127.55646  22544495.670    22544503.533
       227.000         176.000
  21845848.831    -9468793.80149  -7369356.44346  21845847.724    21845855.384
       231.000         184.000
                  15644290.39858  12180541.43743
       179.000          92.000
  23564339.656    -5825907.98249  -4204207.73645  23564340.447    23564347.521
       218.000         154.000
 02  7  2 16 35 30.0000000  0 10G21G23G18G17G15G 6G29G26G10G22
  23759726.234    -7179283.93149  -5571723.82046  23759725.744    23759735.642
       222.000         164.000
  21379104.433     3623738.44249   2826370.87947  21379103.784    21379110.721
       245.000         209.000
  21214471.814   -13010406.65649 -10122077.73547  21214470.418    21214476.411
       245.000         205.000
  20965057.071    -6346570.04049  -4931605.39647  20965055.834    20965063.031
       236.000         200.000
  21218628.431    -9458682.02149  -7348248.15347  21218627.070    21218634.223
       236.000         192.000
  20437447.887    -1331831.58149  -1031219.26847  20437447.100    20437453.949
       239.000         202.000
  22545563.162    -6021126.85049  -4680761.89646  22545562.092    22545568.789
       224.000         174.000
  21842959.657    -9483975.33349  -7381186.20646  21842959.164    21842966.020
       232.000         183.000
                  15749246.20548   -573203.70243
       178.000          74.000
  23562248.881    -5836897.90249  -4212771.34445  23562249.094    23562259.074
       216.000         155.000
 02  7  2 16 36  0.0000000  0 10G21G23G18G17G15G 6G29G26G10G22
  23744013.790    -7261853.68149  -5636063.78246  23744013.412    23744022.077
       222.000         164.000
  21390002.743     3681009.12349   2870997.36547  21390001.750    21390009.137
       244.000         208.000
  21203024.673   -13070560.93949 -10168951.16647  21203024.372    21203029.477
       247.000         206.000
  20960622.883    -6369870.67749  -4949761.71747  20960622.323    20960629.161
       236.000         198.000
  21210996.266    -9498788.92849  -7379500.25647  21210995.134    21211002.038
       237.000         193.000
  20443455.596    -1300260.48649  -1006618.44047  20443454.881    20443461.598
       239.000         201.000
  22546732.127    -6014981.44349  -4675973.26046  22546731.013    22546738.374
       225.000         172.000
  21840189.568    -9498532.24449  -7392529.22646  21840189.441    21840195.989
       233.000         184.000
                  15854211.65348   -491365.28943
       182.000          74.000
  23560259.027    -5847355.31949  -4220919.98145  23560255.984    23560270.750
       214.000         156.000
 02  7  2 16 36 30.0000000  0 10G21G23G18G17G15G 6G29G26G10G22
  23728343.220    -7344202.68249  -5700231.74546  23728340.772    23728351.928
       221.000         165.000
  21400958.583     3738582.35349   2915859.58847  21400957.695    21400964.337
       243.000         207.000
  21191656.142   -13130303.84549 -10215504.02547  21191655.162    21191661.096
       247.000         207.000
  20956217.351    -6393022.44149  -4967802.02847  20956216.213    20956223.811
       235.000         198.000
  21203396.480    -9538725.44149  -7410619.57747  21203395.425    21203403.084
       237.000         194.000
  20449556.391    -1268199.63449   -981635.98047  20449555.687    20449562.577
       238.000         200.000
  22548004.653    -6008294.63849  -4670762.71746  22548004.681    22548010.710
       229.000         174.000
  21837538.335    -9512464.76149  -7403385.68246  21837538.617    21837544.746
       234.000         184.000
                  15959183.29048   -409514.88643
       186.000          74.000
  23558369.540    -5857281.90749  -4228654.98245  23558366.992    23558377.710
       216.000         153.000
 02  7  2 16 37  0.0000000  0 10G21G23G18G17G15G 6G29G26G10G22
  23712714.912    -7426329.68149  -5764226.68846  23712714.779    23712723.766
       224.000         165.000
  21411971.467     3796455.85149   2960955.79547  21411970.421    21411976.991
       243.000         206.000
  21180365.788   -13189634.69749 -10261735.83647  21180364.829    21180370.979
       246.000         208.000
  20951839.947    -6416025.48749  -4985726.46547  20951839.064    20951846.260
       235.000         197.000
  21195829.267    -9578491.51649  -7441606.10947  21195828.663    21195835.758
       239.000         196.000
  20455750.507    -1235649.16449   -956272.01147  20455750.269    20455755.871
       239.000         199.000
  22549380.320    -6001066.20749  -4665130.14146  22549380.039    22549386.789
       231.000         177.000
  21835006.111    -9525771.70549  -7413754.69846  21835005.700    21835011.824
       230.000         183.000
                  16064158.79248   -577392.27943
       181.000          74.000
  23556581.571    -5866678.11749  -4235976.74845  23556580.079    23556588.348
       216.000         150.000
 02  7  2 16 37 30.0000000  0 10G21G23G18G17G15G 6G29G26G10G22
  23697129.451    -7508232.68749  -5828047.10446  23697128.719    23697138.208
       224.000         166.000
  21423041.360     3854628.22649   3006284.89447  21423040.857    21423046.925
       244.000         205.000
  21169154.181   -13248551.90049 -10307645.31447  21169153.340    21169159.304
       246.000         208.000
  20947491.221    -6438878.73949  -5003534.17447  20947490.604    20947497.333
       236.000         197.000
  21188294.759    -9618086.18749  -7472459.07847  21188293.889    21188301.320
       240.000         198.000
  20462038.106    -1202608.39949   -930525.99347  20462037.906    20462043.571
       240.000         199.000
  22550859.322    -5993295.17949  -4659074.75546  22550858.945    22550865.437
       231.000         179.000
  21832593.105    -9538451.20449  -7423634.79746  21832592.521    21832599.259
       227.000         180.000
                  16169137.16658   -495707.09643
       176.000          74.000
  23554894.251    -5875543.46449  -4242884.81745  23554890.808    23554903.208
       214.000         150.000
 02  7  2 16 38  0.0000000  0 10G21G23G18G17G15G 6G29G26G10G22
  23681586.771    -7589909.32449  -5891691.13646  23681585.020    23681595.792
       221.000         165.000
  21434167.966     3913098.47449   3051846.11147  21434166.725    21434173.169
       241.000         204.000
  21158021.708   -13307053.45749 -10353230.90847  21158020.847    21158026.145
       247.000         208.000
  20943171.234    -6461580.74049  -5021224.02747  20943170.505    20943177.638
       236.000         198.000
  21180793.141    -9657508.03149  -7503177.38447  21180792.303    21180799.384
       241.000         200.000
  20468419.290    -1169075.98549   -904396.88047  20468419.348    20468424.826
       241.000         199.000
  22552441.796    -5984980.03949  -4652595.40346  22552441.430    22552447.982
       230.000         181.000
  21830299.956    -9550500.81149  -7433024.09946  21830299.318    21830306.883
       228.000         180.000
                  16274117.71848   -414052.17543
       179.000          74.000
  23553307.973    -5883876.82549  -4249378.35945  23553307.844    23553317.038
       219.000         149.000
 02  7  2 16 38 30.0000000  0 10G21G23G18G17G15G 6G29G26G10G22
  23666086.571    -7671362.00049  -5955160.64746  23666085.630    23666095.493
       222.000         165.000
  21445349.979     3971860.98149   3097635.04847  21445349.044    21445355.881
       241.000         202.000
  21146967.797   -13365142.02549 -10398494.68747  21146966.869    21146971.955
       246.000         208.000
  20938879.302    -6484134.93849  -5038798.71747  20938878.946    20938885.036
       237.000         199.000
  21173323.857    -9696760.25449  -7533763.51047  21173322.584    21173329.536
       241.000         201.000
  20474893.308    -1135055.63049   -877887.54447  20474892.947    20474898.578
       241.000         199.000
  22554126.981    -5976124.14049  -4645694.71146  22554127.013    22554133.685
       229.000         181.000
  21828126.254    -9561922.96349  -7441924.47046  21828126.453    21828132.882
       230.000         181.000
                  16379095.40448   -581300.48343
       178.000          74.000
  23551823.034    -5891682.15849  -4255460.49145  23551823.032    23551828.901
       218.000         151.000
 02  7  2 16 39  0.0000000  0 10G21G23G18G17G15G 6G29G26G10G22
  23650629.551    -7752589.54849  -6018454.75746  23650628.750    23650637.915
       221.000         164.000
  21456587.385     4030913.82049   3143650.21547  21456586.704    21456593.198
       241.000         202.000
  21135992.677   -13422816.58849 -10443435.87447  21135991.617    21135997.333
       246.000         208.000
  20934615.688    -6506540.97149  -5056257.95447  20934615.297    20934621.399
       238.000         200.000
  21165886.649    -9735842.62249  -7564217.29547  21165885.482    21165892.940
       242.000         201.000
  20481460.092    -1100547.11649   -850997.82047  20481459.661    20481465.312
       242.000         199.000
  22555915.051    -5966727.05349  -4638372.31046  22555914.226    22555922.704
       227.000         180.000
  21826072.527    -9572716.24249  -7450334.79446  21826072.125    21826078.514
       230.000         182.000
                  16484068.32148   -499468.32543
       177.000          74.000
  23550438.283    -5898959.45249  -4261131.13945  23550435.623    23550444.727
       214.000         153.000
 02  7  2 16 39 30.0000000  0  9G21G23G18G17G15G 6G29G26G22
  23635216.573    -7833584.44449  -6081567.57646  23635215.311    23635224.612
       221.000         163.000
  21467880.790     4090261.24549   3189894.95147  21467879.646    21467886.248
       239.000         201.000
  21125097.658   -13480070.07649 -10488048.95147  21125096.980    21125102.900
       245.000         209.000
  20930381.495    -6528792.22849  -5073596.57047  20930380.549    20930387.942
       237.000         201.000
  21158483.209    -9774748.67049  -7594533.67947  21158481.868    21158489.232
       240.000         200.000
  20488120.911    -1065544.25649   -823722.89947  20488120.359    20488126.173
       242.000         199.000
  22557807.400    -5956782.50249  -4630623.31646  22557807.115    22557813.817
       227.000         179.000
  21824139.635    -9582873.43949  -7458249.48146  21824138.793    21824146.770
       228.000         181.000
  23549154.549    -5905702.82549  -4266385.71945  23549153.380    23549162.244
       214.000         153.000
 02  7  2 16 40  0.0000000  0  9G21G23G18G17G15G 6G29G26G22
  23619847.366    -7914350.05249  -6144501.72646  23619845.521    23619855.407
       219.000         163.000
  21479229.129     4149896.88149   3236364.25147  21479228.739    21479234.845
       240.000         200.000
  21114282.138   -13536905.88549 -10532336.55947  21114281.487    21114287.238
       246.000         210.000
  20926175.833    -6550892.70349  -5090817.71347  20926175.240    20926181.776
       237.000         201.000
  21151112.230    -9813482.08949  -7624715.53647  21151110.751    21151118.447
       240.000         200.000
  20494875.054    -1030051.33449   -796066.11647  20494874.983    20494880.235
       243.000         199.000
  22559803.035    -5946294.24849  -4622450.64446  22559802.384    22559810.476
       227.000         178.000
  21822326.793    -9592397.47549  -7465670.80846  21822325.948    21822333.445
       229.000         179.000
  23547972.364    -5911916.66449  -4271227.74845  23547973.307    23547981.838
       218.000         154.000
 02  7  2 16 40 30.0000000  0  9G21G23G18G17G15G 6G29G26G22
  23604521.325    -7994887.13849  -6207257.84945  23604520.670    23604530.456
       215.000         162.000
  21490631.639     4209817.03649   3283055.27147  21490630.236    21490637.390
       239.000         201.000
  21103545.979   -13593324.95849 -10576299.44347  21103544.840    21103550.887
       244.000         209.000
  20921998.907    -6572843.37949  -5107922.12247  20921998.112    20922004.649
       237.000         201.000
  21143773.968    -9852044.24949  -7654763.95747  21143772.881    21143779.937
       241.000         199.000
  20501722.162     -994069.97949   -768028.72747  20501721.613    20501726.870
       243.000         199.000
  22561901.971    -5935264.03549  -4613855.66246  22561900.691    22561908.868
       225.000         176.000
  21820634.692    -9601288.91649  -7472599.20046  21820634.699    21820640.978
       231.000         179.000
  23546891.270    -5917602.95249  -4275658.69745  23546890.577    23546899.846
       212.000         153.000
 02  7  2 16 41  0.0000000  0  9G21G23G18G17G15G 6G29G26G22
  23589238.998    -8075192.86749  -6269833.64145  23589238.480    23589248.759
       221.000         162.000
  21502087.903     4270021.02749   3329967.45047  21502087.015    21502093.937
       238.000         201.000
  21092889.401   -13649325.27149 -10619936.02047  21092888.747    21092894.070
       246.000         210.000
  20917850.550    -6594643.27549  -5124909.04147  20917849.584    20917856.370
       236.000         201.000
  21136468.680    -9890433.89849  -7684677.94347  21136467.838    21136474.776
       242.000         199.000
  20508662.478     -957598.86149   -739609.71247  20508661.809    20508667.439
       244.000         199.000
  22564104.166    -5923690.47049  -4604837.28946  22564102.997    22564111.352
       224.000         175.000
  21819063.575    -9609545.61349  -7479032.96146  21819063.996    21819070.773
       232.000         181.000
  23545908.868    -5922761.01849  -4279677.98145  23545904.589    23545917.824
       203.000         150.000
 02  7  2 16 41 30.0000000  0  9G21G23G18G17G15G 6G29G26G22
  23574002.277    -8155265.64349  -6332227.91346  23574000.899    23574011.404
       220.000         165.000
  21513598.215     4330507.27849   3377099.57847  21513597.846    21513603.725
       239.000         201.000
  21082312.783   -13704905.52049 -10663245.27047  21082312.129    21082317.514
       246.000         210.000
  20913731.032    -6616291.32849  -5141777.64547  20913730.226    20913736.851
       238.000         200.000
  21129196.419    -9928649.81849  -7714456.55847  21129195.532    21129202.493
       241.000         199.000
  20515696.037     -920637.52149   -710808.70347  20515695.809    20515700.898
       244.000         200.000
  22566409.988    -5911572.75349  -4595394.92446  22566408.790    22566417.605
       220.000         173.000
  21817613.752    -9617165.87349  -7484970.80646  21817613.750    21817620.348
       233.000         181.000
  23545026.915    -5927390.57149  -4283285.42945  23545024.639    23545035.195
       212.000         150.000
 02  7  2 16 42  0.0000000  0  9G21G23G18G17G15G 6G29G26G22
  23558809.029    -8235107.65049  -6394442.37546  23558806.757    23558817.731
       220.000         166.000
  21525161.190     4391270.53549   3424447.57547  21525160.122    21525167.156
       238.000         201.000
  21071815.764   -13760068.09449 -10706229.06847  21071814.806    21071820.379
       245.000         210.000
  20909639.953    -6637790.26149  -5158530.04947  20909639.018    20909645.677
       237.000         200.000
  21121956.708    -9966694.88249  -7744102.04747  21121955.964    21121962.399
       242.000         199.000
  20522822.266     -883189.37349   -681628.37447  20522821.876    20522827.312
       244.000         200.000
  22568818.717    -5898913.90849  -4585530.89346  22568818.372    22568825.624
       222.000         171.000
  21816284.442    -9624151.88649  -7490414.44446  21816283.451    21816290.680
       231.000         180.000
  23544246.556    -5931494.79349  -4286483.56845  23544247.756    23544253.360
       218.000         153.000
 02  7  2 16 42 30.0000000  0  9G21G23G18G17G15G 6G29G26G22
  23543659.447    -8314717.56049  -6456475.97146  23543657.135    23543668.472
       217.000         165.000
  21536776.367     4452309.11349   3472010.08047  21536775.461    21536782.706
       237.000         201.000
  21061398.256   -13814811.66949 -10748886.36347  21061397.078    21061402.805
       244.000         209.000
  20905577.186    -6659139.47849  -5175165.79347  20905575.931    20905582.827
       237.000         199.000
  21114749.767   -10004568.52949  -7773613.95647  21114749.223    21114756.071
       243.000         200.000
  20530041.051     -845254.12749   -652068.49547  20530040.399    20530046.058
       243.000         200.000
  22571330.741    -5885713.57749  -4575244.93546  22571331.203    22571338.388
       224.000         172.000
  21815075.962    -9630502.22749  -7495362.75546  21815076.067    21815082.419
       232.000         179.000
  23543566.036    -5935074.09649  -4289272.66945  23543565.219    23543572.447
       221.000         156.000
 02  7  2 16 43  0.0000000  0  9G21G23G18G17G15G 6G29G26G22
  23528554.503    -8394092.43249  -6518326.44346  23528553.501    23528563.065
       221.000         166.000
  21548443.812     4513622.63449   3519786.83347  21548442.694    21548449.426
       237.000         200.000
  21051061.093   -13869133.79249 -10791215.25747  21051060.654    21051065.608
       246.000         210.000
  20901543.309    -6680336.92149  -5191683.27747  20901542.103    20901549.292
       237.000         199.000
  21107575.740   -10042268.70549  -7802990.69247  21107574.680    21107581.542
       242.000         201.000
  20537352.850     -806830.17649   -622127.80647  20537352.517    20537358.253
       244.000         200.000
  22573946.486    -5871969.99249  -4564535.62746  22573946.952    22573952.859
       226.000         175.000
  21813989.021    -9636214.47549  -7499813.84646  21813989.140    21813994.682
       235.000         180.000
  23542984.982    -5938127.09649  -4291651.64245  23542985.091    23542993.249
       221.000         156.000
 02  7  2 16 43 30.0000000  0  9G21G23G18G17G15G 6G29G26G22
  23513494.657    -8473232.57049  -6579993.99446  23513493.727    23513502.003
       223.000         167.000
  21560163.184     4575207.95249   3567775.38647  21560162.570    21560168.984
       239.000         201.000
  21040804.136   -13923035.14849 -10833216.27847  21040803.345    21040808.748
       246.000         211.000
  20897538.335    -6701383.38549  -5208083.12447  20897537.686    20897544.297
       237.000         199.000
  21100434.392   -10079796.14749  -7832232.82947  21100433.204    21100440.285
       242.000         200.000
  20544757.386     -767918.90749   -591807.37747  20544757.241    20544763.190
       244.000         201.000
  22576665.145    -5857684.24949  -4553403.85646  22576665.020    22576671.598
       224.000         175.000
  21813023.665    -9641288.66949  -7503767.72646  21813024.018    21813029.423
       237.000         182.000
  23542503.872    -5940655.34949  -4293621.72445  23542502.035    23542510.342
       217.000         156.000
 02  7  2 16 44  0.0000000  0  9G21G23G18G17G15G 6G29G26G22
  23498480.088    -8552135.60249  -6641476.78246  23498478.592    23498488.149
       221.000         166.000
  21571934.212     4637064.16649   3615975.01647  21571933.531    21571940.595
       239.000         202.000
  21030627.457   -13976513.58349 -10874887.76247  21030626.260    21030632.150
       245.000         211.000
  20893562.374    -6722277.27549  -5224364.07047  20893561.358    20893567.875
       237.000         199.000
  21093326.395   -10117149.27349  -7861339.14247  21093325.035    21093332.276
       242.000         200.000
  20552255.016     -728519.23649   -561106.37847  20552254.510    20552260.609
       243.000         202.000
  22579487.119    -5842855.02149  -4541848.58946  22579485.647    22579492.809
       224.000         174.000
  21812180.087    -9645722.62349  -7507222.74646  21812179.922    21812186.296
       235.000         184.000
  23542122.566    -5942658.01249  -4295182.23245  23542121.718    23542130.377
       218.000         154.000
 02  7  2 16 44 30.0000000  0  9G21G23G18G17G15G 6G29G26G22
  23483510.291    -8630801.60049  -6702774.87046  23483508.725    23483518.769
       224.000         169.000
  21583756.052     4699188.11849   3664383.28347  21583755.277    21583761.844
       241.000         203.000
  21020531.186   -14029569.54649 -10916230.04947  21020530.360    21020535.875
       246.000         211.000
  20889615.106    -6743019.51049  -5240526.84747  20889614.321    20889621.333
       238.000         199.000
  21086251.293   -10154328.80449  -7890310.18247  21086249.753    21086256.896
       241.000         200.000
  20559845.232     -688632.43649   -530025.79647  20559844.716    20559850.491
       245.000         201.000
  22582411.935    -5827483.53949  -4529870.82046  22582410.812    22582418.207
       222.000         172.000
  21811458.031    -9649516.72949  -7510179.18946  21811458.082    21811464.381
       234.000         185.000
  23541841.542    -5944136.85049  -4296334.59345  23541840.993    23541847.476
       219.000         152.000
 02  7  2 16 45  0.0000000  0  9G21G23G18G17G15G 6G29G26G22
  23468585.948    -8709229.23949  -6763887.23246  23468584.697    23468595.144
       225.000         171.000
  21595628.441     4761577.83449   3712998.62947  21595627.508    21595633.971
       239.000         202.000
  21010515.448   -14082202.47449 -10957242.67647  21010514.713    21010519.999
       246.000         212.000
  20885696.992    -6763609.54749  -5256571.01947  20885696.243    20885702.485
       239.000         199.000
  21079209.234   -10191334.25149  -7919145.57347  21079208.408    21079215.226
       242.000         200.000
  20567528.116     -648258.57249   -498565.68347  20567527.167    20567533.247
       243.000         200.000
  22585440.065    -5811569.69649  -4517470.41946  22585438.596    22585446.592
       222.000         173.000
  21810857.891    -9652670.14149  -7512636.38746  21810857.388    21810863.600
       235.000         185.000
  23541659.734    -5945092.33649  -4297079.13445  23541657.340    23541666.423
       213.000         151.000
 02  7  2 16 45 30.0000000  0  9G21G23G18G17G15G 6G29G26G22
  23453707.042    -8787417.22349  -6824812.85546  23453705.308    23453715.734
       224.000         171.000
  21607551.070     4824231.68749   3761819.79347  21607550.194    21607557.158
       239.000         201.000
  21000580.509   -14134411.06949 -10997924.66047  21000579.351    21000585.248
       245.000         212.000
  20881807.993    -6784046.46949  -5272495.89447  20881807.246    20881813.823
       239.000         199.000
  21072200.736   -10228164.76849  -7947844.65147  21072199.200    21072206.686
       241.000         200.000
  20575303.734     -607397.39849   -466725.85847  20575303.034    20575309.423
       243.000         200.000
  22588571.441    -5795113.12249  -4504647.11946  22588571.397    22588579.481
       225.000         177.000
  21810379.906    -9655181.50849  -7514593.27746  21810380.118    21810385.543
       236.000         185.000
  23541577.105    -5945524.33549  -4297415.77545  23541575.436    23541585.925
       215.000         150.000
 02  7  2 16 46  0.0000000  0  9G21G23G18G17G15G 6G29G26G22
  23438874.152    -8865365.36949  -6885551.57446  23438873.466    23438882.176
       227.000         170.000
  21619523.320     4887147.00049   3810844.68047  21619522.586    21619529.007
       240.000         201.000
  20990726.225   -14186195.23349 -11038275.93547  20990725.413    20990730.873
       246.000         212.000
  20877948.079    -6804330.63949  -5288301.73047  20877947.208    20877954.031
       239.000         199.000
  21065225.153   -10264820.80349  -7976407.76947  21065223.629    21065230.652
       241.000         200.000
  20583171.891     -566049.89549   -434507.05647  20583171.117    20583177.890
       243.000         200.000
  22591806.277    -5778114.48749  -4491401.43546  22591806.158    22591814.111
       227.000         180.000
  21810024.308    -9657050.67049  -7516049.73046  21810024.774    21810030.252
       238.000         186.000
  23541594.326    -5945434.12149  -4297345.50645  23541592.075    23541602.402
       214.000         150.000
 02  7  2 16 46 30.0000000  0  9G21G23G18G17G15G 6G29G26G22
  23424086.892    -8943073.88749  -6946103.57846  23424086.532    23424094.275
       225.000         170.000
  21631544.970     4950320.33749   3860070.64547  21631544.204    21631550.172
       240.000         200.000
  20980952.650   -14237555.64049 -11078296.99448  20980951.879    20980957.380
       246.000         213.000
  20874117.088    -6824462.97449  -5303989.24947  20874116.250    20874122.621
       240.000         199.000
  21058282.724   -10301303.26749  -8004835.64047  21058281.875    21058288.129
       243.000         201.000
  20591132.295     -524217.56349   -401910.47047  20591131.746    20591138.049
       243.000         200.000
  22595144.082    -5760575.24949  -4477734.50546  22595144.077    22595151.779
       228.000         183.000
  21809790.826    -9658278.31349  -7517006.30846  21809790.216    21809797.221
       233.000         187.000
  23541710.812    -5944823.58649  -4296869.80145  23541711.063    23541719.826
       214.000         150.000
 02  7  2 16 47  0.0000000  0  9G21G23G18G17G15G 6G29G26G22
  23409345.322    -9020541.28149  -7006467.71246  23409345.497    23409353.163
       226.000         171.000
  21643615.313     5013750.46149   3909496.69447  21643614.597    21643620.832
       240.000         200.000
  20971259.920   -14288491.32449 -11117987.10748  20971258.960    20971264.102
       246.000         213.000
  20870315.095    -6844442.58749  -5319557.77247  20870314.072    20870320.556
       239.000         199.000
  21051373.599   -10337611.41449  -8033127.67547  21051372.858    21051379.901
       243.000         202.000
  20599185.022     -481900.19149   -368935.94347  20599184.471    20599190.911
       241.000         200.000
  22598584.730    -5742494.81749  -4463645.86946  22598584.376    22598591.601
       228.000         183.000
  21809679.455    -9658863.06749  -7517461.95146  21809678.993    21809686.090
       234.000         187.000
  23541926.356    -5943692.90249  -4295988.80245  23541926.823    23541934.908
       214.000         149.000
 02  7  2 16 47 30.0000000  0  9G21G23G18G17G15G 6G29G26G22
  23394649.602    -9097767.62849  -7066644.00946  23394647.722    23394656.993
       224.000         171.000
  21655733.963     5077434.20049   3959120.35947  21655733.618    21655740.023
       241.000         201.000
  20961647.980   -14339002.48349 -11157346.41548  20961647.104    20961652.654
       245.000         213.000
  20866542.095    -6864269.81649  -5335007.55347  20866541.424    20866547.355
       239.000         198.000
  21044497.454   -10373745.82349  -8061284.33547  21044496.548    21044503.592
       243.000         202.000
  20607329.789     -439098.97749   -335584.39247  20607329.563    20607335.932
       243.000         200.000
  22602128.104    -5723874.54649  -4449136.58046  22602128.102    22602134.750
       228.000         182.000
  21809690.511    -9658805.21749  -7517416.85747  21809690.745    21809696.867
       236.000         189.000
  23542240.305    -5942043.52549  -4294703.59845  23542237.798    23542246.930
       209.000         148.000
 02  7  2 16 48  0.0000000  0  9G21G23G18G17G15G 6G29G26G22
  23380000.641    -9174748.35449  -7126628.91646  23379999.503    23380008.964
       225.000         171.000
  21667901.164     5141372.79649   4008942.61547  21667900.275    21667906.790
       238.000         200.000
  20952117.495   -14389085.20849 -11196371.88248  20952116.402    20952122.382
       246.000         213.000
  20862798.822    -6883941.25749  -5350335.93147  20862797.736    20862803.994
       239.000         198.000
  21037655.188   -10409702.68849  -8089302.65247  21037654.115    21037660.835
       242.000         201.000
  20615567.440     -395810.86549   -301853.44547  20615567.110    20615573.578
       243.000         201.000
  22605774.919    -5704711.19149  -4434204.10246  22605774.868    22605782.106
       230.000         181.000
  21809824.666    -9658100.96149  -7516868.06447  21809824.213    21809831.400
       235.000         191.000
  23542652.786    -5939872.95649  -4293012.26545  23542650.822    23542660.988
       213.000         148.000
 02  7  2 16 48 30.0000000  0  9G21G23G18G17G15G 6G29G26G22
  23365397.825    -9251485.71049  -7186424.19346  23365396.253    23365406.585
       223.000         171.000
  21680115.759     5205560.95049   4058959.33447  21680114.899    21680121.350
       238.000         199.000
  20942667.995   -14438742.32049 -11235065.70248  20942666.943    20942672.948
       246.000         214.000
  20859084.542    -6903459.60049  -5365545.01447  20859083.697    20859089.776
       238.000         198.000
  21030846.103   -10445484.79149  -8117184.79147  21030845.049    21030851.502
       242.000         201.000
  20623896.826     -352039.61549   -267746.00747  20623896.154    20623902.795
       243.000         201.000
  22609524.500    -5685008.31049  -4418851.20246  22609523.832    22609529.948
       229.000         179.000
  21810081.278    -9656752.91449  -7515817.61847  21810081.195    21810087.577
       235.000         191.000
  23543164.723    -5937184.84649  -4290917.65745  23543163.767    23543173.262
       216.000         151.000
 02  7  2 16 49  0.0000000  0  9G21G23G18G17G15G 6G29G26G22
  23350841.553    -9327978.52349  -7246028.90346  23350839.650    23350850.557
       220.000         170.000
  21692377.453     5269996.89449   4109169.13647  21692376.230    21692383.544
       237.000         199.000
  20933299.592   -14487973.04249 -11273427.27148  20933298.519    20933304.394
       245.000         214.000
  20855399.534    -6922824.33449  -5380634.41547  20855398.828    20855404.911
       239.000         197.000
  21024070.288   -10481091.53149  -8144930.28247  21024068.900    21024076.281
       240.000         201.000
  20632318.074     -307785.40149   -233262.23747  20632317.264    20632323.208
       242.000         200.000
  22613376.468    -5664765.81149  -4403077.82546  22613376.165    22613383.416
       229.000         178.000
  21810460.407    -9654760.27649  -7514264.88347  21810459.983    21810466.819
       234.000         189.000
  23543774.751    -5933979.84949  -4288420.26945  23543773.545    23543783.058
       217.000         154.000
 02  7  2 16 49 30.0000000  0  9G21G23G18G17G15G 6G29G26G22
  23336331.896    -9404225.54549  -7305442.11446  23336329.875    23336340.737
       221.000         169.000
  21704685.971     5334679.39749   4159571.05147  21704685.379    21704692.004
       238.000         199.000
  20924012.646   -14536775.92949 -11311455.46448  20924011.548    20924017.222
       245.000         213.000
  20851744.064    -6942034.16049  -5395603.10447  20851743.219    20851749.713
       239.000         197.000
  21017328.090   -10516521.63049  -8172538.13647  21017326.747    21017334.050
       241.000         200.000
  20640831.237     -263047.67549   -198401.72447  20640830.560    20640836.888
       242.000         201.000
  22617331.444    -5643983.16549  -4386883.54546  22617331.237    22617336.353
       229.000         176.000
  21810962.464    -9652121.57849  -7512208.73446  21810961.476    21810968.709
       230.000         187.000
  23544482.736    -5930257.82949  -4285520.00345  23544481.385    23544492.148
       219.000         155.000
 02  7  2 16 50  0.0000000  0  9G21G23G18G17G15G 6G29G26G22
  23321869.646    -9480225.24449  -7364662.59246  23321868.307    23321879.020
       221.000         169.000
  21717041.251     5399606.70249   4210163.73147  21717040.606    21717047.310
       239.000         200.000
  20914807.260   -14585150.16749 -11349149.65248  20914806.511    20914811.943
       246.000         213.000
  20848118.180    -6961088.38049  -5410450.54547  20848117.079    20848123.714
       237.000         197.000
  21010619.682   -10551774.46549  -8200007.86847  21010618.651    21010625.341
       240.000         201.000
  20649436.462     -217826.44149   -163164.44447  20649435.863    20649442.585
       241.000         200.000
  22621389.113    -5622660.38849  -4370268.38646  22621388.599    22621395.386
       229.000         175.000
  21811587.354    -9648836.09049  -7509648.60846  21811586.843    21811594.193
       230.000         185.000
  23545289.158    -5926019.35649  -4282217.33345  23545288.996    23545297.962
       221.000         156.000
 02  7  2 16 50 30.0000000  0  9G21G23G18G17G15G 6G29G26G22
  23307454.193    -9555978.53349  -7423691.03146  23307451.977    23307462.289
       217.000         168.000
  21729442.453     5464774.63549   4260943.92047  21729442.120    21729448.315
       241.000         201.000
  20905683.279   -14633097.36149 -11386511.07948  20905682.627    20905688.287
       246.000         214.000
  20844521.490    -6979988.65849  -5425178.03047  20844520.319    20844526.950
       238.000         196.000
  21003944.630   -10586851.62649  -8227340.70947  21003943.143    21003950.668
       240.000         201.000
  20658133.279     -172124.18649   -127552.33047  20658133.022    20658139.471
       243.000         200.000
  22625549.081    -5600799.73549  -4353234.12446  22625547.200    22625555.456
       227.000         174.000
  21812335.128    -9644905.41449  -7506585.72546  21812335.215    21812342.128
       232.000         186.000
  23546193.875    -5921266.98749  -4278514.20945  23546193.979    23546204.366
       219.000         156.000
 02  7  2 16 51  0.0000000  0  9G21G23G18G17G15G 6G29G26G22
  23293085.425    -9631483.14449  -7482525.71846  23293083.884    23293094.937
       218.000         166.000
  21741889.421     5530183.04949   4311911.48547  21741888.514    21741895.062
       241.000         203.000
  20896640.965   -14680615.03349 -11423537.82148  20896639.957    20896645.610
       245.000         213.000
  20840954.527    -6998732.72049  -5439783.78147  20840953.628    20840959.811
       238.000         195.000
  20997303.413   -10621750.99249  -8254535.00247  20997302.140    20997308.987
       240.000         200.000
  20666922.106     -125939.79549    -91564.53847  20666922.307    20666927.680
       244.000         202.000
  22629811.475    -5578399.82149  -4335779.65446  22629810.848    22629817.180
       228.000         175.000
  21813206.224    -9640327.27749  -7503018.31746  21813205.992    21813212.900
       232.000         186.000
  23547196.309    -5915999.80249  -4274409.93345  23547194.986    23547204.559
       217.000         154.000
 02  7  2 16 51 30.0000000  0  9G21G23G18G17G15G 6G29G26G22
  23278764.741    -9706739.16049  -7541166.70246  23278764.477    23278773.942
       220.000         167.000
  21754381.370     5595828.76649   4363063.96547  21754380.656    21754387.376
       241.000         204.000
  20887680.148   -14727704.00749 -11460230.51148  20887679.281    20887684.520
       244.000         213.000
  20837417.231    -7017321.17149  -5454268.28647  20837416.377    20837422.658
       237.000         195.000
  20990695.876   -10656473.23049  -8281591.27947  20990694.984    20990701.468
       240.000         200.000
  20675802.434      -79274.72249    -55202.19447  20675802.700    20675807.899
       245.000         202.000
  22634176.240    -5555462.04049  -4317906.06846  22634175.466    22634183.276
       229.000         177.000
  21814200.434    -9635102.37949  -7498946.96846  21814200.163    21814206.574
       231.000         186.000
  23548296.321    -5910219.87849  -4269906.11845  23548294.955    23548305.532
       217.000         152.000
 02  7  2 16 52  0.0000000  0  9G21G23G18G17G15G 6G29G26G22
  23264491.559    -9781745.89649  -7599613.45246  23264491.118    23264500.367
       218.000         168.000
  21766918.136     5661709.28549   4414399.39347  21766917.167    21766924.178
       241.000         204.000
  20878800.994   -14774364.32049 -11496589.17347  20878800.117    20878805.541
       244.000         212.000
  20833909.589    -7035754.20049  -5468631.68347  20833908.475    20833915.291
       237.000         195.000
  20984122.143   -10691018.60149  -8308509.73347  20984121.135    20984127.675
       240.000         200.000
  20684773.896      -32130.06549    -18466.14647  20684773.090    20684779.364
       242.000         202.000
  22638643.300    -5531987.28049  -4299614.06146  22638642.764    22638649.401
       230.000         179.000
  21815317.747    -9629231.02549  -7494371.86946  21815317.310    21815323.837
       233.000         184.000
  23549493.652    -5903928.48749  -4265003.74545  23549493.105    23549503.943
       215.000         150.000
 02  7  2 16 52 30.0000000  0  9G21G23G18G17G15G 6G29G26G22
  23250265.490    -9856502.38249  -7657865.20946  23250264.917    23250274.394
       219.000         167.000
  21779499.161     5727823.03849   4465916.56747  21779498.407    21779505.414
       242.000         205.000
  20870003.582   -14820594.98349 -11532613.03747  20870002.888    20870008.245
       244.000         212.000
  20830431.510    -7054030.88349  -5482873.24147  20830430.253    20830436.537
       236.000         194.000
  20977582.102   -10725386.05749  -8335289.54947  20977580.713    20977587.847
       239.000         200.000
  20693836.486       15494.43349     18643.81047  20693835.995    20693842.228
       244.000         203.000
  22643212.641    -5507975.47849  -4280903.55746  22643211.841    22643218.870
       230.000         180.000
  21816558.300    -9622712.14049  -7489292.19946  21816558.511    21816564.290
       235.000         184.000
  23550788.114    -5897125.93749  -4259703.08845  23550787.219    23550796.435
       215.000         147.000
 02  7  2 16 53  0.0000000  0  9G21G23G18G17G15G 6G29G26G22
  23236087.508    -9931009.23749  -7715922.43946  23236087.102    23236096.220
       219.000         165.000
  21792123.929     5794166.18049   4517612.49747  21792122.937    21792130.148
       242.000         206.000
  20861287.675   -14866397.46049 -11568303.26447  20861286.632    20861292.415
       242.000         212.000
  20826983.055    -7072152.46649  -5496993.95547  20826981.980    20826988.575
       237.000         194.000
  20971075.800   -10759576.75849  -8361931.64547  20971075.067    20971081.645
       241.000         200.000
  20702990.131       63596.47149     56125.88747  20702989.948    20702995.817
       245.000         204.000
  22647883.742    -5483428.70449  -4261776.19846  22647883.327    22647891.012
       232.000         181.000
  21817921.908    -9615547.25949  -7483709.13546  21817922.087    21817928.325
       237.000         185.000
  23552179.401    -5889814.92349  -4254006.25145  23552177.567    23552186.417
       216.000         145.000
 02  7  2 16 53 30.0000000  0  9G21G23G18G17G15G 6G29G26G22
  23221957.300   -10005264.71449  -7773783.79946  23221956.654    23221966.636
       221.000         165.000
  21804792.029     5860737.91549   4569486.53147  21804790.877    21804798.441
       241.000         205.000
  20852653.502   -14911770.08649 -11603658.54647  20852652.819    20852658.435
       243.000         211.000
  20823564.581    -7090117.38849  -5510992.59347  20823563.567    20823569.649
       237.000         194.000
  20964603.517   -10793589.37749  -8388434.96847  20964603.027    20964609.271
       241.000         201.000
  20712234.629      112176.50249     93980.41647  20712233.749    20712240.324
       244.000         203.000
  22652656.801    -5458346.42549  -4242231.55646  22652656.742    22652662.663
       233.000         181.000
  21819408.773    -9607735.00149  -7477621.63746  21819408.878    21819415.484
       237.000         187.000
  23553667.778    -5881995.20249  -4247913.03245  23553664.747    23553675.638
       213.000         146.000
 02  7  2 16 54  0.0000000  0  9G21G23G18G17G15G 6G29G26G22
  23207875.213   -10079267.92749  -7831448.59246  23207874.173    23207884.571
       218.000         166.000
  21817503.198     5927535.92049   4621536.89447  21817502.797    21817508.961
       243.000         204.000
  20844101.211   -14956712.73149 -11638678.76947  20844100.220    20844106.349
       242.000         211.000
  20820175.748    -7107925.47049  -5524869.01647  20820174.893    20820180.960
       237.000         194.000
  20958165.170   -10827423.50149  -8414799.20247  20958164.085    20958171.539
       241.000         202.000
  20721569.875      161233.78449    132206.83447  20721569.616    20721575.539
       245.000         203.000
  22657531.602    -5432729.22949  -4222270.09846  22657531.188    22657538.629
       231.000         179.000
  21821018.673    -9599275.29649  -7471029.64646  21821017.984    21821025.889
       234.000         187.000
  23555252.185    -5873668.02449  -4241424.34745  23555248.821    23555261.300
       213.000         148.000
 02  7  2 16 54 30.0000000  0  9G21G23G18G17G15G 6G29G26G22
  23193840.828   -10153018.23849  -7888916.31046  23193838.969    23193850.161
       218.000         165.000
  21830257.401     5994558.62249   4673762.35647  21830256.628    21830263.156
       241.000         203.000
  20835630.884   -15001224.62449 -11673363.33547  20835630.123    20835635.600
       241.000         210.000
  20816816.983    -7125575.67649  -5538622.41747  20816815.808    20816822.966
       236.000         194.000
  20951760.705   -10861078.46749  -8441023.83847  20951760.068    20951766.855
       242.000         202.000
  20730996.020      210768.19549    170805.04347  20730995.421    20731002.205
       246.000         203.000
  22662508.229    -5406577.27549  -4201891.95346  22662508.042    22662514.198
       232.000         179.000
  21822751.843    -9590167.38349  -7463932.55946  21822750.754    21822758.118
       231.000         186.000
  23556933.044    -5864833.64949  -4234540.45745  23556932.305    23556942.746
       217.000         151.000
 02  7  2 16 55  0.0000000  0  9G21G23G18G17G15G 6G29G26G22
  23179854.816   -10226514.53649  -7946186.09146  23179854.341    23179863.271
       219.000         166.000
  21843053.845     6061803.97849   4726161.29247  21843052.370    21843059.851
       240.000         201.000
  20827242.618   -15045305.35649 -11707711.93947  20827241.631    20827247.668
       241.000         210.000
  20813488.271    -7143067.86049  -5552252.68547  20813487.722    20813493.945
       237.000         194.000
  20945390.754   -10894553.96749  -8467108.61647  20945390.168    20945396.437
       243.000         202.000
  20740512.806      260778.97349    209774.43447  20740512.182    20740519.029
       245.000         204.000
  22667586.672    -5379890.95649  -4181097.39746  22667586.616    22667592.026
       232.000         179.000
  21824608.077    -9580411.33949  -7456330.45546  21824607.758    21824614.507
       230.000         185.000
  23558710.713    -5855493.39349  -4227262.39345  23558711.184    23558721.491
       217.000         153.000
 02  7  2 16 55 30.0000000  0  9G21G23G18G17G15G 6G29G26G22
  23165917.273   -10299756.78449  -8003257.91846  23165916.929    23165924.772
       220.000         166.000
  21855892.012     6129269.07349   4778731.45247  21855890.982    21855898.171
       239.000         200.000
  20818936.230   -15088955.39249 -11741724.93447  20818935.431    20818941.148
       241.000         210.000
  20810189.682    -7160402.17949  -5565759.94047  20810188.866    20810195.521
       237.000         195.000
  20939054.846   -10927850.07949  -8493053.62747  20939053.605    20939060.795
       242.000         202.000
  20750119.877      311264.77349    249113.97447  20750119.151    20750125.711
       245.000         202.000
  22672766.351    -5352671.84649  -4159887.69046  22672765.741    22672772.265
       232.000         178.000
  21826587.780    -9570007.72749  -7448223.74446  21826587.408    21826594.505
       232.000         186.000
  23560584.082    -5845648.98549  -4219591.44145  23560582.428    23560592.324
       216.000         155.000
 02  7  2 16 56  0.0000000  0  9G21G23G18G17G15G 6G29G26G22
  23152028.349   -10372742.87349  -8060130.13046  23152027.125    23152036.584
       222.000         165.000
  21868771.775     6196953.15049   4831472.26047  21868770.815    21868777.819
       239.000         198.000
  20810712.197   -15132173.24249 -11775401.15747  20810711.224    20810716.854
       241.000         210.000
  20806921.478    -7177576.85349  -5579142.78547  20806920.289    20806927.571
       236.000         195.000
  20932753.124   -10960965.35049  -8518857.71547  20932752.387    20932759.106
       243.000         202.000
  20759817.546      362226.25849    288824.17247  20759817.318    20759823.523
       246.000         201.000
  22678047.480    -5324919.11949  -4138262.17446  22678047.305    22678053.074
       231.000         178.000
  21828690.980    -9558955.33449  -7439611.46346  21828690.932    21828697.622
       232.000         187.000
  23562553.256    -5835300.06849  -4211527.37345  23562551.315    23562563.048
       216.000         157.000
 02  7  2 16 56 30.0000000  0  9G21G23G18G17G15G 6G29G26G22
  23138187.914   -10445473.60549  -8116803.37046  23138186.277    23138197.309
       218.000         165.000
  21881692.633     6264852.85949   4884381.08947  21881691.720    21881698.156
       238.000         196.000
  20802570.029   -15174959.98249 -11808741.43447  20802569.041    20802574.842
       239.000         209.000
  20803683.327    -7194592.73949  -5592401.91847  20803682.260    20803688.811
       237.000         194.000
  20926485.840   -10993900.62449  -8544521.53647  20926484.386    20926491.542
       243.000         201.000
  20769605.495      413661.52149    328903.54547  20769605.391    20769611.500
       246.000         200.000
  22683429.955    -5296634.59749  -4116222.27546  22683428.909    22683435.061
       230.000         177.000
  21830917.421    -9547255.16949  -7430494.43546  21830916.501    21830923.987
       232.000         187.000
  23564618.123    -5824449.09549  -4203072.10845  23564616.136    23564626.754
       216.000         155.000
 02  7  2 16 57  0.0000000  0 10G21G23G18G17G15G 6G29G26G 2G22
  23124396.415   -10517948.19049  -8173276.99546  23124396.334    23124405.712
       223.000         165.000
  21894654.076     6332965.89349   4937456.13747  21894653.217    21894659.645
       237.000         195.000
  20794509.910   -15217315.73349 -11841745.88947  20794509.211    20794514.427
       240.000         209.000
  20800475.612    -7211449.66549  -5605537.17347  20800475.021    20800481.590
       238.000         194.000
  20920252.651   -11026655.81249  -8570045.04747  20920251.341    20920258.053
       241.000         200.000
  20779483.301      465569.36449    369351.16047  20779482.564    20779488.548
       246.000         199.000
  22688913.214    -5267819.22749  -4093768.73846  22688912.473    22688918.661
       229.000         176.000
  21833267.128    -9534907.48249  -7420872.84346  21833266.814    21833273.862
       231.000         187.000
  25151571.511    -3514523.28749  -2726027.96745  25151571.439    25151581.519
       211.000         145.000
  23566777.914    -5813097.42149  -4194226.71545  23566776.950    23566787.523
       214.000         153.000
 02  7  2 16 57 30.0000000  0 10G21G23G18G17G15G 6G29G26G 2G22
  23110655.531   -10590157.81849  -8229544.19246  23110654.327    23110663.799
       220.000         165.000
  21907657.309     6401298.63549   4990702.39447  21907655.726    21907662.992
       235.000         192.000
  20786533.609   -15259231.53349 -11874407.51347  20786533.113    20786538.345
       241.000         210.000
  20797299.888    -7228138.70549  -5618541.61247  20797298.990    20797306.023
       239.000         195.000
  20914055.527   -11059221.93649  -8595421.21747  20914054.451    20914060.417
       242.000         200.000
  20789452.454      517957.59049    410173.10647  20789451.952    20789458.508
       245.000         197.000
  22694498.823    -5238465.47649  -4070895.68146  22694497.276    22694504.195
       228.000         175.000
  21835741.544    -9521903.87149  -7410740.15947  21835741.811    21835748.459
       234.000         188.000
  25144559.394    -3551374.77849  -2754743.47245  25144558.724    25144569.495
       212.000         144.000
  23569034.575    -5801237.75449  -4184985.46745  23569031.839    23569043.159
       209.000         150.000
 02  7  2 16 58  0.0000000  0 10G21G23G18G17G15G 6G29G26G 2G22
  23096962.772   -10662113.42449  -8285613.42346  23096961.426    23096970.584
       221.000         165.000
  21920699.593     6469837.22849   5044109.04947  21920698.316    21920706.343
       233.000         190.000
  20778638.899   -15300718.94749 -11906735.34247  20778638.078    20778643.648
       241.000         211.000
  20794153.870    -7244671.33549  -5631424.17947  20794152.758    20794159.818
       237.000         194.000
  20907892.289   -11091610.11749  -8620658.72747  20907891.018    20907897.776
       242.000         199.000
  20799510.563      570813.61949    451359.56347  20799510.079    20799516.532
       246.000         196.000
  22700184.562    -5208585.60149  -4047612.65746  22700184.010    22700190.300
       228.000         173.000
  21838338.881    -9508256.31249  -7400105.67647  21838339.272    21838345.226
       236.000         190.000
  25137625.121    -3587813.90549  -2783137.62745  25137622.096    25137636.606
       208.000         144.000
  23571385.222    -5788883.08149  -4175358.50345  23571384.730    23571395.644
       212.000         148.000
 02  7  2 16 58 30.0000000  0 10G21G23G18G17G15G 6G29G26G 2G22
  23083318.805   -10733812.39949  -8341482.66946  23083317.632    23083327.224
       221.000         164.000
  21933781.173     6538581.39049   5097675.87647  21933780.750    21933787.996
       236.000         190.000
  20770825.962   -15341776.26849 -11938728.03347  20770825.037    20770830.494
       240.000         210.000
  20791037.966    -7261045.41449  -5644183.19547  20791037.164    20791043.411
       238.000         194.000
  20901763.072   -11123818.37749  -8645756.04947  20901761.941    20901768.658
       241.000         199.000
  20809657.986      624138.45649    492911.32147  20809657.334    20809663.638
       245.000         195.000
  22705970.593    -5178178.64049  -4023918.90946  22705969.554    22705977.156
       227.000         172.000
  21841058.849    -9493962.98849  -7388968.00347  21841058.660    21841064.952
       236.000         191.000
  25130769.697    -3623837.92449  -2811208.30945  25130770.010    25130780.043
       211.000         144.000
  23573830.739    -5776032.79349  -4165345.34445  23573829.897    23573840.755
       212.000         149.000
 02  7  2 16 59  0.0000000  0 10G21G23G18G17G15G 6G29G26G 2G22
  23069724.005   -10805254.64749  -8397151.86646  23069723.603    23069732.664
       221.000         165.000
  21946901.676     6607528.74149   5151401.03547  21946901.166    21946907.307
       237.000         189.000
  20763094.843   -15382403.32149 -11970385.44947  20763093.809    20763099.494
       240.000         211.000
  20787952.438    -7277260.62149  -5656818.40947  20787951.371    20787958.452
       237.000         195.000
  20895668.096   -11155846.77149  -8670713.21147  20895666.801    20895673.026
       241.000         199.000
  20819894.417      677931.02749    534827.55147  20819893.897    20819899.788
       246.000         195.000
  22711857.049    -5147245.57249  -3999815.20446  22711856.459    22711863.478
       226.000         171.000
  21843901.624    -9479024.56249  -7377327.65847  21843901.172    21843907.968
       235.000         190.000
  25123994.026    -3659446.63449  -2838955.49045  25123992.962    25124003.873
       208.000         142.000
  23576370.226    -5762688.35449  -4154947.11545  23576367.430    23576379.823
       207.000         148.000
 02  7  2 16 59 30.0000000  0 10G21G23G18G17G15G 6G29G26G 2G22
  23056178.178   -10876438.40449  -8452619.68146  23056178.380    23056186.190
       222.000         167.000
  21960060.632     6676678.27349   5205283.75647  21960059.357    21960065.876
       236.000         188.000
  20755445.755   -15422599.26249 -12001706.93247  20755445.114    20755450.343
       242.000         211.000
  20784897.240    -7293315.36549  -5669328.59647  20784896.186    20784903.068
       237.000         195.000
  20889607.852   -11187693.76149  -8695529.02247  20889606.706    20889613.729
       241.000         199.000
  20830219.951      732191.37349    577108.27547  20830219.649    20830225.164
       247.000         194.000
  22717843.363    -5115786.25449  -3975301.43446  22717843.464    22717848.234
       225.000         170.000
  21846867.265    -9463439.98649  -7365183.82246  21846866.449    21846872.331
       233.000         186.000
  25117296.954    -3694638.36549  -2866377.66945  25117295.448    25117310.077
       204.000         140.000
  23579003.464    -5748850.07749  -4144164.10445  23579002.067    23579012.409
       208.000         145.000
 02  7  2 17  0  0.0000000  0 10G21G23G18G17G15G 6G29G26G 2G22
  23042681.716   -10947362.70149  -8507885.30246  23042680.914    23042689.651
       221.000         166.000
  21973257.564     6746028.49849   5259322.86047  21973256.791    21973263.342
       236.000         188.000
  20747878.947   -15462363.31149 -12032691.88247  20747878.083    20747883.567
       241.000         212.000
  20781872.848    -7309208.94949  -5681713.19647  20781872.149    20781878.216
       238.000         194.000
  20883582.347   -11219358.28649  -8720202.65347  20883580.848    20883588.428
       240.000         200.000
  20840634.422      786919.28149    619753.32147  20840633.959    20840639.473
       247.000         194.000
  22723930.003    -5083800.81249  -3950377.70846  22723929.251    22723935.874
       225.000         170.000
  21849955.790    -9447208.86149  -7352536.19346  21849954.881    21849961.724
       232.000         183.000
  25110678.890    -3729411.89049  -2893473.95945  25110676.271    25110690.896
       202.000         139.000
  23581731.090    -5734518.63049  -4132996.83045  23581730.058    23581740.657
       207.000         142.000
 02  7  2 17  0 30.0000000  0 10G21G23G18G17G15G 6G29G26G 2G22
  23029235.173   -11018024.99149  -8562946.77346  23029234.323    23029243.646
       219.000         166.000
  21986492.476     6815578.86149   5313517.91247  21986491.848    21986499.081
       238.000         190.000
  20740394.696   -15501693.82349 -12063339.01147  20740393.404    20740399.299
       240.000         212.000
  20778879.580    -7324939.14249  -5693970.47647  20778878.692    20778884.982
       238.000         195.000
  20877591.710   -11250838.64049  -8744732.79247  20877590.665    20877597.820
       240.000         200.000
  20851137.890      842115.40949    662763.22747  20851137.398    20851143.443
       247.000         195.000
  22730116.616    -5051288.82849  -3925043.70346  22730116.638    22730122.981
       224.000         171.000
  21853167.601    -9430330.05149  -7339383.87346  21853167.277    21853173.388
       233.000         183.000
  25104141.704    -3763764.89649  -2920242.58445  25104144.123    25104150.636
       213.000         138.000
  23584551.388    -5719693.71849  -4121444.98345  23584548.167    23584561.121
       199.000         138.000
 02  7  2 17  1  0.0000000  0 10G21G23G18G17G15G 6G29G26G 2G22
  23015838.136   -11088426.67849  -8617805.16146  23015838.037    23015846.730
       218.000         166.000
  21999764.889     6885325.23249   5367865.68447  21999764.050    21999770.680
       236.000         191.000
  20732992.360   -15540592.78749 -12093649.87147  20732991.409    20732997.118
       240.000         212.000
  20775916.950    -7340507.50249  -5706101.66247  20775915.903    20775922.719
       237.000         195.000
  20871636.035   -11282136.18049  -8769120.46947  20871634.928    20871641.940
       240.000         199.000
  20861729.917      897776.88749    706135.74547  20861729.275    20861735.069
       246.000         196.000
  22736403.196    -5018252.88849  -3899301.41946  22736402.416    22736410.209
       224.000         172.000
  21856502.287    -9412805.70949  -7325728.53546  21856502.288    21856508.508
       236.000         184.000
  25097685.613    -3797698.63649  -2946684.58845  25097685.934    25097692.350
       210.000         136.000
  23587465.020    -5704378.77649  -4109511.29445  23587464.578    23587474.760
       208.000         137.000
 02  7  2 17  1 30.0000000  0 10G21G23G18G17G15G 6G29G26G 2G22
  23002490.631   -11158568.68049  -8672461.20246  23002489.838    23002498.406
       218.000         165.000
  22013073.839     6955264.12849   5422363.48347  22013072.677    22013079.673
       235.000         191.000
  20725671.981   -15579061.40449 -12123625.39047  20725671.196    20725676.749
       241.000         212.000
  20772984.818    -7355915.12349  -5718107.58947  20772983.902    20772990.828
       238.000         195.000
  20865714.882   -11313251.97549  -8793366.52447  20865713.457    20865721.134
       238.000         199.000
  20872410.020      953901.46149    749869.12047  20872409.621    20872415.739
       248.000         197.000
  22742789.098    -4984695.32649  -3873152.67846  22742788.775    22742796.155
       225.000         173.000
  21859959.658    -9394637.56049  -7311571.53546  21859959.375    21859965.830
       236.000         186.000
  25091308.184    -3831214.08149  -2972800.57045  25091306.620    25091318.051
       204.000         136.000
  23590472.835    -5688576.34549  -4097197.79945  23590472.426    23590484.029
       212.000         142.000
 02  7  2 17  2  0.0000000  0 10G21G23G18G17G15G 6G29G26G 2G22
  22989192.749   -11228448.76149  -8726913.16046  22989190.505    22989201.163
       216.000         163.000
  22026419.270     7025395.30349   5477011.10747  22026418.538    22026425.553
       236.000         191.000
  20718433.946   -15617097.80149 -12153264.11347  20718433.067    20718438.465
       240.000         212.000
  20770083.940    -7371159.57249  -5729986.37047  20770083.291    20770089.464
       238.000         195.000
  20859828.529   -11344183.96949  -8817469.36647  20859827.962    20859834.485
       239.000         199.000
  20883178.539     1010489.75949    793963.83247  20883178.406    20883183.825
       248.000         199.000
  22749274.376    -4950615.45149  -3846596.93546  22749273.765    22749280.592
       226.000         174.000
  21863539.664    -9375824.29349  -7296911.84846  21863539.557    21863546.133
       235.000         187.000
  25085009.971    -3864309.05649  -2998588.91045  25085005.372    25085020.664
       198.000         136.000
  23593573.194    -5672286.14449  -4084504.18145  23593572.010    23593584.330
       212.000         147.000
 02  7  2 17  2 30.0000000  0 10G21G23G18G17G15G 6G29G26G 2G22
  22975945.089   -11298065.18049  -8781159.68146  22975943.935    22975953.527
       218.000         163.000
  22039801.334     7095718.06449   5531808.03647  22039800.554    22039807.701
       236.000         192.000
  20711278.335   -15654700.72549 -12182565.06947  20711277.621    20711282.960
       240.000         212.000
  20767214.398    -7386239.13849  -5741736.66847  20767213.377    20767219.552
       238.000         195.000
  20853977.872   -11374930.21149  -8841427.47047  20853977.002    20853983.638
       238.000         198.000
  20894035.350     1067542.23749    838420.24647  20894034.791    20894041.913
       248.000         201.000
  22755858.989    -4916012.76249  -3819633.80046  22755858.947    22755866.205
       226.000         174.000
  21867242.715    -9356364.82049  -7281748.64046  21867242.803    21867249.418
       235.000         186.000
  25078791.639    -3896981.55449  -3024047.98145  25078793.702    25078803.525
       212.000         137.000
  23596765.731    -5655508.22049  -4071430.49845  23596763.361    23596776.537
       214.000         151.000
 02  7  2 17  3  0.0000000  0 10G21G23G18G17G15G 6G29G26G 2G22
  22962747.623   -11367419.40649  -8835201.87445  22962745.842    22962754.554
       216.000         162.000
  22053219.059     7166228.29649   5586751.04447  22053218.245    22053225.376
       236.000         193.000
  20704204.842   -15691872.47349 -12211530.03747  20704204.018    20704209.345
       240.000         212.000
  20764375.748    -7401155.52549  -5753359.81347  20764375.002    20764381.253
       238.000         194.000
  20848162.013   -11405492.36149  -8865242.12047  20848160.639    20848167.497
       238.000         197.000
  20904979.827     1125055.65149    883235.84947  20904979.464    20904985.785
       249.000         203.000
  22762542.690    -4880890.28949  -3792265.63846  22762541.860    22762548.615
       224.000         172.000
  21871068.218    -9336261.64849  -7266083.84046  21871067.945    21871074.545
       234.000         186.000
  25072656.459    -3929233.00949  -3049179.11745  25072661.568    25072665.540
       211.000         141.000
  23600050.454    -5638246.25149  -4057979.64345  23600049.056    23600061.735
       214.000         153.000
 02  7  2 17  3 30.0000000  0 10G21G23G18G17G15G 6G29G26G 2G22
  22949599.704   -11436510.47149  -8889038.97345  22949598.504    22949607.349
       217.000         160.000
  22066672.151     7236924.12449   5641838.67747  22066671.311    22066677.992
       237.000         194.000
  20697213.351   -15728612.37449 -12240158.51247  20697212.228    20697217.696
       239.000         211.000
  20761568.427    -7415908.07849  -5764855.29847  20761567.476    20761574.308
       239.000         195.000
  20842381.330   -11435869.71549  -8888912.77447  20842380.460    20842386.691
       239.000         197.000
  20916011.997     1183029.35049    928410.09347  20916011.586    20916018.206
       249.000         204.000
  22769324.959    -4845248.81349  -3764493.06046  22769323.226    22769331.685
       222.000         171.000
  21875016.256    -9315515.19449  -7249917.77746  21875016.331    21875023.236
       236.000         185.000
  25066600.137    -3961062.76448  -3073981.61845  25066595.087    25066606.859
       189.000         136.000
  23603427.453    -5620501.10149  -4044152.28345  23603427.777    23603438.562
       220.000         156.000
 02  7  2 17  4  0.0000000  0 10G21G23G18G17G15G 6G29G26G 2G22
  22936502.347   -11505336.68749  -8942669.74345  22936500.661    22936510.641
       218.000         162.000
  22080160.280     7307804.67149   5697070.25547  22080159.454    22080166.101
       236.000         194.000
  20690304.332   -15764919.47049 -12268449.73647  20690303.721    20690308.773
       240.000         211.000
  20758792.655    -7430494.89149  -5776221.63147  20758791.997    20758798.367
       238.000         195.000
  20836636.236   -11466060.58849  -8912438.11147  20836635.387    20836641.196
       239.000         197.000
  20927131.674     1241463.47649    973943.11047  20927131.398    20927137.703
       248.000         203.000
  22776205.936    -4809087.95549  -3736315.77746  22776205.141    22776212.180
       223.000         170.000
  21879086.806    -9294124.51649  -7233249.69746  21879086.374    21879092.098
       234.000         184.000
  25060620.900    -3992469.26749  -3098454.10545  25060618.575    25060630.723
       202.000         133.000
  23606896.456    -5602273.29949  -4029948.86645  23606895.326    23606905.474
       219.000         159.000
 02  7  2 17  4 30.0000000  0 10G21G23G18G17G15G 6G29G26G 2G22
  22923455.732   -11573896.74049  -8996093.10546  22923455.132    22923464.594
       221.000         165.000
  22093683.313     7378868.41149   5752444.57347  22093682.342    22093689.572
       237.000         194.000
  20683477.819   -15800793.21949 -12296403.28547  20683477.177    20683482.283
       240.000         211.000
  20756048.543    -7444915.07949  -5787458.13047  20756047.757    20756054.278
       238.000         194.000
  20830926.861   -11496063.90549  -8935817.30447  20830925.690    20830931.894
       240.000         196.000
  20938338.804     1300357.61649   1019834.58547  20938337.850    20938344.908
       247.000         204.000
  22783185.708    -4772408.59649  -3707734.45946  22783184.969    22783192.754
       224.000         171.000
  21883280.013    -9272089.63749  -7216079.63846  21883279.331    21883286.378
       235.000         182.000
  25054726.937    -4023451.12249  -3122595.96245  25054732.989    25054736.452
       212.000         134.000
  23610456.958    -5583563.49849  -4015369.85745  23610456.321    23610465.677
       221.000         160.000
 02  7  2 17  5  0.0000000  0 10G21G23G18G17G15G 6G29G26G 2G22
  22910459.290   -11642194.30549  -9049311.95646  22910458.919    22910467.874
       222.000         167.000
  22107240.144     7450109.54549   5807957.12147  22107239.257    22107246.144
       237.000         195.000
  20676733.235   -15836237.23049 -12324021.97147  20676732.176    20676737.497
       239.000         210.000
  20753335.553    -7459171.81649  -5798567.26147  20753334.665    20753341.287
       239.000         194.000
  20825252.447   -11525883.12949  -8959053.04547  20825251.398    20825257.472
       242.000         197.000
  20949632.632     1359706.84949   1066080.69547  20949632.231    20949638.715
       246.000         204.000
  22790263.482    -4735215.15749  -3678752.56946  22790263.249    22790269.980
       226.000         172.000
  21887594.795    -9249414.68449  -7198410.82746  21887594.394    21887600.626
       233.000         182.000
  25048913.700    -4054011.78249  -3146409.62345  25048917.285    25048921.945
       197.000         134.000
  23614108.210    -5564377.10649  -4000419.49745  23614107.673    23614118.094
       221.000         161.000
 02  7  2 17  5 30.0000000  0 10G21G23G18G17G15G 6G29G26G 2G22
  22897513.484   -11710225.83849  -9102323.45846  22897511.573    22897520.749
       222.000         164.000
  22120830.790     7521528.83049   5863608.46747  22120830.078    22120836.937
       238.000         197.000
  20670070.628   -15871249.09549 -12351303.92847  20670069.559    20670074.993
       239.000         210.000
  20750654.484    -7473261.76649  -5809546.42647  20750653.502    20750659.984
       239.000         195.000
  20819613.755   -11555515.16149  -8982142.91947  20819612.662    20819618.514
       242.000         198.000
  20961013.279     1419512.84849   1112682.71947  20961012.863    20961019.041
       246.000         203.000
  22797439.377    -4697506.10349  -3649368.89646  22797439.531    22797445.323
       227.000         173.000
  21892031.862    -9226097.54549  -7180241.62046  21892031.082    21892038.671
       233.000         183.000
  25043177.411    -4084148.26548  -3169892.56044  25043167.896    25043187.590
       187.000         131.000
  23617850.573    -5544712.73849  -3985096.68345  23617851.002    23617860.076
       220.000         161.000
 02  7  2 17  6  0.0000000  0 10G21G23G18G17G15G 6G29G26G 2G22
  22884618.153   -11777989.82149  -9155126.48646  22884617.319    22884626.010
       223.000         164.000
  22134455.208     7593125.84949   5919398.30447  22134454.716    22134460.897
       239.000         197.000
  20663490.580   -15905827.09449 -12378247.81647  20663489.564    20663495.149
       239.000         210.000
  20748005.317    -7487182.98949  -5820394.12547  20748004.715    20748011.260
       239.000         195.000
  20814010.897   -11584957.95449  -9005085.33847  20814009.211    20814016.167
       243.000         198.000
  20972481.133     1479776.15449   1159641.09147  20972481.004    20972486.656
       247.000         203.000
  22804713.557    -4659280.83549  -3619582.97846  22804713.036    22804719.617
       227.000         174.000
  21896591.312    -9202137.19149  -7161571.22046  21896590.596    21896597.629
       232.000         183.000
  25037522.580    -4113858.17549  -3193043.12744  25037522.294    25037533.936
       200.000         129.000
  23621683.587    -5524570.50249  -3969401.47345  23621683.099    23621693.090
       218.000         161.000
 02  7  2 17  6 30.0000000  0 10G21G23G18G17G15G 6G29G26G 2G22
  22871773.951   -11845486.70649  -9207721.39746  22871773.671    22871782.293
       226.000         166.000
  22148112.892     7664896.88049   5975323.75547  22148112.331    22148118.892
       241.000         197.000
  20656992.733   -15939973.24249 -12404855.18047  20656991.652    20656997.503
       238.000         210.000
  20745388.154    -7500936.50549  -5831111.13947  20745387.317    20745393.753
       238.000         195.000
  20808443.831   -11614212.71249  -9027881.23147  20808442.485    20808449.459
       244.000         199.000
  20984035.454     1540493.93249   1206953.57847  20984035.275    20984041.605
       246.000         203.000
  22812085.501    -4620542.17249  -3589397.03646  22812084.213    22812091.369
       226.000         174.000
  21901272.669    -9177535.98849  -7142401.44146  21901271.645    21901279.215
       231.000         183.000
  25031950.659    -4143142.77249  -3215862.43344  25031950.801    25031959.922
       198.000         128.000
  23625607.024    -5503953.53849  -3953336.34845  23625606.063    23625615.930
       217.000         162.000
 02  7  2 17  7  0.0000000  0 10G21G23G18G17G15G 6G29G26G 2G22
  22858980.258   -11912717.80949  -9260109.22046  22858979.368    22858989.237
       226.000         165.000
  22161803.116     7736838.50149   6031382.12847  22161802.353    22161809.022
       241.000         196.000
  20650576.766   -15973688.82249 -12431127.05147  20650575.824    20650581.299
       238.000         209.000
  20742802.717    -7514523.38249  -5841698.30247  20742802.267    20742808.446
       240.000         195.000
  20802912.427   -11643280.34049  -9050531.31147  20802911.374    20802918.616
       243.000         200.000
  20995675.753     1601663.64849   1254618.25147  20995675.286    20995682.255
       246.000         204.000
  22819554.297    -4581292.60649  -3558812.97446  22819553.842    22819561.282
       224.000         173.000
  21906075.667    -9152295.97449  -7122733.89946  21906074.500    21906081.259
       230.000         182.000
  25026458.417    -4172003.31549  -3238351.23344  25026455.935    25026470.593
       200.000         130.000
  23629620.548    -5482864.74949  -3936903.60145  23629620.554    23629628.430
       221.000         162.000
 02  7  2 17  7 30.0000000  0 10G21G23G18G17G15G 6G29G26G 2G22
  22846237.400   -11979681.29749  -9312288.48146  22846236.300    22846245.063
       227.000         165.000
  22175525.542     7808950.05149   6087572.90647  22175524.934    22175531.685
       240.000         195.000
  20644243.013   -16006972.61149 -12457062.44847  20644242.318    20644247.542
       239.000         209.000
  20740249.500    -7527941.53249  -5852153.98547  20740248.425    20740255.095
       240.000         196.000
  20797416.995   -11672158.90049  -9073034.06247  20797415.939    20797423.310
       244.000         200.000
  21007402.130     1663285.68249   1302635.36747  21007401.758    21007408.857
       245.000         204.000
  22827120.509    -4541531.95649  -3527830.68246  22827119.704    22827126.483
       222.000         171.000
  21911000.155    -9126416.41049  -7102568.01446  21910999.341    21911005.402
       232.000         181.000
  25021046.859    -4200437.92149  -3260508.07645  25021043.692    25021061.157
       201.000         132.000
  23633723.438    -5461304.51849  -3920103.47345  23633722.285    23633729.947
       220.000         160.000
 02  7  2 17  8  0.0000000  0 10G21G23G18G17G15G 6G29G26G 2G22
  22833545.606   -12046375.72549  -9364258.08646  22833544.376    22833553.838
       230.000         166.000
  22189280.064     7881230.37549   6143895.17847  22189279.322    22189285.537
       239.000         193.000
  20637991.790   -16039823.78249 -12482660.74747  20637991.226    20637996.275
       241.000         210.000
  20737728.477    -7541189.73749  -5862477.25647  20737727.260    20737733.902
       239.000         196.000
  20791957.808   -11700847.03349  -9095388.43047  20791956.538    20791963.294
       242.000         199.000
  21019214.433     1725359.72949   1351004.68447  21019213.791    21019220.846
       246.000         203.000
  22834783.710    -4501260.51649  -3496450.37646  22834782.189    22834790.938
       219.000         170.000
  21916046.432    -9099897.23149  -7081903.72046  21916046.077    21916052.655
       232.000         181.000
  25015717.232    -4228445.34549  -3282332.08644  25015716.890    25015730.081
       197.000         131.000
  23637916.237    -5439273.42549  -3902936.47445  23637914.792    23637923.548
       218.000         157.000
 02  7  2 17  8 30.0000000  0 10G21G23G18G17G15G 6G29G26G 2G22
  22820905.135   -12112802.03649  -9416018.76846  22820905.306    22820913.633
       233.000         168.000
  22203066.076     7953676.19949   6200346.43047  22203065.548    22203071.145
       239.000         192.000
  20631822.511   -16072243.99349 -12507923.21647  20631821.467    20631827.265
       240.000         211.000
  20735239.625    -7554268.73449  -5872668.67347  20735238.563    20735244.717
       239.000         196.000
  20786534.679   -11729345.65649  -9117595.13147  20786533.742    20786540.204
       243.000         199.000
  21031112.330     1787883.14549   1399724.16047  21031111.744    21031118.035
       244.000         201.000
  22842543.612    -4460480.86049  -3464674.06946  22842542.287    22842550.899
       218.000         169.000
  21921214.310    -9072740.40449  -7060742.55446  21921214.769    21921219.800
       235.000         182.000
  25010467.894    -4256026.77849  -3303824.16744  25010465.425    25010479.014
       197.000         126.000
  23642197.446    -5416774.57849  -3885404.95745  23642194.509    23642205.561
       216.000         155.000
 02  7  2 17  9  0.0000000  0 10G21G23G18G17G15G 6G29G26G 2G22
  22808316.079   -12178959.41049  -9467569.90746  22808315.402    22808325.372
       232.000         170.000
  22216883.326     8026285.99749   6256925.44347  22216882.472    22216888.710
       238.000         191.000
  20625735.119   -16104232.84249 -12532849.58047  20625734.211    20625739.608
       240.000         211.000
  20732783.224    -7567177.39849  -5882727.35747  20732782.004    20732788.330
       240.000         196.000
  20781147.923   -11757653.87749  -9139653.47547  20781146.711    20781153.566
       242.000         199.000
  21043095.526     1850855.38149   1448793.37847  21043095.408    21043101.613
       244.000         200.000
  22850400.240    -4419193.55149  -3432502.17346  22850399.907    22850407.269
       222.000         170.000
  21926503.572    -9044946.34449  -7039084.83046  21926503.198    21926509.679
       235.000         184.000
  25005300.186    -4283181.40949  -3324983.68544  25005298.232    25005310.709
       195.000         124.000
  23646567.559    -5393809.01149  -3867509.77745  23646566.383    23646575.508
       218.000         155.000
 02  7  2 17  9 30.0000000  0 10G21G23G18G17G15G 6G29G26G 2G22
  22795777.961   -12244847.91349  -9518911.52746  22795776.822    22795785.768
       233.000         171.000
  22230731.228     8099057.22449   6313630.23947  22230730.186    22230737.112
       237.000         191.000
  20619729.762   -16135791.24149 -12557440.52147  20619728.619    20619734.488
       240.000         210.000
  20730359.125    -7579915.79449  -5892653.37347  20730358.302    20730364.651
       240.000         197.000
  20775797.377   -11785771.54749  -9161563.33147  20775796.585    20775802.471
       241.000         198.000
  21055163.986     1914274.77949   1498211.03447  21055163.524    21055169.675
       245.000         200.000
  22858353.390    -4377400.53449  -3399936.20746  22858353.221    22858360.318
       225.000         171.000
  21931913.686    -9016516.31749  -7016931.56446  21931913.672    21931920.014
       236.000         185.000
  25000213.040    -4309909.27548  -3345810.57644  25000210.424    25000224.937
       189.000         124.000
  23651025.980    -5370378.94249  -3849252.60345  23651025.496    23651033.766
       220.000         156.000
 02  7  2 17 10  0.0000000  0 10G21G23G18G17G15G 6G29G26G 2G22
  22783291.113   -12310467.06949  -9570043.25246  22783290.496    22783297.944
       234.000         169.000
  22244609.420     8171987.82549   6370459.22147  22244608.598    22244614.994
       236.000         190.000
  20613806.266   -16166919.37049 -12581696.18847  20613805.170    20613810.880
       240.000         210.000
  20727967.561    -7592483.41749  -5902446.32747  20727966.647    20727972.979
       241.000         197.000
  20770483.232   -11813698.27549  -9183324.40847  20770482.044    20770488.145
       241.000         198.000
  21067317.229     1978139.85449   1547975.97147  21067316.990    21067322.262
       246.000         199.000
  22866402.369    -4335103.07949  -3366977.16846  22866402.259    22866408.428
       226.000         172.000
  21937444.664    -8987451.22649  -6994283.43546  21937444.783    21937450.481
       236.000         186.000
  24995207.724    -4336210.21048  -3366304.79444  24995204.070    24995224.426
       186.000         127.000
  23655572.797    -5346486.24549  -3830634.95345  23655572.628    23655581.156
       223.000         154.000
 02  7  2 17 10 30.0000000  0 10G21G23G18G17G15G 6G29G26G 2G22
  22770855.355   -12375817.40049  -9620965.49546  22770854.206    22770862.456
       232.000         169.000
  22258517.440     8245075.24349   6427410.41247  22258516.570    22258522.698
       234.000         189.000
  20607964.474   -16197617.84149 -12605617.06347  20607963.863    20607969.182
       241.000         211.000
  20725608.564    -7604880.20949  -5912106.16147  20725607.520    20725614.602
       240.000         198.000
  20765205.293   -11841434.14849  -9204936.76647  20765203.509    20765210.759
       238.000         197.000
  21079554.911     2042448.81449   1598086.79247  21079554.548    21079559.953
       244.000         197.000
  22874547.085    -4292303.04849  -3333626.49946  22874547.051    22874553.199
       227.000         174.000
  21943096.222    -8957752.46949  -6971141.55046  21943096.291    21943102.676
       236.000         185.000
  24990284.550    -4362084.26649  -3386466.41944  24990290.802    24990297.610
       210.000         131.000
  23660207.451    -5322133.05949  -3811658.53245  23660205.231    23660214.055
       219.000         152.000
 02  7  2 17 11  0.0000000  0 10G21G23G18G17G15G 6G29G26G 2G22
  22758470.581   -12440899.58649  -9671678.81946  22758469.180    22758477.919
       233.000         170.000
  22272454.825     8318316.53549   6484481.52447  22272453.651    22272460.380
       235.000         188.000
  20602204.334   -16227887.90849 -12629204.10447  20602203.471    20602208.808
       240.000         212.000
  20723281.933    -7617106.75349  -5921633.33147  20723281.161    20723287.737
       241.000         198.000
  20759963.351   -11868979.62149  -9226400.75947  20759962.117    20759967.882
       238.000         196.000
  21091876.540     2107199.43849   1648541.75447  21091875.808    21091881.848
       244.000         197.000
  22882787.043    -4249002.40849  -3299885.73646  22882786.966    22882793.216
       229.000         174.000
  21948868.018    -8927421.88349  -6947507.33546  21948867.145    21948873.750
       233.000         184.000
  24985443.960    -4387532.33249  -3406296.26945  24985442.408    24985454.084
       198.000         135.000
  23664928.610    -5297321.93849  -3792325.24745  23664927.921    23664935.072
       219.000         150.000
 02  7  2 17 11 30.0000000  0 10G21G23G18G17G15G 6G29G26G 2G22
  22746137.596   -12505710.16649  -9722180.54846  22746136.168    22746145.130
       232.000         172.000
  22286421.508     8391712.53249   6541673.17046  22286420.382    22286427.536
       232.000         187.000
  20596526.107   -16257726.93049 -12652455.28147  20596525.132    20596530.349
       240.000         211.000
  20720988.382    -7629159.46349  -5931025.05747  20720987.509    20720993.914
       241.000         199.000
  20754758.398   -11896331.30449  -9247713.75147  20754757.031    20754763.203
       238.000         195.000
  21104282.446     2172393.17349   1699342.00347  21104281.580    21104288.709
       243.000         197.000
  22891122.630    -4205199.79649  -3265753.84446  22891122.546    22891127.784
       229.000         174.000
  21954760.272    -8896457.48049  -6923379.26046  21954759.836    21954766.813
       231.000         184.000
  24980681.940    -4412551.48249  -3425791.67145  24980679.845    24980693.678
       203.000         135.000
  23669736.779    -5272052.11749  -3772634.48345  23669734.674    23669746.239
       220.000         149.000
 02  7  2 17 12  0.0000000  0 10G21G23G18G17G15G 6G29G26G 2G22
  22733856.198   -12570248.69849  -9772470.25746  22733855.050    22733864.364
       230.000         172.000
  22300417.349     8465261.34649   6598983.89846  22300416.163    22300423.695
       232.000         186.000
  20590929.821   -16287135.27349 -12675370.85947  20590929.146    20590934.162
       242.000         211.000
  20718727.950    -7641037.76549  -5940280.86547  20718727.224    20718734.052
       241.000         199.000
  20749590.481   -11923488.55349  -9268875.22847  20749588.909    20749596.042
       237.000         195.000
  21116772.566     2238028.99349   1750486.71947  21116772.343    21116779.937
       244.000         198.000
  22899553.389    -4160896.53449  -3231231.83646  22899552.799    22899558.713
       228.000         174.000
  21960772.930    -8864860.14149  -6898757.98646  21960772.504    21960779.980
       233.000         184.000
  24976003.110    -4437141.32049  -3444952.68745  24976002.213    24976017.908
       204.000         137.000
  23674632.487    -5246324.97249  -3752587.40745  23674632.053    23674640.334
       224.000         150.000
 02  7  2 17 12 30.0000000  0 10G21G23G18G17G15G 6G29G26G 2G22
  22721626.090   -12634517.16249  -9822549.51046  22721624.687    22721634.334
       229.000         172.000
  22314441.600     8538958.55949   6656410.24546  22314440.244    22314447.435
       232.000         185.000
  20585415.172   -16316115.55049 -12697952.87747  20585414.674    20585419.490
       241.000         211.000
  20716500.409    -7652743.42749  -5949402.16847  20716499.496    20716506.130
       241.000         200.000
  20744459.178   -11950453.38349  -9289886.77747  20744458.110    20744465.131
       239.000         196.000
  21129346.041     2304102.92449   1801972.82147  21129345.459    21129352.482
       243.000         197.000
  22908078.563    -4116096.39749  -3196322.66446  22908078.058    22908084.305
       227.000         173.000
  21966905.436    -8832633.47849  -6873646.30646  21966904.788    21966911.067
       232.000         184.000
  24971404.818    -4461304.22949  -3463780.96145  24971403.277    24971418.265
       200.000         136.000
  23679614.776    -5220144.83849  -3732187.35945  23679613.705    23679624.099
       222.000         155.000
 02  7  2 17 13  0.0000000  0 10G21G23G18G17G15G 6G29G26G 2G22
  22709447.901   -12698513.57449  -9872416.76546  22709445.798    22709456.091
       228.000         172.000
  22328493.972     8612804.25849   6713952.32446  22328492.986    22328499.678
       231.000         185.000
  20579982.263   -16344666.03949 -12720199.98847  20579981.355    20579986.279
       242.000         210.000
  20714306.232    -7664274.00049  -5958387.03047  20714305.255    20714311.846
       241.000         200.000
  20739365.007   -11977223.42349  -9310746.53747  20739363.947    20739370.127
       239.000         196.000
  21142002.899     2370615.67849   1853800.85547  21142002.156    21142009.757
       243.000         196.000
  22916698.592    -4070798.76649  -3161025.84746  22916699.009    22916704.563
       229.000         172.000
  21973157.830    -8799776.40649  -6848043.41246  21973157.829    21973163.881
       232.000         182.000
  24966888.292    -4485038.04049  -3482274.80645  24966888.673    24966900.638
       203.000         134.000
  23684682.722    -5193511.55449  -3711434.18145  23684682.146    23684692.463
       220.000         155.000
 02  7  2 17 13 30.0000000  0 10G21G23G18G17G15G 6G29G26G 2G22
  22697321.270   -12762238.34049  -9922072.39546  22697320.752    22697329.518
       229.000         172.000
  22342573.966     8686795.64549   6771607.92646  22342573.248    22342580.457
       232.000         185.000
  20574630.846   -16372787.81549 -12742113.05047  20574629.820    20574634.898
       241.000         210.000
  20712145.416    -7675629.70249  -5967235.62547  20712144.471    20712151.032
       242.000         201.000
  20734307.929   -12003798.74549  -9331454.56247  20734307.138    20734313.089
       241.000         197.000
  21154742.928     2437565.11049   1905969.16147  21154743.246    21154748.980
       245.000         195.000
  22925412.716    -4025005.82449  -3125343.05146  22925412.927    22925418.712
       230.000         171.000
  21979529.895    -8766290.80049  -6821950.73946  21979528.749    21979535.119
       229.000         180.000
  24962454.387    -4508343.04349  -3500434.59445  24962455.522    24962465.161
       207.000         134.000
  23689836.456    -5166427.87149  -3690330.06745  23689835.068    23689845.513
       217.000         153.000
 02  7  2 17 14  0.0000000  0 10G21G23G18G17G15G 6G29G26G 2G22
  22685246.713   -12825690.69149  -9971515.75246  22685245.381    22685253.700
       227.000         173.000
  22356681.436     8760930.76049   6829375.52946  22356680.642    22356688.039
       233.000         187.000
  20569360.859   -16400481.32249 -12763692.38947  20569359.829    20569364.981
       241.000         210.000
  20710017.847    -7686809.95449  -5975947.50547  20710016.724    20710023.707
       240.000         201.000
  20729287.995   -12030179.07349  -9352010.63647  20729286.963    20729293.968
       241.000         198.000
  21167566.096     2504949.76749   1958476.61147  21167566.479    21167572.656
       245.000         195.000
  22934220.862    -3978718.98749  -3089275.40646  22934220.739    22934226.466
       229.000         171.000
  21986021.153    -8732177.65849  -6795369.07346  21986020.395    21986026.985
       229.000         179.000
  24958101.741    -4531219.44049  -3518260.43945  24958101.486    24958113.067
       207.000         135.000
  23695075.701    -5138895.35249  -3668876.18745  23695074.601    23695085.466
       216.000         152.000
 02  7  2 17 14 30.0000000  0 10G21G23G18G17G15G 6G29G26G 2G22
  22673223.818   -12888871.16849 -10020747.26346  22673222.115    22673229.434
       223.000         169.000
  22370815.809     8835207.11549   6887253.16947  22370815.317    22370822.506
       234.000         189.000
  20564172.245   -16427747.33049 -12784938.61247  20564170.961    20564176.348
       241.000         210.000
  20707923.579    -7697814.63549  -5984522.57647  20707922.643    20707929.783
       241.000         201.000
  20724305.214   -12056364.09749  -9372414.53647  20724304.263    20724310.764
       242.000         199.000
  21180471.634     2572767.74249   2011321.70647  21180471.525    21180477.692
       245.000         194.000
  22943122.727    -3931940.21149  -3052824.43546  22943122.357    22943127.605
       229.000         170.000
  21992631.691    -8697438.61849  -6768299.70546  21992630.309    21992637.690
       224.000         177.000
  24953830.366    -4553667.47449  -3535752.43745  24953829.503    24953843.648
       208.000         138.000
  23700400.032    -5110916.52449  -3647074.54945  23700399.785    23700409.480
       215.000         152.000
 02  7  2 17 15  0.0000000  0 10G21G23G18G17G15G 6G29G26G 2G22
  22661252.751   -12951779.30849 -10069766.55146  22661251.762    22661259.909
       228.000         167.000
  22384976.845     8909623.12249   6945239.63047  22384976.163    22384983.606
       233.000         190.000
  20559064.918   -16454586.11249 -12805851.93747  20559064.116    20559068.895
       242.000         209.000
  20705862.991    -7708642.84249  -5992960.13447  20705862.020    20705868.691
       241.000         201.000
  20719359.635   -12082353.38149  -9392665.90747  20719358.017    20719364.684
       241.000         199.000
  21193459.249     2641017.80749   2064503.49947  21193458.444    21193466.332
       243.000         193.000
  22952117.854    -3884670.67249  -3015991.04146  22952117.030    22952124.094
       230.000         169.000
  21999361.111    -8662074.57849  -6740743.33246  21999361.279    21999368.027
       228.000         178.000
  24949639.897    -4575686.85549  -3552910.44445  24949639.184    24949650.417
       211.000         137.000
  23705808.998    -5082493.05549  -3624926.47945  23705808.220    23705818.096
       216.000         152.000
 02  7  2 17 15 30.0000000  0 10G21G23G18G17G15G 6G29G26G 2G22
  22649333.469   -13014414.92549 -10118573.48346  22649333.393    22649341.051
       228.000         170.000
  22399163.764     8984176.58549   7003333.19747  22399162.612    22399170.381
       230.000         188.000
  20554038.968   -16480997.92549 -12826432.56247  20554037.976    20554043.167
       242.000         209.000
  20703836.115    -7719294.11849  -6001259.82847  20703835.213    20703841.323
       240.000         201.000
  20714451.340   -12108146.43549  -9412764.37447  20714450.085    20714456.303
       242.000         200.000
  21206528.606     2709698.43049   2118020.78547  21206528.496    21206536.161
       244.000         193.000
  22961206.163    -3836911.73649  -2978776.32046  22961205.988    22961211.993
       229.000         169.000
  22006209.405    -8626086.79549  -6712700.91846  22006209.678    22006216.306
       231.000         180.000
  24945531.789    -4597277.74249  -3569734.58045  24945531.638    24945542.440
       210.000         140.000
  23711302.239    -5053626.84849  -3602433.38745  23711300.298    23711311.762
       213.000         152.000
 02  7  2 17 16  0.0000000  0 10G21G23G18G17G15G 6G29G26G 2G22
  22637466.511   -13076777.27549 -10167167.46646  22637464.759    22637474.883
       227.000         172.000
  22413376.448     9058866.25749   7061532.91246  22413375.443    22413383.267
       227.000         185.000
  20549094.229   -16506982.79149 -12846680.49447  20549093.349    20549098.797
       243.000         210.000
  20701843.130    -7729767.42149  -6009420.83047  20701842.163    20701849.102
       241.000         202.000
  20709580.683   -12133741.86149  -9432708.84547  20709579.357    20709585.969
       242.000         200.000
  21219680.000     2778808.93349   2171873.04947  21219679.282    21219686.929
       244.000         193.000
  22970387.270    -3788664.61649  -2941181.19746  22970386.652    22970392.475
       227.000         169.000
  22013176.484    -8589475.95049  -6684172.97946  22013176.555    22013183.163
       232.000         182.000
  24941505.358    -4618439.37349  -3586224.21945  24941504.466    24941515.209
       209.000         138.000
  23716879.148    -5024319.30449  -3579596.40145  23716877.487    23716888.568
       208.000         151.000
 02  7  2 17 16 30.0000000  0 10G21G23G18G17G15G 6G29G26G 2G22
  22625651.352   -13138865.95049 -10215548.22646  22625651.168    22625659.659
       231.000         173.000
  22427614.793     9133690.15949   7119837.22846  22427614.206    22427622.059
       228.000         184.000
  20544230.650   -16532540.95649 -12866595.93147  20544229.876    20544235.043
       243.000         210.000
  20699884.130    -7740062.10349  -6017442.65647  20699883.229    20699889.992
       241.000         202.000
  20704747.580   -12159139.07849  -9452498.86947  20704746.252    20704753.078
       242.000         201.000
  21232912.968     2848347.78849   2226059.07847  21232913.080    21232919.212
       243.000         192.000
  22979660.957    -3739930.61449  -2903206.66146  22979660.822    22979668.746
       227.000         170.000
  22020261.714    -8552243.14149  -6655160.41046  22020261.520    22020268.880
       230.000         182.000
  24937559.950    -4639171.85249  -3602379.42745  24937557.338    24937570.629
       206.000         138.000
  23722539.714    -4994572.32049  -3556416.99445  23722539.308    23722549.662
       212.000         151.000
 02  7  2 17 17  0.0000000  0 11G21G23G18G17G15G 6G29G26G 3G 2G22
  22613888.251   -13200682.63549 -10263717.02946  22613887.461    22613895.198
       230.000         171.000
  22441878.488     9208644.99749   7178243.55546  22441878.241    22441885.564
       229.000         183.000
  20539447.910   -16557674.44249 -12886180.44947  20539447.047    20539452.905
       243.000         210.000
  20697958.928    -7750178.94549  -6025325.89847  20697958.202    20697964.499
       241.000         203.000
  20699952.196   -12184339.03449  -9472135.18147  20699951.222    20699957.805
       243.000         201.000
  21246226.669     2918311.92849   2280576.50647  21246226.294    21246232.920
       244.000         192.000
  22989026.718    -3690712.79949  -2864855.16546  22989025.859    22989033.879
       225.000         171.000
  22027464.772    -8514391.12849  -6625665.34346  22027464.364    22027471.697
       229.000         182.000
  24624418.201    -2135749.56549  -1640650.33145  24624419.079    24624428.766
       216.000         148.000
  24933695.292    -4659476.71949  -3618201.39645  24933695.112    24933707.250
       211.000         138.000
  23728283.572    -4964389.26949  -3532897.82945  23728282.342    23728294.616
       210.000         150.000
 02  7  2 17 17 30.0000000  0 11G21G23G18G17G15G 6G29G26G 3G 2G22
  22602176.533   -13262227.43749 -10311673.95546  22602175.080    22602182.707
       231.000         170.000
  22456166.660     9283728.36049   7236750.04246  22456166.170    22456173.282
       229.000         184.000
  20534745.868   -16582383.77949 -12905434.47147  20534744.982    20534750.131
       243.000         209.000
  20696067.700    -7760117.57249  -6033070.27847  20696066.931    20696073.284
       244.000         204.000
  20695194.382   -12209341.54449  -9491617.64747  20695193.246    20695199.804
       242.000         201.000
  21259621.103     2988699.49049   2335423.87647  21259620.871    21259628.110
       243.000         192.000
  22998484.283    -3641013.14549  -2826128.17746  22998483.861    22998490.917
       225.000         171.000
  22034785.240    -8475921.62449  -6595689.11546  22034784.096    22034790.986
       228.000         180.000
  24605243.261    -2236516.32149  -1719169.81645  24605244.024    24605251.572
       217.000         147.000
  24929913.470    -4679354.15849  -3633690.38145  24929915.659    24929924.187
       212.000         139.000
  23734109.893    -4933772.74149  -3509040.86645  23734107.399    23734118.781
       208.000         150.000
 02  7  2 17 18  0.0000000  0 11G21G23G18G17G15G 6G29G26G 3G 2G22
  22590517.361   -13323496.28149 -10359415.84346  22590515.432    22590524.398
       232.000         171.000
  22470479.296     9358941.74449   7295357.83846  22470478.711    22470485.611
       230.000         185.000
  20530125.057   -16606666.20449 -12924355.81947  20530124.071    20530129.535
       243.000         209.000
  20694211.271    -7769874.07649  -6040672.74347  20694210.706    20694216.917
       244.000         205.000
  20690474.812   -12234142.69349  -9510943.20847  20690473.733    20690480.167
       242.000         201.000
  21273096.340     3059512.51049   2390602.77547  21273095.612    21273102.446
       243.000         192.000
  23008033.862    -3590829.86749  -2787024.37246  23008033.270    23008040.580
       226.000         172.000
  22042223.432    -8436832.45149  -6565230.05646  22042223.356    22042230.499
       227.000         179.000
  24586093.177    -2337152.50349  -1797587.54445  24586094.481    24586099.708
       218.000         146.000
  24926212.921    -4698800.93549  -3648843.77245  24926211.363    24926220.815
       213.000         138.000
  23740018.439    -4902721.04749  -3484844.82045  23740016.608    23740026.792
       211.000         149.000
 02  7  2 17 18 30.0000000  0 11G21G23G18G17G15G 6G29G26G 3G 2G22
  22578910.697   -13384489.33249 -10406942.85546  22578909.596    22578918.917
       231.000         172.000
  22484816.329     9434282.63649   7354064.99746  22484815.626    22484822.213
       232.000         186.000
  20525585.294   -16630522.81049 -12942945.38147  20525584.673    20525589.432
       244.000         209.000
  20692389.405    -7779448.55649  -6048133.37947  20692389.017    20692394.894
       245.000         206.000
  20685793.608   -12258742.38349  -9530111.79647  20685792.924    20685799.221
       242.000         200.000
  21286652.219     3130748.73349   2446111.42147  21286651.508    21286658.233
       243.000         191.000
  23017675.176    -3540164.94849  -2747545.22446  23017674.775    23017680.839
       227.000         172.000
  22049779.415    -8397125.57249  -6534289.64746  22049779.535    22049785.855
       230.000         180.000
  24566968.532    -2437656.38049  -1875902.16845  24566970.810    24566973.057
       220.000         143.000
  24922594.376    -4717817.74949  -3663662.13045  24922593.378    24922606.904
       210.000         140.000
  23746009.721    -4871236.88249  -3460311.80445  23746008.440    23746018.891
       211.000         150.000
